[[{"header":{"parameterUnit":"m.s-1","parameterCategory":1,"la1":30.6,"la2":29.2853,"lo1":-89.7004,"lo2":-87.6739,"dy":0.0162,"dx":0.0183,"nx":112,"ny":82,"refTime":"2026-04-12T12:00:00:Z","depth":0,"parameterNumber":2,"parameterNumberName":"U-component_of_WINDS"},"data":[0.0,0.0,0.0,0.0,0.0,0.0,0.0,0.0,0.0,0.0,0.0,0.0,0.0,0.0,0.0,0.0,0.0,0.0,0.0,0.0,0.0,0.0,0.0,0.0,0.0,0.0,0.0,0.0,0.0,0.0,0.0,0.0,0.0,0.0,0.0,0.0,0.0,0.0,0.0,0.0,0.0,0.0,0.0,0.0,0.0,0.0,0.0,0.0,0.0,0.0,0.0,0.0,0.0,0.0,0.0,0.0,0.0,0.0,0.0,0.0,0.0,0.0,0.0,0.0,0.0,0.0,0.0,0.0,0.0,0.0,0.0,0.0,0.0,0.0,0.0,0.0,0.0,0.0,0.0,0.0,0.0,0.0,0.0,0.0,0.0,0.0,0.0,0.0,0.0,0.0,-4.8721,-4.8529,-4.9928,-5.0911,-5.1033,-5.1045,-4.9975,-4.7486,0.0,0.0,0.0,0.0,0.0,0.0,0.0,0.0,0.0,0.0,0.0,0.0,0.0,0.0,0.0,0.0,0.0,0.0,0.0,0.0,0.0,0.0,0.0,0.0,0.0,0.0,0.0,0.0,0.0,0.0,0.0,0.0,0.0,0.0,0.0,0.0,0.0,0.0,0.0,0.0,0.0,0.0,0.0,0.0,0.0,0.0,0.0,0.0,0.0,0.0,0.0,0.0,0.0,0.0,0.0,0.0,0.0,0.0,0.0,0.0,0.0,0.0,0.0,0.0,0.0,0.0,0.0,0.0,0.0,0.0,0.0,0.0,0.0,0.0,0.0,0.0,0.0,0.0,0.0,0.0,0.0,0.0,0.0,0.0,0.0,0.0,0.0,0.0,0.0,0.0,0.0,0.0,0.0,0.0,0.0,0.0,0.0,0.0,0.0,0.0,0.0,0.0,0.0,0.0,-4.7249,-5.0019,-5.0548,-5.074,-5.0757,-5.0766,-4.9694,-4.7223,0.0,0.0,0.0,0.0,0.0,0.0,0.0,0.0,0.0,0.0,0.0,0.0,0.0,0.0,0.0,0.0,0.0,0.0,0.0,0.0,0.0,0.0,0.0,0.0,0.0,0.0,0.0,0.0,0.0,0.0,0.0,0.0,0.0,0.0,0.0,0.0,0.0,0.0,0.0,0.0,0.0,0.0,0.0,0.0,0.0,0.0,0.0,0.0,0.0,0.0,0.0,0.0,0.0,0.0,0.0,0.0,0.0,0.0,0.0,0.0,0.0,0.0,0.0,0.0,0.0,0.0,0.0,0.0,0.0,0.0,0.0,0.0,0.0,0.0,0.0,0.0,0.0,0.0,0.0,0.0,0.0,0.0,0.0,0.0,0.0,0.0,0.0,0.0,0.0,0.0,0.0,0.0,0.0,0.0,0.0,0.0,0.0,0.0,0.0,0.0,0.0,0.0,0.0,-4.6336,-4.7432,-5.0385,-5.0712,-5.0712,-5.0712,-5.0712,-4.9467,-4.6537,-4.6455,0.0,0.0,0.0,0.0,0.0,0.0,0.0,0.0,0.0,0.0,0.0,0.0,0.0,0.0,0.0,0.0,0.0,0.0,0.0,0.0,0.0,0.0,0.0,0.0,0.0,0.0,0.0,0.0,0.0,0.0,0.0,0.0,0.0,0.0,0.0,0.0,0.0,0.0,0.0,0.0,0.0,0.0,0.0,0.0,0.0,0.0,0.0,0.0,0.0,0.0,0.0,0.0,0.0,0.0,0.0,0.0,0.0,0.0,0.0,0.0,0.0,0.0,0.0,0.0,0.0,0.0,0.0,0.0,0.0,0.0,0.0,0.0,0.0,0.0,0.0,0.0,0.0,0.0,0.0,0.0,0.0,0.0,0.0,0.0,0.0,0.0,0.0,0.0,0.0,0.0,0.0,0.0,0.0,0.0,0.0,0.0,0.0,0.0,0.0,0.0,0.0,0.0,-4.7509,-4.824,-5.0192,-5.0385,-5.0308,-5.0087,-4.9913,-4.8554,-4.5641,-4.5278,0.0,0.0,0.0,0.0,0.0,0.0,0.0,0.0,0.0,0.0,0.0,0.0,0.0,0.0,0.0,0.0,0.0,0.0,0.0,0.0,0.0,0.0,0.0,0.0,0.0,0.0,0.0,0.0,0.0,0.0,0.0,0.0,0.0,0.0,0.0,0.0,0.0,0.0,0.0,0.0,0.0,0.0,0.0,0.0,0.0,0.0,0.0,0.0,0.0,0.0,0.0,0.0,0.0,0.0,0.0,0.0,0.0,0.0,0.0,0.0,0.0,0.0,0.0,0.0,0.0,0.0,0.0,0.0,0.0,0.0,0.0,0.0,0.0,0.0,0.0,0.0,0.0,0.0,0.0,0.0,0.0,0.0,0.0,0.0,0.0,0.0,0.0,0.0,0.0,0.0,0.0,0.0,0.0,0.0,0.0,0.0,0.0,0.0,0.0,0.0,0.0,0.0,-4.7778,-4.9298,-4.9471,-4.949,-4.9163,-4.8355,-4.7605,-4.6374,-4.4515,-4.3752,0.0,0.0,0.0,0.0,0.0,0.0,0.0,0.0,0.0,0.0,0.0,0.0,0.0,0.0,0.0,0.0,0.0,0.0,0.0,0.0,0.0,0.0,0.0,0.0,0.0,0.0,0.0,0.0,0.0,0.0,0.0,0.0,0.0,0.0,0.0,0.0,0.0,0.0,0.0,0.0,0.0,0.0,0.0,0.0,0.0,0.0,0.0,0.0,0.0,0.0,0.0,0.0,0.0,0.0,0.0,0.0,0.0,0.0,0.0,0.0,0.0,0.0,0.0,0.0,0.0,0.0,0.0,0.0,0.0,0.0,0.0,0.0,0.0,0.0,0.0,0.0,0.0,0.0,0.0,0.0,0.0,0.0,0.0,0.0,0.0,0.0,0.0,0.0,0.0,0.0,0.0,0.0,0.0,0.0,0.0,0.0,0.0,0.0,0.0,0.0,0.0,0.0,-4.5657,-4.712,0.0,-4.8461,-4.8471,-4.8125,-4.7817,-4.6701,-4.4432,0.0,0.0,0.0,0.0,0.0,0.0,0.0,0.0,0.0,0.0,0.0,0.0,0.0,0.0,0.0,0.0,0.0,0.0,0.0,0.0,0.0,0.0,0.0,0.0,0.0,0.0,0.0,0.0,0.0,0.0,0.0,0.0,0.0,0.0,0.0,0.0,0.0,0.0,0.0,0.0,0.0,0.0,0.0,0.0,0.0,0.0,0.0,0.0,0.0,0.0,0.0,0.0,0.0,0.0,0.0,0.0,0.0,0.0,0.0,0.0,0.0,0.0,0.0,0.0,0.0,0.0,0.0,0.0,0.0,0.0,0.0,0.0,0.0,0.0,0.0,0.0,0.0,0.0,0.0,0.0,0.0,0.0,0.0,0.0,0.0,0.0,0.0,0.0,0.0,0.0,0.0,0.0,0.0,0.0,0.0,0.0,0.0,0.0,0.0,0.0,0.0,0.0,-4.2699,-4.4104,-4.5373,0.0,-4.6852,-4.6767,-4.6231,-4.5973,-4.5007,-4.3097,0.0,0.0,0.0,0.0,0.0,0.0,0.0,0.0,0.0,0.0,0.0,0.0,0.0,0.0,0.0,0.0,0.0,0.0,0.0,0.0,0.0,0.0,0.0,0.0,0.0,0.0,0.0,0.0,0.0,0.0,0.0,0.0,0.0,0.0,0.0,0.0,0.0,0.0,0.0,0.0,0.0,0.0,0.0,0.0,0.0,0.0,0.0,0.0,0.0,0.0,0.0,0.0,0.0,0.0,0.0,0.0,0.0,0.0,0.0,0.0,0.0,0.0,0.0,0.0,0.0,0.0,0.0,0.0,0.0,0.0,0.0,0.0,0.0,0.0,0.0,0.0,0.0,0.0,0.0,0.0,0.0,0.0,0.0,0.0,0.0,0.0,0.0,0.0,0.0,0.0,0.0,0.0,0.0,0.0,0.0,0.0,0.0,0.0,0.0,0.0,0.0,0.0,-4.1862,-4.3536,-4.4556,-4.4556,-4.4569,-4.3907,-4.2252,-4.1371,-4.0685,0.0,0.0,0.0,0.0,0.0,0.0,0.0,0.0,0.0,0.0,0.0,0.0,0.0,0.0,0.0,0.0,0.0,0.0,0.0,0.0,0.0,0.0,0.0,0.0,0.0,0.0,0.0,0.0,0.0,0.0,0.0,0.0,0.0,0.0,0.0,0.0,0.0,0.0,0.0,0.0,0.0,0.0,0.0,0.0,0.0,0.0,0.0,0.0,0.0,0.0,0.0,0.0,0.0,0.0,0.0,0.0,0.0,0.0,0.0,0.0,0.0,0.0,0.0,0.0,0.0,0.0,0.0,0.0,0.0,0.0,0.0,0.0,0.0,0.0,0.0,0.0,0.0,0.0,0.0,0.0,0.0,0.0,0.0,0.0,0.0,0.0,0.0,0.0,0.0,0.0,0.0,0.0,0.0,0.0,0.0,0.0,0.0,0.0,0.0,0.0,0.0,0.0,0.0,-3.9633,-4.132,-4.2478,-4.2478,-4.2699,-4.2648,-4.2138,-4.1893,-4.0946,-3.9096,0.0,0.0,0.0,0.0,0.0,0.0,0.0,0.0,0.0,0.0,0.0,0.0,0.0,0.0,0.0,0.0,0.0,0.0,0.0,0.0,0.0,0.0,0.0,0.0,0.0,0.0,0.0,0.0,0.0,0.0,0.0,0.0,0.0,0.0,0.0,0.0,0.0,0.0,0.0,0.0,0.0,0.0,0.0,0.0,0.0,0.0,0.0,0.0,0.0,0.0,0.0,0.0,0.0,0.0,0.0,0.0,0.0,0.0,0.0,0.0,0.0,0.0,0.0,0.0,0.0,0.0,0.0,0.0,0.0,0.0,0.0,0.0,0.0,0.0,0.0,0.0,0.0,0.0,0.0,0.0,0.0,0.0,0.0,0.0,0.0,0.0,0.0,0.0,0.0,0.0,0.0,0.0,0.0,0.0,0.0,0.0,0.0,0.0,0.0,0.0,0.0,0.0,-3.816,-3.9623,-4.0686,-4.0893,-4.1106,-4.1095,-4.0777,-4.0739,-3.9907,-3.7922,0.0,0.0,0.0,0.0,0.0,0.0,0.0,0.0,0.0,0.0,0.0,0.0,0.0,0.0,0.0,0.0,0.0,0.0,0.0,0.0,0.0,0.0,0.0,0.0,0.0,0.0,0.0,0.0,0.0,0.0,0.0,0.0,0.0,0.0,0.0,0.0,0.0,0.0,0.0,0.0,0.0,0.0,0.0,0.0,0.0,0.0,0.0,0.0,0.0,0.0,0.0,0.0,0.0,0.0,0.0,0.0,0.0,0.0,0.0,0.0,0.0,0.0,0.0,0.0,0.0,0.0,0.0,0.0,0.0,0.0,0.0,0.0,0.0,0.0,0.0,0.0,0.0,0.0,0.0,0.0,0.0,0.0,0.0,0.0,0.0,0.0,0.0,0.0,0.0,0.0,0.0,0.0,0.0,0.0,0.0,0.0,0.0,0.0,0.0,0.0,0.0,0.0,-3.6994,-3.8058,-3.8916,-3.9481,-3.9548,-3.9257,-3.8635,-3.8546,-3.7948,-3.656,0.0,0.0,0.0,0.0,0.0,0.0,0.0,0.0,0.0,0.0,0.0,0.0,0.0,0.0,0.0,0.0,0.0,0.0,0.0,0.0,0.0,0.0,0.0,0.0,0.0,0.0,0.0,0.0,0.0,0.0,0.0,0.0,0.0,0.0,0.0,0.0,0.0,0.0,0.0,0.0,0.0,0.0,0.0,0.0,0.0,0.0,0.0,0.0,0.0,0.0,0.0,0.0,0.0,0.0,0.0,0.0,0.0,0.0,0.0,0.0,-4.2864,0.0,0.0,0.0,0.0,0.0,0.0,0.0,0.0,0.0,0.0,0.0,0.0,0.0,0.0,0.0,0.0,0.0,0.0,0.0,0.0,0.0,0.0,0.0,0.0,0.0,0.0,0.0,0.0,0.0,0.0,0.0,0.0,0.0,0.0,0.0,0.0,0.0,0.0,0.0,0.0,0.0,-3.4518,-3.5274,-3.606,-3.6756,-3.6827,-3.7024,-3.7488,-3.7524,-3.6752,-3.4939,-3.4646,0.0,0.0,0.0,0.0,0.0,0.0,0.0,0.0,0.0,0.0,0.0,0.0,0.0,0.0,0.0,0.0,0.0,0.0,0.0,0.0,0.0,0.0,0.0,0.0,0.0,0.0,0.0,0.0,0.0,0.0,0.0,0.0,0.0,0.0,0.0,0.0,0.0,0.0,0.0,0.0,0.0,0.0,0.0,0.0,0.0,0.0,0.0,0.0,0.0,0.0,0.0,0.0,0.0,0.0,0.0,0.0,0.0,0.0,0.0,0.0,-4.2769,0.0,0.0,0.0,0.0,0.0,0.0,0.0,0.0,0.0,0.0,0.0,0.0,0.0,0.0,0.0,0.0,0.0,0.0,0.0,0.0,0.0,0.0,0.0,0.0,0.0,0.0,0.0,0.0,0.0,0.0,0.0,0.0,0.0,0.0,0.0,0.0,0.0,0.0,0.0,0.0,-3.3701,-3.4199,-3.4798,-3.5403,-3.5474,-3.5776,-3.6573,-3.6607,-3.6025,-3.463,-3.4184,0.0,0.0,0.0,0.0,0.0,0.0,0.0,0.0,0.0,0.0,0.0,0.0,0.0,0.0,0.0,0.0,0.0,0.0,0.0,0.0,0.0,0.0,0.0,0.0,0.0,0.0,0.0,0.0,0.0,0.0,0.0,0.0,0.0,0.0,0.0,0.0,0.0,0.0,0.0,0.0,0.0,0.0,0.0,0.0,0.0,0.0,0.0,0.0,0.0,0.0,0.0,0.0,0.0,-4.1629,-4.1614,-4.0401,-4.1566,-4.139,-4.027,-4.165,-4.273,-4.3371,-4.1671,0.0,0.0,0.0,0.0,0.0,0.0,0.0,0.0,0.0,0.0,0.0,0.0,0.0,0.0,0.0,0.0,0.0,0.0,0.0,0.0,0.0,0.0,0.0,0.0,-3.5756,-3.5909,0.0,0.0,0.0,0.0,0.0,0.0,0.0,0.0,0.0,0.0,0.0,0.0,-3.3213,-3.3518,-3.3878,-3.4392,-3.4464,-3.4763,-3.5483,-3.5553,-3.5237,-3.4517,-3.3724,-3.2436,0.0,0.0,0.0,0.0,0.0,0.0,0.0,0.0,0.0,0.0,0.0,0.0,0.0,0.0,0.0,0.0,0.0,0.0,0.0,0.0,0.0,0.0,0.0,0.0,0.0,0.0,0.0,0.0,0.0,0.0,0.0,0.0,-4.2993,-4.2428,0.0,0.0,0.0,0.0,0.0,0.0,0.0,0.0,0.0,0.0,0.0,0.0,0.0,-4.1103,-4.158,-4.225,-4.2489,-4.2409,-4.3288,-4.3339,-4.2572,-4.2764,-4.2445,-4.1725,-4.1931,0.0,-4.0391,-4.0153,0.0,0.0,0.0,0.0,0.0,0.0,0.0,0.0,0.0,0.0,0.0,0.0,0.0,0.0,0.0,0.0,0.0,0.0,0.0,0.0,0.0,0.0,-3.4904,-3.4055,-3.3942,-3.3977,0.0,-3.3656,-3.3359,-3.2613,-3.2477,0.0,0.0,0.0,0.0,0.0,0.0,0.0,-3.1581,-3.1567,-3.1873,-3.2565,-3.2633,-3.294,-3.3686,-3.3754,-3.3596,-3.3269,-3.2485,-3.176,-3.1195,-3.0431,0.0,0.0,0.0,0.0,0.0,0.0,0.0,0.0,0.0,0.0,0.0,0.0,0.0,0.0,0.0,0.0,0.0,0.0,0.0,0.0,0.0,0.0,0.0,0.0,0.0,0.0,0.0,0.0,0.0,-4.2832,-4.2749,-4.2077,-4.2912,-4.3298,0.0,0.0,0.0,0.0,0.0,0.0,0.0,0.0,0.0,-4.1207,-4.1205,-4.1311,-4.1535,-4.1863,-4.2001,-4.2017,-4.2361,-4.2181,-4.1533,-4.1533,-4.1148,-4.055,-4.055,-4.0177,-3.964,-4.023,-4.0244,-3.9816,0.0,0.0,0.0,0.0,-3.8015,-3.7635,-3.7395,-3.685,-3.6194,-3.5728,0.0,0.0,0.0,0.0,0.0,0.0,0.0,0.0,0.0,0.0,-3.4627,-3.4296,-3.4216,-3.4104,-3.3704,-3.3551,-3.3299,0.0,-3.2426,-3.2214,-3.1614,0.0,0.0,0.0,0.0,-3.0497,-3.0662,-3.0699,-3.0955,-3.161,-3.1684,-3.1989,-3.2713,-3.278,-3.2713,-3.2613,-3.2269,-3.1646,-3.0662,-3.0472,-2.984,0.0,0.0,0.0,0.0,0.0,0.0,0.0,0.0,0.0,0.0,0.0,0.0,0.0,0.0,0.0,0.0,0.0,0.0,0.0,0.0,0.0,0.0,0.0,0.0,0.0,0.0,0.0,0.0,-4.2203,-4.2289,-4.1423,-4.2286,-4.2639,0.0,0.0,0.0,0.0,0.0,0.0,-4.1209,-4.1012,-4.114,-4.1776,-4.1807,-4.183,-4.1878,-4.1878,-4.1803,-4.1677,-4.1677,-4.119,-4.0397,-4.0397,-4.0038,-3.9388,-3.9388,-3.9388,-3.9421,-4.0011,-4.0087,-3.9722,-3.8835,-3.8305,-3.8003,-3.7637,-3.7152,-3.6714,-3.7091,-3.6749,-3.6075,-3.5702,-3.5121,-3.4444,-3.371,0.0,0.0,0.0,0.0,-3.344,-3.3803,-3.3876,-3.3876,-3.3876,-3.3876,-3.3734,-3.3187,-3.3066,-3.2914,0.0,-3.2238,-3.1952,-3.0985,0.0,0.0,0.0,0.0,-2.9563,-3.0016,-3.0081,-3.0251,-3.0699,-3.074,-3.0957,-3.1512,-3.1562,-3.1562,-3.1562,-3.1562,-3.1057,-2.9969,-3.0167,-2.9676,-2.8404,0.0,0.0,0.0,0.0,0.0,0.0,0.0,0.0,0.0,0.0,0.0,0.0,0.0,0.0,0.0,0.0,0.0,0.0,0.0,0.0,0.0,0.0,0.0,0.0,0.0,0.0,0.0,0.0,0.0,-3.9703,-4.1434,0.0,0.0,0.0,0.0,-4.3751,-4.2309,-4.175,-4.2576,-4.1808,-4.1686,-4.2353,-4.2368,-4.2644,-4.3185,-4.3185,-4.2925,-4.2351,-4.2351,-4.1677,-4.0397,-4.0397,-4.0038,-3.9388,-3.9388,-3.9388,-3.9364,-3.8782,-3.8956,-3.948,-3.8181,-3.8105,-3.8569,-3.7184,-3.6645,-3.6507,-3.5863,-3.5168,-3.4703,-3.5319,-3.5034,-3.4384,-3.3702,-3.3554,0.0,0.0,-3.2641,-3.2492,-3.1826,-3.1656,-3.1656,-3.1656,-3.1656,-3.1656,-3.1611,-3.1671,-3.1654,0.0,-3.155,-3.1109,-2.9739,0.0,-2.9406,-2.9451,-2.9429,-2.9406,-2.9451,-2.9451,-2.9451,-2.9496,-2.9496,-2.9512,-2.9544,-2.9544,-2.9544,-2.9544,-2.9544,-2.9512,-2.9448,-2.9454,-2.9101,-2.8324,-2.7692,0.0,0.0,0.0,0.0,0.0,0.0,0.0,0.0,0.0,0.0,0.0,0.0,0.0,0.0,0.0,0.0,0.0,0.0,0.0,0.0,0.0,0.0,0.0,0.0,0.0,0.0,0.0,0.0,-4.0157,-4.149,0.0,-4.1576,-4.1516,-4.1739,-4.2282,-4.1753,-4.1701,-4.2485,-4.2227,-4.2312,-4.297,-4.2985,-4.2895,-4.2701,-4.2701,-4.2387,-4.1767,-4.1309,-4.0846,-4.0382,-3.9963,-3.9649,-3.9388,-3.9388,-3.9388,-3.9364,-3.8676,-3.8296,-3.8133,-3.7649,-3.7134,-3.6611,-3.6098,-3.5894,-3.5863,-3.5587,-3.534,-3.51,-3.4906,-3.439,-3.3713,-3.3047,-3.2566,-3.2201,-3.1951,-3.1881,-3.1824,-3.1553,-3.1511,-3.1511,-3.1511,-3.1511,-3.1376,-3.0943,-3.0867,-3.0627,-2.9792,-2.9984,-3.0106,-2.9563,-2.879,-2.8376,-2.8756,-2.8496,-2.8376,-2.8779,-2.8826,-2.8816,-2.876,-2.9134,-2.9237,-2.8778,-2.9156,-2.9406,-2.9406,-2.9406,-2.9406,-2.9406,-2.9406,-2.9048,-2.8307,-2.8073,-2.7364,0.0,0.0,0.0,0.0,0.0,0.0,0.0,0.0,0.0,0.0,0.0,0.0,0.0,0.0,0.0,0.0,0.0,0.0,0.0,0.0,0.0,0.0,0.0,0.0,0.0,0.0,-4.1512,-4.0816,-4.1737,-4.2231,-4.1796,-4.1752,-4.1841,-4.2028,-4.2043,-4.2067,-4.2154,-4.2129,-4.2162,-4.2167,-4.1963,-4.1668,-4.1259,-4.1065,-4.0641,-3.9959,-3.9909,-3.9547,-3.8981,-3.89,-3.8657,-3.8316,-3.8112,-3.8062,-3.8018,-3.7397,-3.6725,-3.6175,-3.6837,-3.6582,-3.5804,-3.5594,-3.5504,-3.5439,-3.51,-3.4886,-3.4543,-3.3574,-3.282,-3.2209,-3.1535,-3.1024,-3.0644,-3.0644,-3.0644,-3.0644,-3.0644,-3.0644,-3.063,-3.044,-3.0397,-3.0207,-2.9564,-2.9257,-2.8862,-2.8017,-2.8621,-2.9183,-2.8918,-2.8172,-2.7735,-2.814,-2.786,-2.7735,-2.814,-2.8213,-2.8174,-2.8138,-2.8544,-2.8528,-2.7868,-2.8183,-2.8372,-2.8136,-2.8121,-2.8121,-2.8121,-2.8121,-2.7988,-2.7731,-2.7496,-2.68,-2.5602,0.0,0.0,0.0,0.0,0.0,0.0,0.0,0.0,0.0,0.0,0.0,0.0,0.0,0.0,0.0,0.0,0.0,0.0,0.0,0.0,0.0,0.0,0.0,-4.0959,-4.1861,-4.2079,-4.1451,-4.1944,-4.2348,-4.2387,-4.2348,-4.2563,-4.3165,-4.321,-4.2725,-4.1601,-4.1545,-4.1042,-3.9942,-3.932,-3.8988,-3.8961,-3.845,-3.784,-3.7163,-3.8214,-3.7834,-3.6251,-3.7266,-3.7175,-3.6142,-3.5629,-3.538,-3.5311,-3.4778,-3.4168,-3.3796,-3.5659,-3.6395,-3.6305,-3.563,-3.5407,-3.5279,-3.4279,-3.3609,-3.291,-3.1322,-3.0444,-2.9887,-2.9241,-2.9016,-2.9002,-2.9002,-2.9002,-2.9002,-2.9002,-2.8989,-2.8823,-2.8321,-2.8183,-2.8019,-2.7411,-2.6812,-2.6381,-2.6368,-2.7527,-2.8301,-2.7629,-2.7534,-2.7534,-2.7534,-2.7534,0.0,-2.753,-2.753,-2.753,-2.751,-2.7525,-2.727,-2.6587,-2.6557,-2.6288,-2.5644,-2.5615,-2.5615,-2.5615,-2.5615,-2.5914,-2.6566,-2.5914,-2.5183,-2.44,0.0,0.0,0.0,0.0,0.0,0.0,0.0,0.0,0.0,0.0,0.0,0.0,0.0,0.0,0.0,0.0,0.0,0.0,0.0,0.0,0.0,-3.845,-3.8671,-3.8858,-3.9447,-4.0116,-4.0742,-4.0666,-4.0926,-4.1727,-4.1052,-4.0661,-4.0831,-4.0845,-4.0717,-4.0361,-4.0375,-4.0232,-3.9899,-3.932,-3.8795,-3.8338,-3.7744,-3.7122,-3.65,-3.6777,-3.6654,-3.6198,-3.6526,-3.6264,-3.5615,-3.5449,-3.5183,-3.4764,-3.4127,-3.3767,-3.3651,-3.4206,-3.4115,-3.3669,-3.3465,-3.3394,-3.3359,-3.3066,-3.2625,-3.2114,-3.1673,-3.0843,-2.997,-2.9771,-2.938,-2.9002,-2.9002,-2.9002,-2.9002,-2.9002,-2.8702,-2.8374,-2.8238,-2.7866,-2.7367,-2.6771,-2.6521,-2.6257,-2.5757,-2.6007,-2.6225,-2.6028,-2.6,-2.6,-2.6,-2.6,0.0,-2.6079,-2.6072,-2.5898,-2.5469,-2.5869,-2.5884,-2.5202,-2.5615,-2.5809,-2.5615,-2.5615,-2.5615,-2.5615,-2.5615,-2.5689,-2.5869,-2.5217,-2.4762,0.0,0.0,0.0,0.0,0.0,0.0,0.0,0.0,0.0,0.0,0.0,0.0,0.0,0.0,0.0,0.0,0.0,0.0,0.0,0.0,0.0,0.0,-3.7796,-3.771,-3.7334,-3.8437,-3.9561,-4.021,-4.0066,-4.0145,-4.0831,-4.0275,-3.9899,-3.9899,-3.9899,-3.9681,-3.9183,-3.9139,-3.8809,-3.8091,-3.7493,-3.6907,-3.6348,-3.5792,-3.5271,-3.4925,-3.5359,-3.5359,-3.4911,-3.5116,-3.4793,-3.4033,-3.3594,-3.3194,-3.2873,-3.2273,-3.2019,0.0,0.0,0.0,0.0,0.0,-3.2477,-3.222,-3.1809,-3.1159,-3.0439,-3.0038,-2.9272,-2.8525,-2.8525,-2.8252,-2.7953,-2.7953,-2.7953,-2.7953,-2.7953,-2.7546,-2.704,-2.6845,-2.6325,-2.5755,-2.5151,-2.5031,-2.4896,-2.4505,-2.4439,0.0,-2.4439,-2.4979,-2.5398,-2.5398,-2.5177,-2.5035,-2.5081,-2.489,-2.4615,-2.4264,-2.4559,-2.453,-2.3867,-2.4143,0.0,0.0,0.0,-2.3963,-2.3963,-2.4239,0.0,0.0,0.0,0.0,0.0,0.0,0.0,0.0,-2.4191,-2.418,0.0,0.0,0.0,0.0,0.0,0.0,0.0,0.0,0.0,0.0,0.0,0.0,0.0,0.0,0.0,0.0,-3.6619,-3.6405,-3.6405,-3.8179,-3.9549,-3.9681,-3.9593,-3.9549,-3.9667,-3.9593,-3.9505,-3.9505,-3.9505,-3.905,-3.7984,0.0,0.0,0.0,0.0,-3.4462,-3.3909,-3.3357,-3.3124,-3.3124,-3.4079,-3.3998,-3.2998,-3.3418,-3.3038,-3.1976,-3.1022,-3.0583,-3.0482,-2.9993,-2.9792,-2.9972,-3.1623,-3.2285,-3.2285,-3.2203,-3.1883,-3.1348,-3.0449,0.0,0.0,-2.7586,-2.6952,-2.6499,-2.6499,-2.6499,-2.6499,-2.6499,-2.6499,-2.6474,-2.6411,-2.5971,-2.5372,-2.4858,-2.4274,-2.3753,-2.3221,-2.3108,-2.3108,-2.3108,-2.3108,-2.3083,-2.302,-2.4145,-2.5051,-2.5051,-2.4532,-2.4161,-2.4172,-2.3756,-2.3474,-2.3467,0.0,0.0,-2.2643,-2.2588,-2.2329,-2.1738,-2.1697,-2.1697,-2.1697,-2.2259,-2.2301,-2.171,-2.2273,-2.2287,-2.1697,-2.1697,-2.1697,-2.172,-2.2854,-2.3127,0.0,0.0,0.0,0.0,0.0,0.0,0.0,0.0,0.0,0.0,0.0,0.0,0.0,0.0,0.0,-3.5905,-3.6134,-3.6405,-3.6405,-3.6803,-3.7428,-3.8334,-3.7645,-3.7415,-3.8379,-3.7645,-3.707,-3.707,-3.707,-3.6989,-3.6756,-3.6709,-3.6328,-3.552,-3.4969,-3.4462,-3.3909,-3.3357,-3.3124,-3.3124,0.0,0.0,-3.2378,-3.2449,-3.1931,-3.0909,-3.0708,-3.0357,-2.9942,-2.9829,-2.9792,-2.983,-3.0177,-3.0355,-3.0304,-2.9793,-2.9537,-2.9383,-2.8766,-2.8109,-2.7551,-2.7352,-2.6952,-2.6499,-2.6499,-2.6499,0.0,-2.6499,-2.6499,-2.6386,-2.5921,-2.5372,-2.4833,-2.4293,-2.3684,-2.3246,-2.3133,-2.3108,-2.3108,-2.3108,-2.3108,-2.2957,-2.2518,-2.2693,-2.2911,-2.2911,-2.2424,-2.2105,-2.2154,-2.2072,-2.2035,-2.2087,-2.208,-2.2038,-2.189,-2.1876,-2.1835,-2.171,-2.1697,-2.1697,-2.1697,-2.1821,-2.1821,-2.1697,-2.1821,-2.1821,-2.1697,-2.1697,-2.1697,-2.1697,-2.1955,-2.2272,0.0,0.0,0.0,0.0,0.0,0.0,0.0,0.0,0.0,0.0,0.0,-3.5601,-3.584,0.0,-3.6235,-3.5999,-3.6182,-3.6405,-3.6405,-3.6405,-3.6628,-3.7196,-3.6756,-3.6628,-3.7196,-3.6709,-3.6405,-3.6405,-3.6405,-3.6405,-3.6405,-3.6094,-3.5705,-3.5107,-3.46,-3.4048,-3.3495,-3.3219,-3.3124,-3.3124,-3.3124,-3.2767,-3.2202,-3.1926,-3.1373,-3.0608,-3.0331,-3.0043,-2.9792,-2.9792,-2.9792,-2.9767,-2.9478,-2.9528,-2.9729,-2.9101,-2.8712,-2.8436,-2.7883,-2.7331,-2.6901,-2.6901,-2.6713,-2.6499,-2.6499,-2.6499,-2.6499,-2.6499,-2.6499,-2.6361,-2.5749,-2.5209,-2.465,-2.413,-2.3521,-2.3108,-2.3108,-2.3108,-2.3108,-2.3108,-2.3108,-2.2932,-2.238,-2.2083,-2.1895,-2.1895,-2.143,-2.1102,-2.1157,-2.0888,-2.0707,-2.0733,-2.0756,-2.0756,-2.0756,-2.0756,-2.0756,-2.0756,-2.0756,-2.0756,-2.0756,-2.0756,-2.0756,-2.0756,-2.0756,-2.0756,-2.0756,-2.0756,-2.0756,-2.0756,-2.0756,-2.1088,0.0,0.0,0.0,0.0,0.0,0.0,0.0,-3.4876,-3.4876,-3.4876,-3.4964,-3.5177,-3.5583,-3.5658,-3.5843,-3.6329,-3.6405,-3.6405,-3.6405,-3.6405,-3.6405,-3.6405,-3.6405,-3.6405,-3.6405,-3.6405,-3.6405,-3.6405,-3.6405,-3.6405,-3.6405,-3.5843,-3.5245,-3.4738,-3.4186,-3.3633,-3.3124,-3.3124,-3.3124,-3.3124,-3.2968,-3.2604,-3.2039,-3.1486,-3.0947,-3.0432,-2.998,-2.9792,-2.9779,-2.9666,-2.9628,-2.9566,-2.9001,-2.9051,-2.9402,-2.8825,-2.8335,-2.7871,-2.7318,-2.6864,-2.6499,-2.6499,-2.6499,-2.6499,-2.6499,-2.6499,-2.6499,-2.6499,-2.6411,-2.6197,-2.5598,-2.5059,-2.4519,-2.3966,-2.3446,-2.3108,-2.3108,-2.3108,-2.3108,-2.3108,-2.3108,-2.2895,-2.2259,-2.1782,-2.1455,-2.1343,-2.088,-2.0528,-2.0528,-2.0087,-1.9798,-1.9798,-1.9798,-1.9798,-1.9798,-1.9798,-1.9798,-1.9798,-1.9798,-1.9798,-1.9798,-1.9798,-1.9798,-1.9798,-1.9798,-1.9798,-1.9798,-1.9798,-1.9798,-1.9798,-1.9798,-2.0156,-3.4462,-3.3897,-3.401,-3.4512,-3.4675,-3.4806,0.0,-3.5408,-3.5408,-3.5408,-3.5843,-3.6241,-3.6304,-3.6317,-3.6329,-3.6405,-3.6405,-3.6405,-3.6405,-3.6405,-3.6405,-3.6405,-3.6405,-3.6405,-3.6405,-3.6405,-3.6405,-3.6405,-3.6405,-3.6405,-3.6405,-3.5843,-3.5245,-3.4738,-3.4186,-3.3633,-3.3124,-3.3124,-3.3124,-3.3111,-3.2554,-3.2014,-3.1461,-3.0934,-3.0407,-2.988,-2.9817,-2.9792,-2.9754,-2.9239,-2.8988,-2.8938,-2.8411,-2.8235,-2.8222,-2.767,-2.7431,-2.7293,-2.6776,-2.6549,-2.6499,-2.6499,-2.6499,-2.6499,-2.6499,-2.6499,-2.6499,-2.6499,-2.6122,-2.5573,-2.5046,-2.4506,-2.3941,-2.3333,-2.3145,-2.3108,-2.3108,-2.3108,-2.3108,-2.3108,-2.3108,-2.2782,-2.1757,-2.1531,-2.1358,-2.0855,-2.0289,-1.9899,-1.9899,-1.9849,-1.9798,-1.9798,-1.9798,-1.9798,-1.9798,-1.9798,-1.9798,-1.9798,-1.9798,-1.9798,-1.9798,-1.9798,-1.9798,-1.9798,-1.9798,-1.9798,-1.9798,-1.9798,-1.9798,-1.9798,-1.9798,-2.0127,-3.4713,-3.4839,-3.5303,-3.5182,-3.568,-3.6132,-3.6044,-3.6019,-3.6019,-3.6019,-3.6194,-3.6405,-3.6405,-3.6405,-3.6405,-3.6405,-3.6405,-3.6405,-3.6405,-3.6405,-3.6405,-3.6405,-3.6405,-3.6405,-3.6405,-3.6405,-3.6405,-3.6405,-3.6405,-3.6267,-3.5893,-3.532,-3.4768,-3.4261,-3.3709,-3.3307,-3.3124,-3.3124,-3.2905,-3.2566,-3.2328,-3.1763,-3.0934,-3.0721,-3.0319,-2.9792,-2.9792,-2.9603,-2.9277,-2.8988,-2.8375,-2.7505,-2.6968,-2.6761,-2.6822,-2.7178,-2.7281,-2.7241,-2.6688,-2.6499,-2.6499,-2.6499,-2.6499,-2.6499,-2.6499,-2.6499,-2.6499,-2.6499,-2.5707,-2.4722,-2.4188,-2.3251,-2.2327,-2.1765,-2.1647,-2.1647,-2.1647,-2.1647,-2.1647,-2.1647,-2.1647,-2.1306,-2.027,-2.0093,-1.9839,-1.9014,-1.9413,-1.9798,-1.9798,-1.9798,-1.9798,-1.9798,-1.9798,-1.9798,-1.9798,-1.9798,-1.9798,-1.9798,-1.9798,-1.9798,-1.9798,-1.9798,-1.9798,-1.9798,-1.9798,-1.9798,-1.9798,-1.9798,-1.9798,-1.9798,-1.9798,-1.9936,-3.4969,-3.5642,-3.6307,-3.6056,-3.6709,-3.7312,-3.6958,-3.6857,-3.6857,-3.6857,-3.6732,-3.6631,-3.6631,-3.6505,-3.6405,-3.6405,-3.6405,-3.6405,-3.6405,-3.6405,-3.6405,-3.6405,-3.6405,-3.6405,-3.6405,-3.6405,-3.6405,-3.6405,-3.6405,-3.6119,-3.552,-3.4969,-3.4462,-3.3922,-3.337,-3.3124,-3.3124,-3.2918,-3.2629,-3.2215,-3.1913,-3.1361,-3.0608,-3.0457,-2.9999,-2.9326,-2.9326,-2.8837,-2.8029,-2.7895,-2.7103,-2.5904,-2.5399,-2.5163,-2.5236,-2.5997,-2.6415,-2.6592,-2.5891,-2.5687,-2.5687,-2.5687,-2.5687,-2.5687,-2.5687,-2.5687,-2.565,-2.5538,-2.4628,-2.3567,-2.304,-2.2063,-2.1093,-2.068,-2.059,-2.059,-2.059,-2.059,-2.059,-2.059,-2.059,-2.0277,-1.928,-1.9112,-1.8776,-1.7751,-1.8501,-1.9202,-1.9202,-1.9202,-1.9202,-1.9202,-1.9202,-1.9202,-1.9202,-1.9202,-1.9202,-1.9202,-1.9202,-1.9281,-1.9475,-1.9501,-1.9579,-1.9798,-1.9798,-1.9798,-1.9798,-1.9798,-1.9798,-1.9798,-1.9798,-1.9798,-3.5332,-3.5909,-3.6521,-3.701,-3.7563,-3.7977,-3.7965,-3.7952,-3.7952,-3.7952,-3.7525,-3.7161,-3.7161,-3.6769,-3.6405,-3.6405,-3.6405,-3.6405,-3.6405,-3.6405,-3.6405,-3.6405,-3.6405,-3.6405,0.0,-3.6405,-3.6405,-3.6405,-3.6405,-3.6119,-3.552,-3.4969,-3.4462,-3.3922,-3.337,-3.3124,-3.3124,-3.2516,-3.2227,-3.2202,-3.116,-3.0645,-3.0595,-3.0068,-2.9209,-2.8136,-2.8136,-2.727,-2.5847,-2.5335,-2.484,-2.4333,-2.3764,-2.3573,-2.3573,-2.361,-2.4215,-2.4921,-2.3927,-2.3588,-2.3588,-2.3588,-2.3588,-2.3588,-2.3588,-2.3588,-2.3498,-2.3133,-2.2566,-2.198,-2.1564,-2.1048,-2.0613,-2.059,-2.059,-2.059,-2.059,-2.059,-2.059,-2.059,-2.059,-2.0277,-1.928,-1.9112,-1.8776,-1.7751,-1.7633,-1.766,-1.766,-1.766,-1.766,-1.766,-1.766,-1.766,-1.766,-1.766,-1.766,-1.766,-1.766,-1.7988,-1.8688,-1.8741,-1.9071,-1.9798,-1.9798,-1.9798,-1.9798,-1.9798,-1.9798,-1.9798,-1.9798,-1.9798,-3.5943,-3.6759,-3.7513,-3.7688,-3.8165,-3.8479,-3.809,-3.8002,-3.7902,-3.7538,-3.7036,-3.6558,-3.6169,-3.5943,-3.5818,-3.5818,-3.6119,-3.6405,-3.6405,-3.6405,-3.6405,-3.6405,-3.6405,0.0,0.0,0.0,0.0,-3.6405,-3.6031,-3.5579,-3.4981,-3.4474,-3.3922,-3.337,-3.3169,-3.3124,-3.3124,-3.2503,-3.2026,-3.165,-3.0583,-2.9677,-2.8943,-2.8761,-2.8068,-2.7023,-2.672,-2.6098,-2.5245,-2.474,-2.383,-2.2778,-2.258,-2.2515,-2.244,-2.1821,-2.2188,-2.3073,-2.3368,-2.3514,-2.3514,-2.3514,-2.3514,-2.3514,-2.3514,-2.3514,-2.3425,-2.3014,-2.2099,-2.1094,-2.0644,-1.9712,-1.8877,-1.8877,-1.8877,-1.8877,-1.8877,-1.8877,-1.8877,-1.8877,-1.8877,-1.859,-1.7666,-1.7513,-1.7195,-1.6273,-1.6968,-1.7605,-1.7605,-1.7605,-1.7605,-1.7605,-1.7605,-1.7605,-1.7605,-1.7605,-1.7605,-1.7605,-1.7605,-1.7715,-1.7961,-1.7977,-1.8097,-1.834,-1.8328,-1.8328,-1.8328,-1.8328,-1.8328,-1.8328,-1.8328,-1.8515,-3.6747,-3.7613,-3.8366,-3.8555,-3.8894,-3.9069,-3.8693,-3.8454,-3.8216,-3.7864,-3.7048,-3.6282,-3.5906,-3.547,-3.527,-3.547,-3.5843,-3.6132,-3.638,-3.6405,-3.6405,-3.6405,-3.6405,-3.6405,0.0,0.0,0.0,-3.6069,-3.5696,-3.5169,-3.4462,-3.4085,-3.3646,-3.3136,-3.3124,-3.3023,-3.2767,-3.2202,-3.1319,-3.0195,-2.9517,-2.8609,-2.7522,-2.7522,-2.6862,-2.5659,-2.534,-2.4636,-2.3634,-2.3324,-2.2534,-2.1479,-2.1479,-2.1479,-2.1451,-2.0818,-2.0972,-2.1593,-2.2226,-2.2451,-2.2451,-2.2451,-2.2451,-2.2451,-2.2451,-2.2451,-2.236,-2.1754,-2.0951,-2.0124,-1.9507,-1.8672,-1.8008,-1.8008,-1.8008,-1.8008,-1.8008,-1.8008,-1.8008,-1.8008,-1.8008,-1.7734,-1.6843,-1.6434,-1.6034,-1.5469,-1.6216,-1.68,-1.68,-1.68,-1.68,-1.68,-1.68,-1.68,-1.68,-1.68,-1.68,-1.68,-1.68,-1.694,-1.7191,-1.7202,-1.733,-1.7594,-1.7605,-1.7605,-1.7605,-1.7605,-1.7605,-1.7605,-1.7605,-1.7846,-3.7764,-3.8467,-3.9032,-3.9559,-3.9672,-3.9647,-3.9595,-3.9169,-3.8755,-3.873,-3.7414,-3.626,-3.6367,-3.5395,-3.4752,-3.5315,-3.5369,-3.5522,-3.6081,-3.6203,-3.6203,0.0,0.0,0.0,0.0,0.0,0.0,-3.5458,0.0,-3.4956,-3.396,-3.3872,-3.3621,-3.3136,-3.3056,-3.2767,-3.2227,-3.1596,-3.0167,-2.8004,-2.8004,-2.7441,-2.6389,-2.6389,-2.5587,-2.4115,-2.4094,-2.2992,-2.119,-2.1171,-2.0947,-2.0605,-2.0605,-2.0605,-2.0605,-2.0605,-2.0605,-2.0605,-2.0605,-2.0605,-2.0605,-2.0605,-2.0605,-2.0605,-2.0605,-2.0605,-2.0429,-1.9551,-1.9316,-1.9121,-1.8262,-1.8047,-1.8037,-1.8018,-1.8008,-1.8008,-1.8008,-1.8008,-1.8008,-1.8008,-1.7988,-1.7725,-1.6872,-1.6005,-1.5449,-1.5449,-1.543,-1.541,-1.541,-1.541,-1.541,-1.541,-1.541,-1.541,-1.541,-1.541,-1.541,-1.541,-1.541,-1.5719,-1.6397,-1.6436,-1.6754,-1.7468,-1.7495,-1.7495,-1.7495,-1.7495,-1.7495,-1.7495,-1.7495,-1.7745,-3.8454,-3.9057,-3.9521,-3.9659,-3.9383,-3.8802,-3.7804,-3.7121,-3.6626,-3.6227,-3.5138,-3.4554,-3.5556,-3.4357,-3.3403,-3.3921,-3.3499,0.0,-3.3319,-3.3342,0.0,-3.3342,-3.4264,-3.4933,-3.4933,-3.5281,0.0,0.0,-3.455,-3.4198,-3.3909,-3.3508,-3.3219,-3.3081,-3.2654,-3.2365,-3.2215,-3.0433,-2.8656,-2.6924,-2.6924,-2.6337,-2.521,-2.521,-2.4388,-2.2936,-2.2617,-2.2015,-2.1171,-2.0869,-2.0713,-2.0605,-2.0605,-2.0605,-2.0605,-2.0605,-2.0605,-2.0605,-2.0605,-2.0605,-2.0605,-2.0605,-2.0605,-2.0605,-2.0605,-2.0605,-2.0488,-1.9912,-1.9756,-1.9561,-1.8666,-1.8442,-1.8364,-1.8086,-1.8008,-1.8008,-1.8008,-1.8008,-1.8008,-1.8008,-1.7764,-1.7471,-1.7256,-1.6515,-1.5928,-1.5928,-1.5615,-1.541,-1.541,-1.541,-1.541,-1.541,-1.541,-1.541,-1.541,-1.541,-1.541,-1.541,-1.541,-1.5468,-1.5671,-1.569,-1.5777,-1.5968,-1.5968,-1.5968,-1.5968,-1.5968,-1.5968,-1.5968,-1.5968,-1.6365,-3.9082,-3.9459,-3.9634,-3.9396,-3.8662,-3.7806,-3.7101,-3.5675,-3.4651,-3.5199,-3.4018,-3.3145,-3.3863,-3.309,-3.2335,-3.2378,-3.2135,-3.2034,-3.2258,-3.228,-3.228,0.0,-3.3005,0.0,-3.4337,-3.4327,-3.4176,0.0,-3.3886,-3.3551,-3.2749,-3.2442,-3.2172,-3.1939,-3.1136,-3.0493,-3.0068,-2.8568,-2.7144,-2.5755,-2.5755,-2.5179,-2.4049,-2.4049,-2.3483,-2.249,0.0,-2.1641,-2.1161,-2.0752,-2.0605,-2.0605,-2.0605,-2.0605,-2.0605,-2.0605,-2.0605,-2.0605,-2.0605,-2.0605,-2.0605,-2.0605,-2.0605,-2.0605,-2.0605,-2.0605,-2.0517,-2.0039,-1.9912,-1.9756,-1.9092,-1.8744,-1.8539,-1.8305,-1.8144,-1.8008,-1.8008,-1.8008,-1.8008,-1.8008,-1.7666,-1.7383,-1.7383,-1.6807,-1.6357,-1.6357,-1.5977,-1.5693,-1.5693,-1.5527,-1.541,-1.541,-1.541,-1.541,-1.541,-1.541,-1.541,-1.541,-1.541,-1.541,-1.541,-1.541,-1.541,-1.541,-1.541,-1.541,-1.541,-1.541,-1.541,-1.5391,-1.5605,-1.6074,-3.9559,-3.9697,-3.9559,-3.9007,-3.7765,-3.6723,-3.6812,-3.4402,-3.2632,-3.4513,-3.3138,-3.1677,-3.1932,-3.1702,-3.1344,-3.0801,-3.0948,-3.1251,-3.1719,-3.1774,-3.1774,-3.1774,-3.1927,-3.247,-3.3679,-3.2982,-3.2476,-3.2523,-3.3019,-3.2596,-3.1057,-3.0944,-3.0685,-3.0095,-2.9097,-2.8095,-2.6995,-2.6518,-2.5714,-2.4585,-2.4585,-2.4049,-2.3091,-2.3091,-2.2867,-2.249,-2.2129,-2.1728,-2.1249,-2.084,-2.0693,-2.0683,-2.0625,-2.0605,-2.0605,-2.0605,-2.0605,-2.0605,-2.0605,-2.0605,-2.0605,-2.0605,-2.0605,-2.0605,-2.0605,-2.0605,-2.0527,-2.0107,-2.0,-1.9902,-1.9482,-1.9053,-1.8676,-1.8617,-1.8286,-1.8008,-1.8008,-1.8008,-1.8008,-1.8008,-1.7715,-1.7471,-1.7471,-1.7109,-1.6785,-1.6785,-1.6436,-1.6163,-1.6105,-1.5684,-1.541,-1.541,-1.541,-1.541,-1.541,-1.541,-1.541,-1.541,-1.541,-1.541,-1.541,-1.541,-1.541,-1.541,-1.541,-1.541,-1.541,-1.541,-1.5439,-1.5508,-1.5919,-1.6369,-3.9672,-3.9697,-3.9559,-3.9007,-3.7484,-3.5917,-3.5099,-3.2456,-3.0471,-3.1496,-3.0216,-2.9367,-3.0911,-3.0163,-2.9447,-2.9838,-2.9301,-2.8863,-2.8996,-2.8996,-2.8996,0.0,-2.9964,-3.0623,-3.0493,-3.0929,0.0,0.0,-3.0376,-3.0045,-2.9727,-2.9715,-2.9308,-2.8347,-2.7843,-2.6795,-2.5253,-2.5126,-2.45,-2.3387,-2.3387,-2.3299,-2.3091,-2.3091,-2.2867,-2.251,-2.2432,0.0,-2.1738,-2.1299,-2.1123,-2.1044,-2.0752,-2.0605,-2.0605,-2.0605,-2.0605,-2.0605,-2.0605,-2.0605,-2.0605,-2.0605,-2.0605,-2.0605,-2.0605,-2.0605,-2.0586,-2.0517,-2.0488,-2.0352,-1.9912,-1.9492,-1.9082,-1.8685,-1.8286,-1.8008,-1.8008,-1.8008,-1.8008,-1.8008,-1.7949,-1.79,-1.79,-1.7549,-1.7275,-1.7275,-1.6894,-1.6484,-1.6144,-1.5684,-1.541,-1.541,-1.541,-1.541,-1.541,-1.541,-1.541,-1.541,-1.541,-1.541,-1.541,-1.541,-1.541,-1.541,-1.541,-1.541,-1.541,-1.541,-1.5596,-1.5977,-1.6056,-1.6525,-3.9697,-3.9697,-3.9496,-3.863,-3.7202,-3.5743,-3.476,-3.184,-2.9663,-3.0833,-2.9371,-2.8169,-2.904,-2.8806,-2.8375,-2.8035,-2.7797,-2.7705,-2.793,-2.7969,-2.8047,-2.8262,-2.8847,-2.9392,-2.9688,-2.9764,-2.9672,-2.9291,-2.8766,-2.8448,-2.8448,-2.7982,-2.7117,-2.5803,-2.5926,-2.5317,-2.392,-2.392,-2.3637,-2.3091,-2.3091,-2.3091,-2.3091,-2.3091,-2.2984,-2.2779,-2.2607,-2.2275,-2.1846,-2.1375,-2.1094,-2.0869,-2.0693,-2.0605,-2.0605,-2.0605,-2.0605,-2.0605,-2.0605,-2.0605,-2.0605,-2.0605,-2.0605,-2.0605,-2.0605,-2.0605,-2.0605,-2.0605,-2.0605,-2.0556,-2.0303,-1.9775,-1.9238,-1.9023,-1.8486,-1.8008,-1.8008,-1.8008,-1.8008,-1.8008,-1.8008,-1.8008,-1.8008,-1.7842,-1.7705,-1.7705,-1.7344,-1.6992,-1.6809,-1.6367,-1.5888,-1.5459,-1.541,-1.541,-1.541,-1.541,-1.541,-1.541,-1.541,-1.541,-1.541,-1.541,-1.541,-1.541,-1.5635,-1.5752,-1.5752,-1.5986,-1.618,-1.6416,-1.6641,-1.7005,-3.9659,-3.9697,-3.9421,-3.8278,-3.7007,-3.5761,-3.4881,-3.1924,-2.9682,-3.0615,-2.9085,-2.7494,-2.7268,-2.7534,-2.7513,-2.6526,-2.6738,-2.7168,-2.7607,-2.7718,-2.7875,-2.8242,-2.8291,0.0,-2.9054,-2.8672,0.0,-2.7838,-2.7324,-2.7065,-2.7065,-2.6197,-2.5153,-2.3844,-2.4196,-2.4006,-2.3091,-2.3091,-2.3091,-2.3091,-2.3091,-2.3052,-2.2955,-2.2955,-2.2916,-2.2808,-2.2519,-2.2197,-2.1846,-2.1375,-2.1025,-2.0742,-2.0644,-2.0605,-2.0605,-2.0605,-2.0605,-2.0605,-2.0605,-2.0605,-2.0605,-2.0605,-2.0605,-2.0605,-2.0605,-2.0605,-2.0605,-2.0605,-2.0605,-2.0605,-2.0605,-1.9969,-1.9238,-1.9053,-1.8496,-1.8008,-1.8008,-1.8008,-1.8008,-1.8008,-1.8008,-1.8008,-1.8008,-1.8008,-1.8008,-1.8008,-1.7734,-1.749,-1.7393,-1.708,-1.6541,-1.5751,-1.5605,-1.5508,-1.542,-1.541,-1.541,-1.541,-1.541,-1.5459,-1.5547,-1.5557,-1.5596,-1.5693,-1.6035,-1.6242,-1.6242,-1.6562,-1.6746,-1.6853,-1.7227,-1.7465,-3.9559,-3.9697,-3.9421,-3.8278,-3.7007,-3.5761,-3.4881,-3.2652,-3.0499,-2.9747,-2.8495,-2.7268,-2.611,-2.6232,-2.6536,-2.6436,-2.6738,-2.7168,-2.7607,-2.7718,-2.7875,-2.8242,0.0,0.0,-2.7302,-2.7184,-2.6821,-2.5996,-2.5563,-2.5307,-2.5307,-2.4854,-2.431,-2.3809,-2.3448,-2.3222,-2.3091,-2.3091,-2.3091,-2.3091,-2.3091,-2.2896,-2.2568,-2.2568,-2.2363,-2.2002,-2.1963,-2.1924,0.0,-2.1375,-2.1171,-2.1093,-2.0723,-2.0605,-2.0605,-2.0605,-2.0605,-2.0605,-2.0605,-2.0605,-2.0605,-2.0605,-2.0605,-2.0605,-2.0605,-2.0605,-2.0605,-2.0605,-2.0605,-2.0605,-2.0605,-1.9969,-1.9092,-1.8311,-1.8066,-1.8008,-1.8008,-1.8008,-1.8008,-1.8008,-1.8008,-1.8008,-1.8008,-1.8008,-1.8008,-1.8008,-1.7978,-1.7812,-1.7432,-1.7344,-1.7139,-1.6629,-1.624,-1.587,-1.5449,-1.541,-1.541,-1.541,-1.541,-1.5586,-1.6016,-1.6036,-1.6222,-1.657,-1.6619,-1.6638,-1.6638,-1.6677,-1.6934,-1.7324,-1.7363,-1.7588,-3.9044,-3.9195,-3.9007,-3.8203,-3.7345,-3.6357,-3.5003,-3.3327,-3.1798,-3.0705,-2.8958,-2.7458,-2.6945,-2.6346,-2.5996,-2.5996,-2.6133,-2.6396,-2.6836,-2.6904,-2.7148,-2.7832,-2.7685,-2.7393,0.0,0.0,-2.6279,-2.54,-2.5166,-2.4891,-2.4372,-2.4131,-2.3848,-2.3408,-2.3188,-2.3091,-2.3091,-2.3091,-2.2974,-2.2721,-2.2721,-2.2539,-2.2139,-2.2139,-2.2041,-2.1885,-2.1885,-2.1738,0.0,-2.1268,-2.1074,-2.081,-2.0674,-2.0605,-2.0605,-2.0605,-2.0605,-2.0605,-2.0605,-2.0605,-2.0605,-2.0605,-2.0605,-2.0605,-2.0605,-2.0605,-2.0605,-2.0605,-2.0605,-2.0605,-2.0605,-1.9969,-1.9072,-1.8213,-1.8008,-1.8008,-1.8008,-1.8008,-1.8008,-1.8008,-1.8008,-1.8008,-1.8008,-1.8008,-1.8008,-1.8008,-1.8008,-1.7949,-1.7783,-1.7764,-1.7598,-1.7168,-1.6525,-1.6016,-1.585,-1.5566,-1.5527,-1.5811,-1.5831,-1.6006,-1.6445,-1.6465,-1.6553,-1.6697,-1.6992,-1.7119,-1.7119,-1.735,-1.7598,-1.7764,-1.7764,-1.7852,-3.8417,-3.8617,-3.8479,-3.7902,-3.7349,-3.6558,-3.5064,-3.3929,-3.2695,-3.1043,-2.9315,-2.7908,-2.7173,-2.6294,-2.5693,-2.5693,-2.5693,-2.584,-2.6328,-2.6387,-2.666,-2.7393,0.0,-2.6963,-2.6846,-2.6328,-2.5684,-2.4932,-2.4756,-2.4375,-2.3633,-2.3594,-2.3457,-2.311,-2.3091,-2.3091,-2.3091,-2.2974,-2.276,-2.251,-2.2383,-2.2109,-2.1689,-2.1689,-2.1621,-2.1535,-2.1535,-2.1328,0.0,-2.1035,-2.085,-2.0605,-2.0605,-2.0605,-2.0605,-2.0605,-2.0605,-2.0605,-2.0605,-2.0605,-2.0605,-2.0605,-2.0401,-2.0128,-2.0128,-2.0362,-2.0605,-2.0605,-2.0605,-2.0546,-2.0292,-1.9774,-1.9072,-1.8213,-1.8008,-1.8008,-1.8008,-1.8008,-1.8008,-1.8008,-1.8008,-1.8008,-1.8008,-1.8008,-1.8008,-1.8008,-1.8008,-1.8008,-1.8008,-1.8008,-1.79,-1.7598,-1.6936,-1.6427,-1.63,-1.5977,-1.5937,-1.6271,-1.629,-1.6465,-1.6904,-1.6892,-1.695,-1.7077,-1.7412,-1.7568,-1.7568,-1.7871,-1.8008,-1.8008,-1.8008,-1.8008,-3.7713,-3.8015,-3.7889,-3.7324,-3.6832,-3.6128,-3.4977,-3.4299,-3.3047,-3.0057,-2.9407,-2.8623,-2.6149,-2.5684,-2.5693,-2.5693,-2.5693,-2.584,-2.6328,-2.6387,-2.6543,-2.6973,-2.7012,-2.6846,-2.6435,-2.5596,-2.4893,-2.4453,-2.4043,0.0,-2.312,-2.3101,-2.3101,-2.3091,-2.3091,-2.3091,-2.3091,-2.2734,-2.2519,-2.251,-2.209,-2.167,-2.12,-2.12,-2.0996,-2.0615,-2.0615,-2.0615,0.0,-2.0615,-2.0605,-2.0605,-2.0605,-2.0605,-2.0605,-2.0605,-2.0605,-2.0605,-2.0605,-2.0605,-2.0605,-2.0605,-1.9883,-1.9036,-1.9036,-1.9766,-2.0605,-2.0605,-2.0605,-2.041,-1.9558,-1.9297,-1.9072,-1.8213,-1.8008,-1.8008,-1.8008,-1.8008,-1.8008,-1.8008,-1.8008,-1.8008,-1.8008,-1.8008,-1.8008,-1.8008,-1.8008,-1.8008,-1.8008,-1.8008,-1.8008,-1.8008,-1.7627,-1.7197,-1.6726,-1.6687,-1.6687,-1.6697,-1.6697,-1.6892,-1.7363,-1.7373,-1.7568,-1.7988,-1.7998,-1.8008,-1.8008,-1.8008,-1.8008,-1.8008,-1.8008,-1.8008,-3.6085,-3.6273,-3.6235,-3.606,-3.5655,-3.5052,-3.4324,-3.3362,-3.2295,-3.0927,-2.9315,-2.7908,-2.7125,-2.6294,-2.5791,-2.6133,-2.5937,-2.584,-2.6328,-2.6133,-2.6103,-2.6533,-2.6592,-2.6299,0.0,0.0,-2.4766,-2.4043,-2.3867,-2.3603,-2.312,-2.3091,-2.3091,-2.3091,-2.3091,-2.3091,-2.3091,-2.2682,-2.2373,-2.208,-2.165,-2.1211,-2.0781,-2.0781,-2.0742,-2.0605,-2.0605,-2.0605,-2.0605,-2.0605,-2.0605,-2.0605,-2.0605,-2.0605,-2.0605,-2.0605,-2.0605,-2.0605,-2.0605,-2.0605,-2.0479,-1.9717,-1.9283,-1.8838,-1.8069,-1.8069,-1.851,-1.9274,-2.004,-2.041,-1.9549,-1.9287,-1.9072,-1.8213,-1.8008,-1.8008,-1.8008,-1.8008,-1.8008,-1.8008,-1.8008,-1.8008,-1.8008,-1.8008,-1.8008,-1.8008,-1.8008,-1.8008,-1.8008,-1.8008,-1.8008,-1.8008,-1.7891,-1.7637,-1.7207,-1.6872,-1.6833,-1.7158,-1.7178,-1.7363,-1.7793,-1.7812,-1.7871,-1.8008,-1.8008,-1.8008,-1.8008,-1.8008,-1.8008,-1.8008,-1.8008,-1.8164,-3.4981,-3.5194,-3.5194,-3.5194,-3.4768,-3.4324,-3.3985,-3.28,-3.1537,-3.0701,-2.8958,-2.7447,-2.6993,-2.6245,-2.5781,-2.6103,-2.5869,-2.5781,-2.6103,-2.5859,-2.5791,-2.6113,-2.6143,0.0,0.0,-2.4922,-2.4541,-2.3838,-2.3633,-2.3428,-2.311,-2.3091,-2.3091,-2.3091,-2.2945,-2.2857,-2.2857,-2.2282,-2.1894,-2.1641,-2.1191,-2.083,-2.0605,-2.0605,-2.0605,-2.0605,-2.0605,-2.0605,0.0,-2.0605,-2.0605,-2.0605,-2.0605,-2.0605,-2.0605,-2.0605,-2.0605,-2.0605,-2.0605,-2.0323,-1.9883,-1.9244,-1.843,-1.7536,-1.6445,-1.665,-1.7464,-1.8149,-1.8829,-1.9247,-1.8826,-1.8406,-1.8118,-1.8031,-1.7725,-1.7569,-1.794,-1.8008,-1.8008,-1.8008,-1.8008,-1.8008,-1.8008,-1.8008,-1.8008,-1.8008,-1.8008,-1.8008,-1.8008,-1.8008,-1.8008,-1.8008,-1.8008,-1.79,-1.7637,-1.7373,-1.7334,-1.7607,-1.7627,-1.7734,-1.7998,-1.8008,-1.8008,-1.8008,-1.8008,-1.8008,-1.8008,-1.8008,-1.8086,-1.8217,-1.8217,-1.8477,0.0,-3.4613,-3.4613,-3.4613,-3.4223,-3.3847,-3.3847,-3.2418,0.0,-2.9636,-2.8355,-2.7078,-2.5927,-2.5693,-2.5703,-2.5732,-2.5703,-2.5703,-2.5732,-2.5703,-2.5693,-2.5693,-2.5693,-2.5547,-2.5116,-2.4658,-2.4228,-2.3779,-2.3369,-2.3091,-2.3091,-2.3091,-2.3091,-2.3091,-2.2705,-2.248,-2.251,-2.1629,-2.119,-2.119,-2.0781,-2.0605,-2.0605,-2.0605,-2.0605,0.0,-2.0605,-2.0605,-2.0605,-2.0605,-2.0605,-2.0605,-2.0605,-2.0605,-2.0605,-2.0605,-2.0605,-2.0605,-2.0518,-1.9835,-1.8957,-1.8838,-1.7326,-1.5421,-1.4412,-1.5553,-1.7172,-1.7172,-1.7261,-1.7338,-1.7556,-1.6905,-1.6466,-1.7565,-1.7166,-1.6749,-1.7613,-1.7872,-1.7862,-1.7794,-1.7906,-1.7974,-1.7906,-1.7974,-1.8008,-1.8008,-1.8008,-1.8008,-1.8008,-1.8008,-1.8008,-1.8008,-1.8008,-1.8008,-1.8008,-1.8008,-1.8008,-1.8008,-1.8008,-1.8008,-1.8008,-1.8008,-1.8008,-1.8008,-1.8008,-1.8008,-1.8008,-1.8037,-1.8217,-1.8598,-1.8627,-1.8916,-3.3395,0.0,-3.347,-3.347,-3.337,-3.3269,0.0,-3.1508,-2.9715,-2.9453,-2.7662,-2.6062,-2.5781,-2.5693,-2.5801,-2.6182,-2.5908,-2.581,-2.6182,-2.5947,-2.5693,-2.5693,-2.5693,-2.5382,-2.4648,-2.4473,-2.4102,-2.3305,-2.3149,-2.3091,-2.3091,-2.3091,-2.3091,-2.3091,-2.2422,-2.2187,-2.251,-2.1629,-2.119,-2.119,-2.0781,-2.0605,-2.0605,-2.0605,-2.0605,-2.0605,-2.0605,-2.0605,-2.0605,-2.0605,-2.0605,-2.0605,-2.0605,-2.0605,-2.0605,-2.0605,-2.0605,-2.0479,-1.9638,-1.9195,-1.8718,-1.7041,-1.5587,-1.4412,-1.4166,-1.5019,-1.6067,-1.6067,-1.6683,-1.7235,-1.7008,-1.6549,-1.6188,-1.6186,-1.5827,-1.5587,-1.5799,-1.6428,-1.6715,-1.6009,-1.701,-1.7759,-1.7035,-1.7535,-1.8008,-1.8008,-1.8008,-1.8008,-1.8008,-1.8008,-1.8008,-1.8008,-1.8008,-1.8008,-1.8008,-1.8008,-1.8008,-1.8008,-1.8008,-1.8008,-1.8008,-1.8008,-1.8008,-1.8008,-1.8008,-1.8008,-1.8008,-1.8295,-1.851,-1.8607,-1.8984,-1.9365,-3.3124,-3.3124,-3.3124,-3.3124,-3.3124,-3.2939,-3.2382,-3.0777,-2.9223,-2.868,-2.702,-2.5693,-2.5693,-2.5693,-2.5762,-2.6055,-2.5889,-2.5771,-2.6055,-2.584,-2.5693,-2.5693,-2.5693,-2.5343,0.0,-2.4414,-2.4062,-2.3159,-2.3091,-2.3091,-2.3091,-2.3091,-2.3091,-2.3091,-2.2324,-2.1992,-2.2217,-2.1357,-2.0928,-2.0918,-2.0684,-2.0605,-2.0605,-2.0605,-2.0605,-2.0605,-2.0605,-2.0605,-2.0605,-2.0605,-2.0605,-2.0605,-2.0605,-2.0605,-2.0527,-2.004,-1.9883,-1.9717,-1.859,-1.79,-1.7212,-1.5504,-1.4573,-1.4088,-1.4088,-1.4496,-1.4977,-1.4977,-1.5387,-1.5842,-1.5927,-1.5388,-1.4942,-1.5486,-1.5021,-1.4629,-1.5092,-1.5587,-1.5799,-1.5305,-1.6367,-1.7217,-1.6689,-1.7373,-1.8008,-1.8008,-1.8008,-1.8008,-1.8008,-1.8008,-1.8008,-1.8008,-1.8008,-1.8008,-1.8008,-1.8008,-1.8008,-1.8008,-1.8008,-1.8008,-1.8008,-1.8008,-1.8008,-1.8008,-1.8159,-1.8301,-1.8266,-1.8695,-1.9033,-1.9192,-1.9463,-1.9805,-3.3124,-3.2939,-3.284,-3.3068,-3.2939,-3.2513,-3.1456,-3.0135,-2.8819,-2.7814,-2.6572,-2.5693,-2.5693,-2.5693,-2.5713,-2.5781,-2.5791,-2.5762,-2.5703,-2.5693,-2.5693,-2.5693,-2.5693,0.0,-2.4502,-2.4414,-2.4062,-2.3159,-2.3091,-2.3091,-2.3091,-2.3091,-2.3062,-2.3003,-2.2295,-2.1855,-2.1787,-2.1016,-2.0605,-2.0605,-2.0605,-2.0605,-2.0605,-2.0605,-2.0605,-2.0605,0.0,0.0,-2.0605,-2.0605,-2.0605,-2.0605,-2.0605,-2.0489,-2.0245,-1.9362,-1.8877,-1.8598,-1.7455,-1.6355,-1.5296,-1.4412,-1.4088,-1.4088,-1.4088,-1.4088,-1.4088,-1.4088,-1.4088,-1.4231,-1.4813,-1.4118,-1.3581,-1.4909,-1.4384,-1.3769,-1.4565,-1.4879,-1.4914,-1.4772,-1.5649,-1.6324,-1.6175,-1.7054,-1.7794,-1.7794,-1.7906,-1.8037,-1.8096,-1.8105,-1.8135,-1.8193,-1.8203,-1.8203,-1.8203,-1.8144,-1.8135,-1.8203,-1.8076,-1.8008,-1.8008,-1.8076,-1.8105,-1.8105,-1.8481,-1.8705,-1.8705,-1.917,-1.957,-1.9912,-1.998,-2.0215,-3.3124,-3.2326,-3.1733,-3.284,-3.2283,-3.1456,-3.1223,-2.9498,-2.7814,-2.7636,-2.6572,-2.5693,-2.5693,-2.5693,-2.581,-2.623,-2.6289,-2.6162,-2.5742,-2.5693,-2.5693,-2.5693,0.0,-2.5343,-2.4502,-2.4414,-2.4062,-2.3159,-2.3091,-2.3091,-2.3091,-2.3091,-2.2925,-2.2617,-2.2139,-2.1709,-2.1298,-2.082,-2.0605,-2.0605,-2.0605,-2.0605,-2.0605,-2.0605,-2.0605,-2.0605,0.0,-2.0605,-2.0605,-2.0605,-2.0605,-2.0605,-2.0605,-2.004,-1.9244,-1.9076,-1.839,-1.7423,-1.6314,-1.522,-1.4328,-1.4166,-1.4088,-1.4088,-1.4088,-1.4088,-1.4088,-1.4088,-1.4088,-1.4117,-1.4238,-1.3918,-1.3541,-1.3555,-1.324,-1.2907,-1.2788,-1.3382,-1.3702,-1.2908,-1.4199,-1.5128,-1.4279,-1.5614,-1.6819,-1.6819,-1.7501,-1.81,-1.8461,-1.851,-1.8646,-1.9053,-1.9092,-1.9092,-1.9092,-1.875,-1.8666,-1.9072,-1.8408,-1.8008,-1.8008,-1.8315,-1.851,-1.851,-1.8965,-1.9189,-1.9189,-1.9609,-1.9853,-1.9922,-2.0293,-2.0537,-3.2283,-3.1633,-3.1238,-3.1388,-3.0841,-3.0045,-2.9407,-2.8402,-2.74,-2.6716,-2.611,-2.5693,-2.5693,-2.5937,-2.623,-2.665,-2.6533,-2.6318,-2.6113,-2.584,-2.5693,-2.5693,0.0,-2.5127,-2.4482,-2.4209,-2.3818,-2.314,-2.3091,-2.3091,-2.3091,-2.2877,-2.2672,-2.2519,-2.1875,-2.1435,-2.119,-2.0791,-2.0605,-2.0605,-2.0605,-2.0605,-2.0605,-2.0605,-2.0605,-2.0605,0.0,-2.0284,-1.9766,-2.0362,-1.9913,-1.8868,-1.9481,-1.9076,-1.802,-1.7415,-1.6519,-1.5511,-1.5019,-1.4489,-1.4088,-1.4088,-1.4088,-1.4088,-1.4088,-1.4088,-1.4088,-1.4088,-1.4088,-1.4088,-1.4088,-1.3748,-1.3373,-1.34,-1.2966,-1.2549,-1.2569,-1.2783,-1.2806,-1.2372,-1.3411,-1.4243,-1.3781,-1.4997,-1.6278,-1.683,-1.6929,-1.7207,-1.7998,-1.8098,-1.8209,-1.8406,-1.8949,-1.9287,-1.9287,-1.9102,-1.8975,-1.8936,-1.8789,-1.8701,-1.8701,-1.8887,-1.8984,-1.8984,-1.9404,-1.9619,-1.9629,-2.0049,-2.0264,-2.0273,-2.0507,-2.0605,-3.1456,-3.0765,-3.0216,-2.9586,-2.9223,-2.8781,-2.8042,-2.7592,-2.7081,-2.6202,-2.5908,-2.584,-2.584,-2.624,-2.6572,-2.6699,-2.6611,-2.6465,-2.626,-2.5947,-2.5693,-2.5693,-2.5342,-2.4893,-2.4463,-2.4033,-2.3603,-2.313,-2.3091,-2.3052,-2.2955,-2.2685,-2.2422,-2.2217,-2.1541,-2.1142,-2.1074,-2.0732,-2.0605,-2.0605,-2.0605,-2.0605,-2.0605,-2.0605,-2.044,-2.0245,-2.0245,-1.9599,-1.8678,-1.9471,-1.8829,-1.7383,-1.827,-1.7908,-1.6805,-1.5703,-1.4817,-1.4088,-1.4088,-1.4088,-1.4088,-1.4088,-1.4088,-1.4088,-1.4088,-1.4088,-1.4088,-1.4088,-1.4088,-1.4088,-1.4088,-1.3754,-1.3454,-1.3567,-1.308,-1.2659,-1.2857,-1.2672,-1.2492,-1.2418,-1.3054,-1.3549,-1.3513,-1.4527,-1.5638,-1.6467,-1.625,-1.6375,-1.7328,-1.745,-1.7485,-1.7582,-1.8592,-1.9282,-1.9443,-1.9531,-1.9394,-1.8929,-1.915,-1.9287,-1.9287,-1.9385,-1.9434,-1.9434,-1.9853,-2.0068,-2.0068,-2.0439,-2.0605,-2.0605,-2.0605,-2.0605,-3.1211,-2.9544,-2.7872,-2.7773,-2.7752,-2.7894,-2.8551,-2.757,-2.6545,-2.6846,-2.6611,-2.6338,-2.6338,-2.668,-2.6719,-2.5908,-2.6475,-2.6689,-2.5849,-2.5703,-2.5693,-2.5693,-2.5342,-2.4893,-2.4463,-2.4033,-2.3603,-2.313,-2.3091,-2.2925,-2.2578,-2.2529,-2.2148,-2.1307,-2.1229,-2.1035,-2.0654,-2.0615,-2.0605,-2.0605,-2.0605,-2.0605,-2.0605,-2.0605,-2.004,-1.9116,-1.9116,-1.847,-1.7423,-1.7496,-1.7455,-1.7302,-1.7383,-1.6764,-1.5703,-1.4615,-1.4173,-1.4088,-1.4088,-1.4088,-1.4088,-1.4088,-1.4088,-1.4088,-1.4088,-1.4088,-1.4088,-1.4088,-1.4088,-1.4088,-1.4088,-1.4055,-1.3961,-1.366,-1.3553,-1.344,-1.3233,-1.316,-1.306,-1.2811,-1.3024,-1.317,-1.2912,-1.3865,-1.4687,-1.4764,-1.5495,-1.6198,-1.669,-1.677,-1.6911,-1.7299,-1.8342,-1.924,-1.9827,-2.0244,-2.0331,-1.9853,-1.9482,-1.9287,-1.9287,-1.9668,-1.9873,-1.9873,-2.0303,-2.0556,-2.0556,-2.0586,-2.0605,-2.0605,-2.0605,-2.0605,-2.9899,-2.846,-2.7045,-2.6549,-2.6438,-2.6589,-2.7152,-2.6834,-2.6504,-2.6934,-2.6894,-2.6777,-2.6777,-2.6699,-2.6602,-2.6543,-2.6582,-2.6514,-2.6182,-2.5674,-2.5322,-2.5322,-2.4697,-2.4209,-2.4043,-2.3643,-2.3276,-2.311,-2.2857,-2.2676,-2.2519,-2.2012,-2.1531,-2.121,-2.0967,-2.0732,-2.0605,-2.0605,-2.0605,-2.0605,-2.0605,-2.0605,-2.0605,-2.0605,-2.0001,-1.8997,-1.8997,-1.798,-1.6355,-1.7009,-1.6527,-1.5311,-1.5311,-1.5061,-1.465,-1.425,-1.4088,-1.4088,-1.4088,-1.4088,-1.4088,-1.4088,-1.4088,-1.4088,-1.4088,-1.4088,-1.4088,-1.4088,-1.4088,-1.4088,-1.4088,-1.3948,-1.3828,-1.3901,-1.3641,-1.3353,-1.342,-1.334,-1.3173,-1.306,-1.3126,-1.3173,-1.306,-1.3591,-1.4217,-1.4912,-1.4929,-1.5139,-1.5975,-1.6071,-1.6126,-1.6298,-1.794,-1.9376,-2.0255,-2.0507,-2.0537,-2.037,-2.0204,-2.0126,-2.0126,-2.0234,-2.0361,-2.0361,-2.0517,-2.0605,-2.0605,-2.0605,-2.0605,-2.0605,-2.0605,-2.0605,-2.8544,-2.736,-2.6415,-2.5848,-2.5791,-2.6055,-2.6484,-2.6592,-2.6748,-2.7305,-2.7197,-2.6973,-2.6846,-2.6582,-2.6435,-2.6592,-2.6484,-2.6338,-2.6201,-2.5547,-2.5116,-2.5116,-2.4316,-2.3789,-2.3789,-2.3398,-2.3091,-2.3091,-2.2711,-2.2451,-2.2324,-2.158,-2.1132,-2.1025,-2.0723,-2.0605,-2.0605,-2.0605,-2.0605,-2.0605,-2.0245,-2.0079,-2.0079,-2.0079,-1.9313,-1.798,-1.798,-1.6927,-1.5262,-1.6,-1.5428,-1.4088,-1.4088,-1.4088,-1.4088,-1.4088,-1.4088,-1.4088,-1.4088,-1.4088,-1.4088,-1.4088,-1.4088,-1.4088,-1.4088,-1.4088,-1.4088,-1.4088,-1.4088,-1.4088,-1.4088,-1.3935,-1.3834,-1.4041,-1.3781,-1.354,-1.37,-1.3627,-1.346,-1.3367,-1.342,-1.346,-1.332,-1.3553,-1.4022,-1.482,-1.4441,-1.437,-1.5095,-1.5171,-1.5462,-1.615,-1.79,-1.9441,-2.0527,-2.0605,-2.0605,-2.0605,-2.0605,-2.0605,-2.0605,-2.0605,-2.0605,-2.0605,-2.0605,-2.0605,-2.0605,-2.0605,-2.0605,-2.0605,-2.0605,-2.0605,-2.736,-2.6303,-2.5674,-2.5674,-2.6055,-2.6494,-2.6914,-2.7021,-2.7256,-2.8115,-2.7607,-2.6885,-2.6465,-2.6387,-2.624,-2.5762,-2.6103,-2.623,-2.5742,-2.5352,-2.5106,-2.5106,-2.4297,-2.3779,-2.3779,-2.3344,-2.3091,-2.3091,-2.2701,-2.2324,-2.1904,-2.1465,-2.1025,-2.0615,-2.0605,-2.0605,-2.0605,-2.0605,-2.0605,-2.0605,-1.952,-1.8997,-1.8997,-1.9006,-1.777,-1.5696,-1.5696,-1.5095,-1.4088,-1.4088,-1.4088,-1.4088,-1.4088,-1.4088,-1.4088,-1.4088,-1.4088,-1.4088,-1.4088,-1.4088,-1.4088,-1.4088,-1.4088,-1.4088,-1.4088,-1.4088,-1.4088,-1.4088,-1.4082,-1.4082,-1.4082,-1.4082,-1.4082,-1.4088,-1.4082,-1.4082,-1.4082,-1.4082,-1.3995,-1.366,-1.3881,-1.3995,-1.366,-1.3895,-1.4088,-1.4088,-1.4088,-1.4088,-1.4088,-1.4088,-1.4901,-1.7058,-1.831,-1.9402,-2.0527,-2.0605,-2.0605,-2.0605,-2.0605,-2.0605,-2.0605,-2.0605,-2.0605,-2.0605,-2.0605,-2.0605,-2.0605,-2.0605,-2.0605,-2.0605,-2.0605,-2.0605,-2.6459,-2.5407,-2.4805,-2.4805,-2.5605,-2.6494,-2.6914,-2.7256,-2.7549,-2.7803,-2.7412,-2.6885,-2.6465,-2.6143,-2.584,-2.5713,-2.5801,-2.5771,-2.5332,-2.4883,-2.4502,-2.4199,-2.3672,-2.3286,-2.3286,-2.3169,-2.2974,-2.2682,-2.2305,-2.1885,-2.1414,-2.1006,-2.0703,-2.0605,-2.0605,-2.0605,-2.0605,-2.0605,-2.0605,-2.0605,-1.952,-1.8997,-1.8957,-1.8189,-1.705,-1.5696,-1.5696,-1.5095,-1.4088,-1.4088,-1.4088,-1.4088,-1.4088,-1.4088,-1.4088,-1.4088,-1.4088,-1.4088,-1.4088,-1.4088,-1.4088,-1.4088,-1.4088,-1.4088,-1.4088,-1.4088,-1.4088,-1.4088,-1.3935,-1.3733,-1.3733,-1.3627,-1.3574,-1.3988,-1.3928,-1.3733,-1.3733,-1.3733,-1.3706,-1.362,-1.3881,-1.4055,-1.3975,-1.4028,-1.4088,-1.4088,-1.4088,-1.4088,-1.4088,-1.4088,-1.4901,-1.7058,-1.7585,-1.855,-2.044,-2.0605,-2.0605,-2.0605,-2.0605,-2.0605,-2.0605,-2.0605,-2.0605,-2.0605,-2.0605,-2.0605,-2.0605,-2.0605,-2.0605,-2.0605,-2.0605,-2.0605,-2.5941,-2.5181,-2.4941,-2.4941,-2.5674,-2.6494,-2.6914,-2.7353,-2.7669,-2.7441,-2.707,-2.6689,-2.6435,-2.6035,-2.5693,-2.5693,-2.5586,-2.5371,-2.5155,-2.4551,-2.4072,-2.3818,-2.3408,-2.3091,-2.3091,-2.3091,-2.2994,-2.2783,-2.2217,-2.1777,-2.1504,-2.0908,-2.0605,-2.0605,-2.0605,-2.0605,-2.0605,-2.0605,-2.0401,-1.9962,-1.8829,-1.8109,-1.7658,-1.6968,-1.6075,-1.5054,-1.5054,-1.4692,-1.4088,-1.4088,-1.4088,-1.4088,-1.4088,-1.4088,-1.4088,-1.4088,-1.4088,-1.4088,-1.4088,-1.4088,-1.4068,-1.3948,-1.3908,-1.3888,-1.3774,-1.3741,-1.3761,-1.3874,-1.374,-1.3626,-1.3746,-1.356,-1.3433,-1.3828,-1.3687,-1.3493,-1.3768,-1.3686,-1.3633,-1.3753,-1.3968,-1.4088,-1.4088,-1.4088,-1.4088,-1.4088,-1.4088,-1.4088,-1.4088,-1.4817,-1.5876,-1.7172,-1.8101,-1.9146,-2.0479,-2.0605,-2.0605,-2.0605,-2.0605,-2.0605,-2.0605,-2.0605,-2.0605,-2.0605,-2.0605,-2.0605,-2.0605,-2.0605,-2.0605,-2.0605,-2.0605,-2.0703,-2.5635,-2.5303,-2.5625,-2.5625,-2.6035,-2.6494,-2.6875,-2.7153,-2.7328,-2.699,-2.655,-2.6218,-2.6179,-2.5701,-2.5314,-2.5275,-2.4977,-2.4735,-2.4658,-2.4038,-2.3635,-2.3596,-2.329,-2.3091,-2.3091,-2.3091,-2.3081,-2.3042,-2.2344,-2.1865,-2.1826,-2.1065,-2.0605,-2.0605,-2.0605,-2.0605,-2.0605,-2.0489,-1.9962,-1.9006,-1.7747,-1.6642,-1.5696,-1.5621,-1.5019,-1.4088,-1.4088,-1.4088,-1.4088,-1.4088,-1.4088,-1.4088,-1.4088,-1.4088,-1.4088,-1.4088,-1.4088,-1.4088,-1.4088,-1.4068,-1.4001,-1.3693,-1.3586,-1.3513,-1.3287,-1.3213,-1.3267,-1.3487,-1.354,-1.358,-1.3895,-1.3748,-1.3487,-1.3513,-1.336,-1.332,-1.3888,-1.3794,-1.3653,-1.3988,-1.4068,-1.4088,-1.4088,-1.4088,-1.4088,-1.4088,-1.4166,-1.425,-1.425,-1.6041,-1.7334,-1.7455,-1.9155,-2.0323,-2.045,-2.0362,-2.0284,-2.0284,-2.0284,-2.0284,-2.0284,-2.0479,-2.0605,-2.0605,-2.0605,-2.0605,-2.0605,-2.0605,-2.0605,-2.0605,-2.0605,-2.081,-2.4801,-2.4619,-2.5215,-2.5215,-2.581,-2.6406,-2.6504,-2.5737,-2.5298,-2.6332,-2.5594,-2.4652,-2.4339,-2.3338,-2.2464,-2.2212,-2.21,-2.1833,-2.1238,-2.1876,-2.2272,-2.1877,-2.2593,-2.3091,-2.3091,-2.3091,-2.2955,-2.2676,-2.2178,-2.1738,-2.1356,-2.0859,-2.0605,-2.0605,-2.0605,-2.0605,-2.0605,-1.9766,-1.9244,-1.8997,-1.7001,-1.5902,-1.5655,-1.4817,-1.4328,-1.4088,-1.4088,-1.4088,-1.4088,-1.4088,-1.4088,-1.4088,-1.4088,-1.4088,-1.4088,-1.4088,-1.4088,-1.4088,-1.4088,-1.3935,-1.3686,-1.3626,-1.3447,-1.3293,-1.3227,-1.3213,-1.3227,-1.3287,-1.3126,-1.2991,-1.3058,-1.2812,-1.2645,-1.2924,-1.2931,-1.2985,-1.332,-1.3347,-1.3353,-1.364,-1.3928,-1.4088,-1.4088,-1.4088,-1.4088,-1.4088,-1.4817,-1.5379,-1.5379,-1.6478,-1.7626,-1.8559,-1.827,-1.839,-1.9274,-1.851,-1.802,-1.802,-1.802,-1.802,-1.802,-1.9678,-2.0605,-2.0605,-2.0605,-2.0605,-2.0605,-2.0605,-2.0605,-2.0605,-2.0605,-2.081,-2.5626,-2.5136,-2.5165,-2.5332,-2.5732,-2.6074,-2.6074,-2.4977,-2.4199,-2.4986,-2.3989,-2.3002,-2.2802,-2.2156,-2.1577,-2.1255,-2.1056,-2.07,-2.0193,-2.0496,-2.072,-2.0466,-2.0989,-2.1355,-2.1355,-2.1355,-2.154,-2.1917,-2.0866,-2.0351,-2.0686,-2.0174,-1.9835,-1.9835,-1.9835,-2.0079,-2.0605,-1.8997,-1.8189,-1.8189,-1.6519,-1.5413,-1.4894,-1.437,-1.4088,-1.4088,-1.4088,-1.4088,-1.4088,-1.4088,-1.4088,-1.4088,-1.4088,-1.4088,-1.4088,-1.4088,-1.4088,-1.4068,-1.3928,-1.3868,-1.3788,-1.3353,-1.3213,-1.316,-1.2866,-1.2772,-1.2806,-1.2946,-1.2911,-1.2817,-1.2965,-1.2784,-1.263,-1.2931,-1.2784,-1.2699,-1.3287,-1.3307,-1.334,-1.3774,-1.3981,-1.4088,-1.4088,-1.4088,-1.4088,-1.4088,-1.4573,-1.4936,-1.4936,-1.5869,-1.6764,-1.7374,-1.7334,-1.7545,-1.8149,-1.7626,-1.7302,-1.7302,-1.7302,-1.7302,-1.7302,-1.8421,-1.9027,-1.9027,-1.9559,-1.9559,-1.9027,-2.0079,-2.0323,-1.9844,-2.0545,-2.1123,-2.6544,-2.569,-2.5078,-2.5557,-2.5693,-2.5693,-2.5693,-2.4461,-2.3335,-2.3335,-2.2257,-2.1347,-2.1347,-2.1095,-2.0833,-2.0472,-2.0127,-1.9726,-1.9421,-1.9263,-1.9177,-1.9177,-1.936,-1.9497,-1.9497,-1.9497,-1.9872,-2.0837,-1.9356,-1.8811,-1.9769,-1.9304,-1.8997,-1.8997,-1.8997,-1.9441,-2.0323,-1.8141,-1.7009,-1.7009,-1.5951,-1.4977,-1.4088,-1.4088,-1.4088,-1.4088,-1.4088,-1.4088,-1.4088,-1.4088,-1.4088,-1.4088,-1.4088,-1.4088,-1.4088,-1.4088,-1.4088,-1.4041,-1.3706,-1.3768,-1.3801,-1.3045,-1.2924,-1.2959,-1.2452,-1.2305,-1.2351,-1.2643,-1.2703,-1.2764,-1.2986,-1.2899,-1.2851,-1.3066,-1.2786,-1.2679,-1.3433,-1.3413,-1.344,-1.3981,-1.4088,-1.4088,-1.4088,-1.4088,-1.4088,-1.4088,-1.425,-1.437,-1.437,-1.5296,-1.5985,-1.5985,-1.6601,-1.709,-1.7302,-1.6976,-1.6895,-1.7302,-1.6992,-1.6901,-1.7098,-1.6957,-1.6989,-1.7195,-1.821,-1.8345,-1.7677,-1.9534,-1.9986,-1.9204,-2.0631,-2.1582,-2.569,-2.4794,-2.4697,-2.5479,-2.5693,-2.5693,-2.5693,-2.3741,-2.1954,-2.1954,-2.0845,-1.9886,-1.9886,-1.8737,-1.7708,-1.7346,-1.7049,-1.6746,-1.6435,-1.7286,-1.7963,-1.7963,-1.8864,-1.9497,-1.9497,-1.9497,-1.9455,-1.9407,-1.8777,-1.8369,-1.8305,-1.8756,-1.8997,-1.8997,-1.8997,-1.9085,-1.9195,-1.7001,-1.5902,-1.5902,-1.4817,-1.425,-1.4088,-1.4088,-1.4088,-1.4088,-1.4088,-1.4088,-1.4088,-1.4088,-1.4088,-1.4088,-1.4088,-1.4088,-1.4088,-1.4088,-1.4088,-1.4041,-1.3706,-1.3467,-1.326,-1.2911,-1.2636,-1.2405,-1.2325,-1.2305,-1.2311,-1.2351,-1.2365,-1.2371,-1.2412,-1.2623,-1.2797,-1.2837,-1.2953,-1.3193,-1.352,-1.3573,-1.3646,-1.4021,-1.4088,-1.4088,-1.4088,-1.4088,-1.4088,-1.4088,-1.4894,-1.5504,-1.5504,-1.6437,-1.709,-1.709,-1.6396,-1.6273,-1.7212,-1.5594,-1.5311,-1.718,-1.5769,-1.5297,-1.6199,-1.5639,-1.5789,-1.6845,-1.7283,-1.8062,-1.9126,-1.9543,-1.9798,-1.9916,-2.1202,-2.2031,-2.5605,-2.4587,-2.4336,-2.5411,-2.5547,-2.543,-2.5635,-2.4196,-2.2617,-2.1853,-2.059,-1.9317,-1.8435,-1.7692,-1.7052,-1.654,-1.6359,-1.6166,-1.5872,-1.6292,-1.6622,-1.6622,-1.7117,-1.7436,-1.7436,-1.7436,-1.7619,-1.7995,-1.7091,-1.6679,-1.7046,-1.7113,-1.7163,-1.7163,-1.7163,-1.7447,-1.8029,-1.5876,-1.4817,-1.4817,-1.4334,-1.4088,-1.4088,-1.4088,-1.4088,-1.4088,-1.4088,-1.4088,-1.4088,-1.4088,-1.4088,-1.4088,-1.4088,-1.4088,-1.4088,-1.4088,-1.4088,-1.4021,-1.3561,-1.3387,-1.3307,-1.2705,-1.2556,-1.2556,-1.2351,-1.2305,-1.2338,-1.2543,-1.2589,-1.263,-1.2766,-1.2906,-1.3046,-1.3206,-1.3353,-1.3493,-1.3828,-1.372,-1.3693,-1.4028,-1.4088,-1.4088,-1.4088,-1.4088,-1.4088,-1.4088,-1.4489,-1.4817,-1.4817,-1.5228,-1.5511,-1.5511,-1.5061,-1.4977,-1.547,-1.538,-1.5439,-1.5692,-1.6415,-1.6726,-1.6502,-1.6819,-1.7549,-1.8691,-1.8186,-1.8272,-1.8938,-2.026,-2.0601,-2.0162,-2.1587,-2.2334,-2.5644,-2.4656,-2.4053,-2.4988,-2.5156,-2.5156,-2.5488,-2.4583,-2.3434,-2.2416,-2.0845,-1.9221,-1.7958,-1.7337,-1.6945,-1.6453,-1.6259,-1.6086,-1.5858,-1.5784,-1.5784,-1.5784,-1.5784,-1.5784,-1.5784,-1.5718,-1.5958,-1.6575,-1.5535,-1.5149,-1.5703,-1.5705,-1.5696,-1.5696,-1.5696,-1.6067,-1.6887,-1.5026,-1.4088,-1.4088,-1.4088,-1.4088,-1.4088,-1.4088,-1.4088,-1.4088,-1.4088,-1.4088,-1.4088,-1.4088,-1.4088,-1.4088,-1.4088,-1.4088,-1.4088,-1.4088,-1.4088,-1.4001,-1.3414,-1.3313,-1.336,-1.2572,-1.2452,-1.263,-1.2371,-1.2305,-1.2365,-1.2697,-1.2784,-1.2857,-1.3126,-1.3267,-1.3333,-1.3553,-1.366,-1.3814,-1.4041,-1.3915,-1.378,-1.4041,-1.4088,-1.4088,-1.4088,-1.4088,-1.4088,-1.4088,-1.4088,-1.4088,-1.4088,-1.4155,-1.4323,-1.4648,-1.476,-1.5007,-1.5586,-1.643,-1.673,-1.641,-1.7884,-1.846,-1.7799,-1.8455,-1.9341,-2.0461,-1.9601,-1.9116,-1.9153,-2.0809,-2.1254,-2.0512,-2.1978,-2.2676,-2.5639,-2.4796,-2.3989,-2.393,-2.4482,-2.5125,-2.5145,-2.4367,-2.3692,-2.3583,-2.1456,-1.9479,-1.9158,-1.7809,-1.672,-1.6687,-1.6219,-1.5798,-1.5784,-1.5784,-1.5784,-1.5784,-1.5784,-1.5784,-1.5784,-1.5578,-1.5343,-1.5138,-1.4754,-1.4416,-1.4249,-1.5144,-1.5696,-1.5696,-1.5696,-1.5745,-1.5779,-1.465,-1.4088,-1.4088,-1.4088,-1.4088,-1.4088,-1.4088,-1.4088,-1.4088,-1.4088,-1.4088,-1.4088,-1.4088,-1.4088,-1.4088,-1.4088,-1.4088,-1.4088,-1.4088,-1.4088,-1.4001,-1.3414,-1.322,-1.3133,-1.2505,-1.2311,-1.2318,-1.2305,-1.2305,-1.2365,-1.2697,-1.2784,-1.2857,-1.3126,-1.3373,-1.3586,-1.36,-1.3854,-1.4068,-1.4082,-1.4075,-1.4068,-1.4082,-1.4088,-1.4088,-1.4088,-1.4088,-1.4088,-1.4088,-1.4088,-1.4088,-1.4088,-1.4329,-1.4916,-1.6074,-1.6479,-1.7522,-1.9711,-1.9008,-1.934,-2.1371,-1.9964,-1.9501,-2.0462,-1.9832,-2.0019,-2.123,-2.1185,-2.0961,-2.0593,-2.0818,-2.1053,-2.1274,-2.2497,-2.3062,-2.5216,-2.4162,-2.3287,-2.3693,-2.4023,-2.4394,-2.4988,-2.5064,-2.451,-2.2767,-2.1651,-2.0397,-1.8513,-1.7377,-1.6647,-1.646,-1.6092,-1.5784,-1.5784,-1.5784,-1.5784,-1.5784,-1.5784,-1.5784,-1.5784,-1.5684,-1.5478,-1.5042,-1.4908,-1.4596,-1.4115,-1.4454,-1.465,-1.465,-1.465,-1.465,-1.465,-1.4286,-1.4088,-1.4088,-1.4088,-1.4088,-1.4088,-1.4088,-1.4088,-1.4088,-1.4088,-1.4088,-1.4088,-1.4088,-1.4088,-1.4088,-1.4088,-1.4088,-1.4088,-1.4088,-1.4088,-1.4001,-1.3414,-1.3293,-1.3347,-1.2786,-1.2623,-1.2663,-1.2826,-1.2746,-1.2723,-1.318,-1.332,-1.3394,-1.3694,-1.3848,-1.3928,-1.3928,-1.4008,-1.4088,-1.4088,-1.4088,-1.4088,-1.4088,-1.4088,-1.4088,-1.4088,-1.4088,-1.4088,-1.4088,-1.4088,-1.4334,-1.5054,-1.475,-1.5232,-1.7165,-1.7036,-1.7454,-1.905,-1.9755,-2.0068,-2.0086,-2.1071,-2.1509,-2.1085,-2.1549,-2.1996,-2.2448,-2.2448,-2.2372,-2.2229,-2.2273,-2.2349,-2.2492,-2.2906,-2.3091,-2.509,-2.4034,-2.3295,-2.3755,-2.3614,-2.3623,-2.4619,-2.5078,-2.4785,-2.3202,-2.2572,-2.1702,-1.942,-1.8178,-1.7298,-1.6558,-1.6086,-1.5784,-1.5784,-1.5784,-1.5784,-1.5784,-1.5784,-1.5784,-1.5784,-1.5745,-1.5484,-1.5042,-1.4914,0.0,-1.4115,-1.4088,-1.4088,-1.4088,-1.4088,-1.4088,-1.4088,-1.4088,-1.4088,-1.4088,-1.4088,-1.4088,-1.4088,-1.4088,-1.4088,-1.4088,-1.4088,-1.4088,-1.4088,-1.4088,-1.4088,-1.4088,-1.4088,-1.4088,-1.4088,-1.4088,-1.4088,-1.4015,-1.3527,-1.344,-1.352,-1.3066,-1.2945,-1.2978,-1.3146,-1.3066,-1.3045,-1.346,-1.36,-1.3673,-1.4008,-1.4088,-1.4088,-1.4088,-1.4088,-1.4088,-1.4088,-1.4088,-1.4088,-1.4088,-1.4088,-1.4208,-1.4573,-1.4657,-1.4776,-1.5103,-1.5322,-1.5673,-1.636,-1.5827,-1.6184,-1.8165,-1.7603,-1.7762,-1.9383,-2.0053,-2.0422,-2.0439,-2.1706,-2.2129,-2.1337,-2.2448,-2.2731,-2.1908,-2.2677,-2.2687,-2.1908,-2.2687,-2.3091,-2.3091,-2.3091,-2.3091,0.0,0.0,0.0,-2.3997,-2.322,-2.2822,-2.4072,-2.4365,-2.4512,-2.4904,-2.4281,-2.3249,-2.1946,-2.0315,-1.8642,-1.7061,-1.6226,-1.5798,-1.5798,-1.5832,-1.5784,-1.5784,-1.5784,-1.5784,-1.5784,-1.5571,-1.5291,-1.5042,-1.4703,-1.4402,-1.4115,-1.4088,-1.4088,-1.4088,-1.4088,-1.4088,-1.4088,-1.4088,-1.4088,-1.4088,-1.4088,-1.4088,-1.4088,-1.4088,-1.4088,-1.4088,-1.4088,-1.4082,-1.4075,-1.4082,-1.4088,-1.4088,-1.4088,-1.4088,-1.4088,-1.4088,-1.4088,-1.4041,-1.3706,-1.3613,-1.3567,-1.332,-1.3227,-1.3227,-1.3233,-1.3227,-1.328,-1.3533,-1.3613,-1.3686,-1.4015,-1.4088,-1.4088,-1.4088,-1.4088,-1.4088,-1.4088,-1.4088,-1.4088,-1.4088,-1.413,-1.4489,-1.5538,-1.5745,-1.6116,-1.7147,-1.7697,-1.7971,-1.8021,-1.7505,-1.7657,-1.896,-1.8254,-1.868,-2.1025,-2.0169,-2.0494,-2.2862,-2.1889,-2.1248,-2.1248,-2.2359,-2.1908,-1.9579,-2.1863,-2.1908,-1.9633,-2.1908,-2.3047,-2.3003,-2.3047,-2.3057,-2.5264,0.0,0.0,0.0,0.0,0.0,-2.2891,-2.3281,-2.3442,-2.3205,-2.2953,-2.2514,-2.1854,-2.0315,-1.9069,-1.8578,-1.7211,-1.6152,-1.6152,-1.5965,-1.5784,-1.5784,-1.5784,-1.5784,-1.5784,-1.5711,-1.5585,0.0,-1.5003,-1.471,-1.4416,-1.4202,-1.4088,-1.4088,-1.4088,-1.4088,-1.4088,-1.4088,-1.4088,-1.4088,-1.4088,-1.4088,-1.4088,-1.4088,-1.4088,-1.4088,-1.4088,-1.3968,-1.374,-1.4001,-1.4088,-1.4088,-1.4088,-1.4088,-1.4088,-1.4088,-1.4088,-1.4041,-1.3706,-1.374,-1.3915,-1.358,-1.3487,-1.3527,-1.3781,-1.3694,-1.3547,-1.3881,-1.3968,-1.3981,-1.4068,-1.4088,-1.4088,-1.4088,-1.4088,-1.4088,-1.4088,-1.4088,-1.4088,-1.4088,-1.4734,-1.5338,-1.5662,-1.6355,-1.7057,-1.7689,-1.7143,-1.704,-1.8148,-1.6877,-1.6639,-1.8685,-1.8163,-1.8319,-1.9852,-1.967,-1.977,-2.0449,-2.0169,-1.9988,-1.9988,-2.0314,-2.0576,-2.08,-2.148,-2.1898,-2.2085,-2.1898,-2.1346,-2.0539,-2.1391,-2.2262,-2.5804,-2.4886,0.0,-2.365,0.0,0.0,-2.2634,-2.2832,-2.2906,-2.2953,-2.3112,-2.2986,-2.2163,-2.1188,-2.0211,-1.9278,-1.8031,-1.7029,-1.6552,-1.6199,-1.6012,-1.6012,-1.5905,-1.5784,-1.5784,-1.5784,-1.5712,-1.5418,-1.5244,-1.4963,-1.4543,-1.4249,-1.4088,-1.4088,-1.4088,-1.4088,-1.4088,-1.4088,-1.4088,-1.4088,-1.4088,-1.4088,-1.4088,-1.4088,-1.4088,-1.4082,-1.3955,-1.376,-1.3606,-1.3701,-1.3794,-1.3895,-1.3768,-1.3874,-1.4075,-1.3948,-1.3901,-1.3895,-1.3848,-1.382,-1.3895,-1.3841,-1.3828,-1.3861,-1.4035,-1.3968,-1.3868,-1.4041,-1.4088,-1.4088,-1.4088,-1.4088,-1.4088,-1.4088,-1.4088,-1.4088,-1.4088,-1.4088,-1.425,-1.4692,-1.5,-1.55,-1.6407,-1.6815,-1.7267,-1.7992,-1.7583,-1.7569,-1.8483,-1.7274,-1.6849,-1.8198,-1.7472,-1.763,-1.936,-1.9039,-1.9177,-2.0169,-1.9761,-1.9497,-1.9497,-1.9988,-2.035,-2.0531,-2.1534,-2.2164,-2.235,-2.2164,-2.1676,-2.1042,-2.1712,-2.2448,-2.6499,-2.5769,0.0,-2.483,-2.3395,0.0,-2.2819,-2.2601,-2.2539,-2.3398,-2.3877,-2.3784,-2.2693,-2.242,-2.1627,-1.9579,-1.8828,-1.8123,-1.6954,-1.6506,-1.6319,-1.6319,-1.6059,-1.5879,-1.5879,-1.5798,-1.5718,-1.5464,-1.5384,-1.509,-1.4502,-1.4229,-1.4088,-1.4088,-1.4088,-1.4088,-1.4088,-1.4088,-1.4088,-1.4088,-1.4088,-1.4088,-1.4088,-1.4088,-1.4068,-1.4021,-1.372,-1.3567,-1.3487,-1.3267,-1.3327,-1.3533,-1.3273,-1.3547,-1.4008,-1.37,-1.3626,-1.3693,-1.3995,-1.3915,-1.3693,-1.4001,-1.4088,-1.4088,-1.4088,-1.4088,-1.4088,-1.4088,-1.4088,-1.4088,-1.4088,-1.4088,-1.4088,-1.4088,-1.4088,-1.4088,-1.4088,-1.4088,-1.4419,-1.5541,-1.517,-1.5332,-1.7305,-1.718,-1.7129,-1.8127,-1.8482,-1.8657,-1.875,-1.7995,-1.7552,-1.7692,-1.6669,-1.6976,-1.9306,-1.8503,-1.8818,-2.098,-2.0079,-1.9497,-1.9497,-2.0522,-2.0666,-1.9716,-2.1952,-2.258,-2.1525,-2.2315,-2.2775,-2.2906,-2.2906,-2.296,-2.6499,-2.5769,-2.4981,-2.4966,-2.3475,0.0,-2.219,-2.1568,-2.1241,-2.208,-2.2324,-2.2502,-2.29,-2.2381,-2.1628,-2.0813,-1.9669,-1.8455,-1.7265,-1.6807,-1.662,-1.662,-1.6366,-1.6186,-1.6186,-1.5972,-1.5758,-1.5752,-1.5311,-1.479,-1.4202,-1.4122,-1.4088,-1.4088,-1.4088,-1.4088,-1.4088,-1.4088,-1.4088,-1.4088,-1.4088,-1.4088,-1.4088,-1.4088,-1.3955,-1.3686,-1.3626,-1.3367,-1.2958,-1.2898,-1.3058,-1.3287,-1.3233,-1.3387,-1.3686,-1.3626,-1.3753,-1.4008,-1.4068,-1.4048,-1.4008,-1.4068,-1.4088,-1.4088,-1.4088,-1.4088,-1.4088,-1.4088,-1.4088,-1.4088,-1.4088,-1.4088,-1.4088,-1.4088,-1.4088,-1.4088,-1.4088,-1.4088,-1.448,-1.5786,-1.5889,-1.6014,-1.6707,-1.7415,-1.808,-1.8583,-1.7924,-1.7493,-1.7873,-1.6908,-1.6574,-1.7598,-1.7505,-1.7909,-1.936,-1.9268,-1.936,-1.9807,-1.9625,-1.9497,-1.9497,-1.9716,-2.0215,-2.0935,-2.2359,-2.3003,-2.2721,-2.1033,-2.0719,-2.1658,-2.1658,-2.2164,-2.6562,-2.6129,-2.5629,-2.5123,-2.4228,0.0,0.0,-2.1971,-2.1688,-2.1871,-2.1885,-2.2012,-2.2441,-2.216,-2.1685,-2.1176,-2.0717,-1.9786,-1.8089,-1.7326,-1.6927,-1.6927,-1.6589,-1.6321,-1.6321,-1.6005,-1.5784,-1.5784,-1.5291,-1.4881,-1.4586,-1.4249,-1.4088,-1.4088,-1.4088,-1.4088,-1.4088,-1.4088,-1.4088,-1.4088,-1.3935,-1.3868,-1.3861,-1.3714,-1.3567,-1.338,-1.326,-1.3065,-1.277,-1.2623,-1.2619,-1.2759,-1.2759,-1.308,-1.3586,-1.344,-1.3573,-1.3888,-1.4035,-1.3988,-1.3895,-1.4041,-1.4088,-1.4088,-1.4088,-1.4088,-1.4088,-1.4088,-1.4088,-1.4088,-1.4088,-1.4088,-1.4088,-1.4088,-1.4088,-1.4088,-1.4088,-1.4202,-1.4554,-1.54,-1.5664,-1.5946,-1.6677,-1.6929,-1.7054,-1.7255,-1.7331,-1.7444,-1.7669,-1.7677,-1.7894,-1.8549,-1.8596,-1.9093,-2.0305,-2.0395,-2.0395,-2.0395,-2.0395,-2.0124,-1.9542,-1.9497,-1.9761,-2.0395,-2.1578,-2.1898,-2.1311,-2.0087,-2.044,-2.2217,-2.2217,-2.2536,-2.665,-2.6499,-2.6314,-2.5476,0.0,-2.4633,0.0,0.0,0.0,-2.1787,-2.1631,-2.1631,0.0,0.0,0.0,-2.1108,0.0,0.0,0.0,-1.8114,0.0,-1.715,-1.6744,-1.6469,-1.6359,-1.6039,-1.5784,-1.5784,-1.5237,-1.4877,-1.4877,-1.4376,-1.4088,-1.4088,-1.4088,-1.4088,-1.4088,-1.4088,-1.4088,-1.4082,-1.3841,-1.366,-1.3593,-1.336,-1.3227,-1.3106,-1.2898,-1.275,-1.2683,-1.2405,-1.2305,-1.2305,-1.2305,-1.2819,-1.3493,-1.33,-1.3393,-1.372,-1.4001,-1.3928,-1.3726,-1.4008,-1.4088,-1.4088,-1.4088,-1.4088,-1.4088,-1.4088,-1.4088,-1.4088,-1.4088,-1.4088,-1.4088,-1.4088,-1.4088,-1.4102,-1.4162,-1.4355,-1.4623,-1.5022,-1.5237,-1.5681,-1.662,-1.6213,-1.5872,-1.6109,-1.7037,-1.7692,-1.7692,-1.8542,-1.9131,-1.9131,-1.9131,-1.9625,-2.0845,-2.0935,-2.0935,-2.0935,-2.0935,-2.0531,-1.9542,-1.9497,-1.9497,-1.9497,-2.044,-2.0486,-1.9497,-1.9497,-2.0494,-2.2413,-2.2413,-2.2451,0.0,0.0,0.0,0.0,-2.5664,0.0,0.0,0.0,-2.1828,-2.0927,0.0,0.0,0.0,0.0,0.0,0.0,0.0,0.0,-2.0289,-1.9447,-1.8328,-1.6937,-1.6978,-1.6998,-1.668,-1.6152,-1.5784,-1.5784,-1.505,-1.4569,-1.4569,-1.4262,-1.4088,-1.4088,-1.4088,-1.4088,-1.4088,-1.4088,-1.4088,-1.4088,-1.4055,-1.3901,-1.36,-1.3573,-1.33,-1.2837,-1.2797,-1.2636,-1.2351,-1.2318,-1.2305,-1.2305,-1.2305,-1.2692,-1.326,-1.322,-1.3561,-1.4041,-1.4075,-1.4068,-1.4041,-1.4075,-1.4088,-1.4088,-1.4088,-1.4088,-1.4088,-1.4088,-1.4088,-1.4088,-1.4088,-1.4088,-1.4088,-1.4088,-1.4088,-1.4162,-1.4416,-1.4496,-1.4683,-1.5237,-1.5378,-1.5524,-1.5866,-1.5852,-1.6204,-1.7318,-1.7598,-1.7692,-1.7692,-1.7824,-1.7917,-1.7917,-1.7917,-1.8411,-1.9579,-1.9716,-1.9716,-1.9716,-1.9716,-1.9625,-1.9497,-1.9497,-1.9497,-1.9497,-1.9625,-1.9625,-1.9497,-1.9497,-1.9625,-1.9906,-1.9906,-2.0029,0.0,0.0,0.0,0.0,0.0,0.0,-2.46,0.0,-2.259,0.0,0.0,0.0,0.0,0.0,0.0,0.0,-2.1151,0.0,0.0,0.0,-1.9891,0.0,0.0,0.0,-1.6,-1.5872,-1.5784,-1.5784,-1.5177,-1.4776,-1.4776,-1.4496,-1.4262,-1.4088,-1.4088,-1.4088,-1.4088,-1.4088,-1.4088,-1.4082,-1.3915,-1.3633,-1.3347,-1.3206,-1.2893,-1.2522,-1.2522,-1.2418,-1.2305,-1.2305,-1.2405,-1.2596,-1.2596,-1.2826,-1.3233,-1.336,-1.3728,-1.4088,-1.4088,-1.4088,-1.4088,-1.4088,-1.4088,-1.4088,-1.4088,-1.4088,-1.4088,-1.4088,-1.4088,-1.4088,-1.4088,-1.4215,-1.4295,-1.4128,-1.4392,-1.4583,-1.4529,-1.479,-1.5104,-1.5351,-1.5531,-1.5685,-1.5758,-1.5784,-1.5967,-1.6527,-1.7225,-1.7692,-1.7692,-1.8319,-1.8726,-1.8726,-1.8726,-1.8956,-1.9451,-1.9497,-1.9497,-1.9497,-1.8818,-1.8457,-1.8457,-1.8457,-1.8133,-1.739,-1.8087,-1.8087,-1.7343,-1.7343,-1.7343,-1.739,-1.897,-1.9791,-2.665,0.0,0.0,0.0,0.0,0.0,0.0,0.0,0.0,0.0,0.0,0.0,0.0,0.0,0.0,0.0,0.0,-2.1402,0.0,-2.0704,0.0,0.0,0.0,0.0,0.0,-1.5913,-1.5745,-1.5771,-1.5144,-1.48,-1.4836,-1.4563,-1.4302,-1.4095,-1.4088,-1.4088,-1.4088,-1.4088,-1.4088,-1.4082,-1.3868,-1.3567,-1.32,-1.3012,-1.2703,-1.2305,-1.2305,-1.2305,-1.2311,-1.2392,-1.2589,-1.2804,-1.2965,-1.3133,-1.3313,-1.3527,-1.3793,-1.4088,-1.4088,-1.4088,-1.4088,-1.4088,-1.4088,-1.4088,-1.4088,-1.4088,-1.4088,-1.4088,-1.4088,-1.4108,-1.4182,-1.4362,-1.4489,-1.4355,-1.47,-1.4968,-1.479,-1.5097,-1.5424,-1.5504,-1.5685,-1.5784,-1.5784,-1.5784,-1.592,-1.6244,-1.7131,-1.7692,-1.7692,-1.8457,-1.8856,-1.8534,-1.8488,-1.8488,-1.8488,-1.8488,-1.8488,-1.8488,-1.7677,-1.7178,-1.7178,-1.7178,-1.6756,-1.5825,-1.6716,-1.6709,-1.5784,-1.5784,-1.5784,-1.5832,-1.7951,-1.8948,0.0,0.0,0.0,-2.6499,0.0,0.0,0.0,0.0,-2.4523,0.0,0.0,0.0,0.0,0.0,0.0,0.0,0.0,0.0,0.0,0.0,0.0,0.0,0.0,0.0,0.0,-1.6597,-1.5524,0.0,-1.4763,-1.4242,-1.4522,-1.4262,-1.4095,-1.4088,-1.4088,-1.4088,-1.4088,-1.4088,-1.4088,-1.4088,-1.4075,-1.3768,-1.3213,-1.32,-1.2866,-1.2305,-1.2305,-1.2305,-1.2325,-1.265,-1.2777,-1.2844,-1.3387,-1.358,-1.3586,-1.36,-1.3793,-1.4088,-1.4088,-1.4088,-1.4088,-1.4088,-1.4088,-1.4088,-1.4088,-1.4088,-1.4088,-1.4088,-1.4088,-1.4155,-1.4436,-1.4466,-1.4589,-1.4914,-1.4995,-1.5082,-1.5311,-1.5384,-1.5478,-1.5758,-1.5771,-1.5784,-1.5784,-1.5784,-1.6197,-1.7451,-1.7692,-1.7692,-1.7692,-1.7731,-1.7271,-1.6062,-1.592,-1.592,-1.592,-1.592,-1.592,-1.592,-1.5872,-1.5872,-1.5872,-1.5872,-1.5825,-1.5784,-1.5825,-1.5825,-1.5784,-1.5784,-1.5784,-1.5791,-1.6229,-1.6567,0.0,0.0,-2.6499,-2.6499,0.0,0.0,0.0,0.0,0.0,0.0,0.0,0.0,0.0,0.0,0.0,0.0,0.0,0.0,0.0,0.0,0.0,0.0,0.0,0.0,0.0,0.0,0.0,-1.5369,-1.507,-1.491,-1.4823,-1.4723,-1.4576,-1.4382,-1.4188,-1.4088,-1.4088,-1.4088,-1.4088,-1.4088,-1.4088,-1.3881,-1.3453,-1.3453,-1.328,-1.2899,-1.2899,-1.2899,-1.2913,-1.3013,-1.3166,-1.336,-1.3527,-1.3726,-1.3935,-1.3935,-1.4001,-1.4088,-1.4088,-1.4088,-1.4088,-1.4088,-1.4088,-1.4088,-1.4088,-1.4088,-1.4088,-1.4088,-1.4222,-1.4396,-1.4496,-1.481,-1.5077,-1.5028,-1.5257,-1.5511,-1.5418,-1.5545,-1.5712,-1.5764,-1.5784,-1.5784,-1.5784,-1.5784,-1.5967,-1.6386,-1.6433,-1.6433,-1.6433,-1.6433,-1.6292,-1.5825,-1.5784,-1.5784,-1.5784,-1.5784,-1.5784,-1.5784,-1.5784,-1.5784,-1.5784,-1.5784,-1.5784,-1.5784,-1.5784,-1.6204,-1.7037,-1.7334,-1.7387,-1.7361,-1.8836,-1.8498,-2.6499,-2.6499,0.0,-2.606,-2.6245,0.0,-2.6282,0.0,-2.5864,0.0,0.0,0.0,0.0,0.0,0.0,0.0,0.0,0.0,0.0,-2.0703,0.0,0.0,0.0,0.0,0.0,0.0,-1.659,-1.5221,-1.5097,-1.505,0.0,-1.5008,-1.4874,-1.4529,-1.4342,-1.4195,-1.4088,-1.4088,-1.4088,-1.4088,-1.4088,-1.3928,-1.36,-1.36,-1.3447,-1.3213,-1.3213,-1.3213,-1.322,-1.328,-1.3433,-1.3613,-1.372,-1.3915,-1.4088,-1.4088,-1.4088,-1.4088,-1.4088,-1.4088,-1.4088,-1.4088,-1.4088,-1.4108,-1.4208,-1.4242,-1.4262,-1.4369,-1.4536,-1.4703,-1.4803,-1.511,-1.5378,-1.5291,-1.5558,-1.5731,-1.5591,-1.5698,-1.5784,-1.5784,-1.5784,-1.5784,-1.5784,-1.5784,-1.5784,-1.5784,-1.5784,-1.5784,-1.5784,-1.5784,-1.5784,-1.5784,-1.5784,-1.5784,-1.5784,-1.5784,-1.5784,-1.5784,-1.5784,-1.5831,-1.5979,-1.5985,-1.5985,-1.5985,-1.5985,-1.6361,-1.721,-1.7452,-1.7611,-1.7636,-1.9079,-1.8721]},{"header":{"parameterUnit":"m.s-1","parameterCategory":1,"la1":30.6,"la2":29.2853,"lo1":-89.7004,"lo2":-87.6739,"dy":0.0162,"dx":0.0183,"nx":112,"ny":82,"refTime":"2026-04-12T12:00:00:Z","depth":0,"parameterNumber":3,"parameterNumberName":"V-component_of_WINDS"},"data":[0.0,0.0,0.0,0.0,0.0,0.0,0.0,0.0,0.0,0.0,0.0,0.0,0.0,0.0,0.0,0.0,0.0,0.0,0.0,0.0,0.0,0.0,0.0,0.0,0.0,0.0,0.0,0.0,0.0,0.0,0.0,0.0,0.0,0.0,0.0,0.0,0.0,0.0,0.0,0.0,0.0,0.0,0.0,0.0,0.0,0.0,0.0,0.0,0.0,0.0,0.0,0.0,0.0,0.0,0.0,0.0,0.0,0.0,0.0,0.0,0.0,0.0,0.0,0.0,0.0,0.0,0.0,0.0,0.0,0.0,0.0,0.0,0.0,0.0,0.0,0.0,0.0,0.0,0.0,0.0,0.0,0.0,0.0,0.0,0.0,0.0,0.0,0.0,0.0,0.0,0.8591,0.8557,0.7629,0.6533,0.5308,0.5196,0.4482,0.2956,0.0,0.0,0.0,0.0,0.0,0.0,0.0,0.0,0.0,0.0,0.0,0.0,0.0,0.0,0.0,0.0,0.0,0.0,0.0,0.0,0.0,0.0,0.0,0.0,0.0,0.0,0.0,0.0,0.0,0.0,0.0,0.0,0.0,0.0,0.0,0.0,0.0,0.0,0.0,0.0,0.0,0.0,0.0,0.0,0.0,0.0,0.0,0.0,0.0,0.0,0.0,0.0,0.0,0.0,0.0,0.0,0.0,0.0,0.0,0.0,0.0,0.0,0.0,0.0,0.0,0.0,0.0,0.0,0.0,0.0,0.0,0.0,0.0,0.0,0.0,0.0,0.0,0.0,0.0,0.0,0.0,0.0,0.0,0.0,0.0,0.0,0.0,0.0,0.0,0.0,0.0,0.0,0.0,0.0,0.0,0.0,0.0,0.0,0.0,0.0,0.0,0.0,0.0,0.0,0.8278,0.8763,0.8686,0.8491,0.8266,0.8211,0.7482,0.5798,0.0,0.0,0.0,0.0,0.0,0.0,0.0,0.0,0.0,0.0,0.0,0.0,0.0,0.0,0.0,0.0,0.0,0.0,0.0,0.0,0.0,0.0,0.0,0.0,0.0,0.0,0.0,0.0,0.0,0.0,0.0,0.0,0.0,0.0,0.0,0.0,0.0,0.0,0.0,0.0,0.0,0.0,0.0,0.0,0.0,0.0,0.0,0.0,0.0,0.0,0.0,0.0,0.0,0.0,0.0,0.0,0.0,0.0,0.0,0.0,0.0,0.0,0.0,0.0,0.0,0.0,0.0,0.0,0.0,0.0,0.0,0.0,0.0,0.0,0.0,0.0,0.0,0.0,0.0,0.0,0.0,0.0,0.0,0.0,0.0,0.0,0.0,0.0,0.0,0.0,0.0,0.0,0.0,0.0,0.0,0.0,0.0,0.0,0.0,0.0,0.0,0.0,0.0,0.817,0.8364,0.8828,0.8885,0.8885,0.8885,0.8885,0.8167,0.6385,0.5139,0.0,0.0,0.0,0.0,0.0,0.0,0.0,0.0,0.0,0.0,0.0,0.0,0.0,0.0,0.0,0.0,0.0,0.0,0.0,0.0,0.0,0.0,0.0,0.0,0.0,0.0,0.0,0.0,0.0,0.0,0.0,0.0,0.0,0.0,0.0,0.0,0.0,0.0,0.0,0.0,0.0,0.0,0.0,0.0,0.0,0.0,0.0,0.0,0.0,0.0,0.0,0.0,0.0,0.0,0.0,0.0,0.0,0.0,0.0,0.0,0.0,0.0,0.0,0.0,0.0,0.0,0.0,0.0,0.0,0.0,0.0,0.0,0.0,0.0,0.0,0.0,0.0,0.0,0.0,0.0,0.0,0.0,0.0,0.0,0.0,0.0,0.0,0.0,0.0,0.0,0.0,0.0,0.0,0.0,0.0,0.0,0.0,0.0,0.0,0.0,0.0,0.0,0.8377,0.8506,0.8794,0.8828,0.8814,0.8832,0.8801,0.818,0.6719,0.6363,0.0,0.0,0.0,0.0,0.0,0.0,0.0,0.0,0.0,0.0,0.0,0.0,0.0,0.0,0.0,0.0,0.0,0.0,0.0,0.0,0.0,0.0,0.0,0.0,0.0,0.0,0.0,0.0,0.0,0.0,0.0,0.0,0.0,0.0,0.0,0.0,0.0,0.0,0.0,0.0,0.0,0.0,0.0,0.0,0.0,0.0,0.0,0.0,0.0,0.0,0.0,0.0,0.0,0.0,0.0,0.0,0.0,0.0,0.0,0.0,0.0,0.0,0.0,0.0,0.0,0.0,0.0,0.0,0.0,0.0,0.0,0.0,0.0,0.0,0.0,0.0,0.0,0.0,0.0,0.0,0.0,0.0,0.0,0.0,0.0,0.0,0.0,0.0,0.0,0.0,0.0,0.0,0.0,0.0,0.0,0.0,0.0,0.0,0.0,0.0,0.0,0.0,0.8425,0.8693,0.8723,0.8726,0.8669,0.8526,0.8394,0.8177,0.7699,0.6539,0.0,0.0,0.0,0.0,0.0,0.0,0.0,0.0,0.0,0.0,0.0,0.0,0.0,0.0,0.0,0.0,0.0,0.0,0.0,0.0,0.0,0.0,0.0,0.0,0.0,0.0,0.0,0.0,0.0,0.0,0.0,0.0,0.0,0.0,0.0,0.0,0.0,0.0,0.0,0.0,0.0,0.0,0.0,0.0,0.0,0.0,0.0,0.0,0.0,0.0,0.0,0.0,0.0,0.0,0.0,0.0,0.0,0.0,0.0,0.0,0.0,0.0,0.0,0.0,0.0,0.0,0.0,0.0,0.0,0.0,0.0,0.0,0.0,0.0,0.0,0.0,0.0,0.0,0.0,0.0,0.0,0.0,0.0,0.0,0.0,0.0,0.0,0.0,0.0,0.0,0.0,0.0,0.0,0.0,0.0,0.0,0.0,0.0,0.0,0.0,0.0,0.0,0.9809,0.9587,0.0,0.9036,0.8547,0.8486,0.8431,0.8235,0.7834,0.0,0.0,0.0,0.0,0.0,0.0,0.0,0.0,0.0,0.0,0.0,0.0,0.0,0.0,0.0,0.0,0.0,0.0,0.0,0.0,0.0,0.0,0.0,0.0,0.0,0.0,0.0,0.0,0.0,0.0,0.0,0.0,0.0,0.0,0.0,0.0,0.0,0.0,0.0,0.0,0.0,0.0,0.0,0.0,0.0,0.0,0.0,0.0,0.0,0.0,0.0,0.0,0.0,0.0,0.0,0.0,0.0,0.0,0.0,0.0,0.0,0.0,0.0,0.0,0.0,0.0,0.0,0.0,0.0,0.0,0.0,0.0,0.0,0.0,0.0,0.0,0.0,0.0,0.0,0.0,0.0,0.0,0.0,0.0,0.0,0.0,0.0,0.0,0.0,0.0,0.0,0.0,0.0,0.0,0.0,0.0,0.0,0.0,0.0,0.0,0.0,0.0,1.1341,1.0894,1.0632,0.0,1.0012,0.9462,0.9353,0.9249,0.8901,0.8182,0.0,0.0,0.0,0.0,0.0,0.0,0.0,0.0,0.0,0.0,0.0,0.0,0.0,0.0,0.0,0.0,0.0,0.0,0.0,0.0,0.0,0.0,0.0,0.0,0.0,0.0,0.0,0.0,0.0,0.0,0.0,0.0,0.0,0.0,0.0,0.0,0.0,0.0,0.0,0.0,0.0,0.0,0.0,0.0,0.0,0.0,0.0,0.0,0.0,0.0,0.0,0.0,0.0,0.0,0.0,0.0,0.0,0.0,0.0,0.0,0.0,0.0,0.0,0.0,0.0,0.0,0.0,0.0,0.0,0.0,0.0,0.0,0.0,0.0,0.0,0.0,0.0,0.0,0.0,0.0,0.0,0.0,0.0,0.0,0.0,0.0,0.0,0.0,0.0,0.0,0.0,0.0,0.0,0.0,0.0,0.0,0.0,0.0,0.0,0.0,0.0,0.0,1.107,1.1462,1.1731,1.1731,1.1682,1.1509,1.1124,1.094,1.0238,0.0,0.0,0.0,0.0,0.0,0.0,0.0,0.0,0.0,0.0,0.0,0.0,0.0,0.0,0.0,0.0,0.0,0.0,0.0,0.0,0.0,0.0,0.0,0.0,0.0,0.0,0.0,0.0,0.0,0.0,0.0,0.0,0.0,0.0,0.0,0.0,0.0,0.0,0.0,0.0,0.0,0.0,0.0,0.0,0.0,0.0,0.0,0.0,0.0,0.0,0.0,0.0,0.0,0.0,0.0,0.0,0.0,0.0,0.0,0.0,0.0,0.0,0.0,0.0,0.0,0.0,0.0,0.0,0.0,0.0,0.0,0.0,0.0,0.0,0.0,0.0,0.0,0.0,0.0,0.0,0.0,0.0,0.0,0.0,0.0,0.0,0.0,0.0,0.0,0.0,0.0,0.0,0.0,0.0,0.0,0.0,0.0,0.0,0.0,0.0,0.0,0.0,0.0,1.3213,1.288,1.2633,1.2633,1.1791,1.1228,1.1094,1.1029,1.0637,0.9748,0.0,0.0,0.0,0.0,0.0,0.0,0.0,0.0,0.0,0.0,0.0,0.0,0.0,0.0,0.0,0.0,0.0,0.0,0.0,0.0,0.0,0.0,0.0,0.0,0.0,0.0,0.0,0.0,0.0,0.0,0.0,0.0,0.0,0.0,0.0,0.0,0.0,0.0,0.0,0.0,0.0,0.0,0.0,0.0,0.0,0.0,0.0,0.0,0.0,0.0,0.0,0.0,0.0,0.0,0.0,0.0,0.0,0.0,0.0,0.0,0.0,0.0,0.0,0.0,0.0,0.0,0.0,0.0,0.0,0.0,0.0,0.0,0.0,0.0,0.0,0.0,0.0,0.0,0.0,0.0,0.0,0.0,0.0,0.0,0.0,0.0,0.0,0.0,0.0,0.0,0.0,0.0,0.0,0.0,0.0,0.0,0.0,0.0,0.0,0.0,0.0,0.0,1.3936,1.408,1.4059,1.3633,1.2911,1.2417,1.2321,1.231,1.1821,1.074,0.0,0.0,0.0,0.0,0.0,0.0,0.0,0.0,0.0,0.0,0.0,0.0,0.0,0.0,0.0,0.0,0.0,0.0,0.0,0.0,0.0,0.0,0.0,0.0,0.0,0.0,0.0,0.0,0.0,0.0,0.0,0.0,0.0,0.0,0.0,0.0,0.0,0.0,0.0,0.0,0.0,0.0,0.0,0.0,0.0,0.0,0.0,0.0,0.0,0.0,0.0,0.0,0.0,0.0,0.0,0.0,0.0,0.0,0.0,0.0,0.0,0.0,0.0,0.0,0.0,0.0,0.0,0.0,0.0,0.0,0.0,0.0,0.0,0.0,0.0,0.0,0.0,0.0,0.0,0.0,0.0,0.0,0.0,0.0,0.0,0.0,0.0,0.0,0.0,0.0,0.0,0.0,0.0,0.0,0.0,0.0,0.0,0.0,0.0,0.0,0.0,0.0,1.3878,1.5135,1.5723,1.4811,1.4688,1.4629,1.4397,1.4412,1.3718,1.2056,0.0,0.0,0.0,0.0,0.0,0.0,0.0,0.0,0.0,0.0,0.0,0.0,0.0,0.0,0.0,0.0,0.0,0.0,0.0,0.0,0.0,0.0,0.0,0.0,0.0,0.0,0.0,0.0,0.0,0.0,0.0,0.0,0.0,0.0,0.0,0.0,0.0,0.0,0.0,0.0,0.0,0.0,0.0,0.0,0.0,0.0,0.0,0.0,0.0,0.0,0.0,0.0,0.0,0.0,0.0,0.0,0.0,0.0,0.0,0.0,2.1138,0.0,0.0,0.0,0.0,0.0,0.0,0.0,0.0,0.0,0.0,0.0,0.0,0.0,0.0,0.0,0.0,0.0,0.0,0.0,0.0,0.0,0.0,0.0,0.0,0.0,0.0,0.0,0.0,0.0,0.0,0.0,0.0,0.0,0.0,0.0,0.0,0.0,0.0,0.0,0.0,0.0,1.5098,1.5659,1.6102,1.6221,1.6252,1.6339,1.6593,1.6609,1.5838,1.3939,1.3778,0.0,0.0,0.0,0.0,0.0,0.0,0.0,0.0,0.0,0.0,0.0,0.0,0.0,0.0,0.0,0.0,0.0,0.0,0.0,0.0,0.0,0.0,0.0,0.0,0.0,0.0,0.0,0.0,0.0,0.0,0.0,0.0,0.0,0.0,0.0,0.0,0.0,0.0,0.0,0.0,0.0,0.0,0.0,0.0,0.0,0.0,0.0,0.0,0.0,0.0,0.0,0.0,0.0,0.0,0.0,0.0,0.0,0.0,0.0,0.0,2.1851,0.0,0.0,0.0,0.0,0.0,0.0,0.0,0.0,0.0,0.0,0.0,0.0,0.0,0.0,0.0,0.0,0.0,0.0,0.0,0.0,0.0,0.0,0.0,0.0,0.0,0.0,0.0,0.0,0.0,0.0,0.0,0.0,0.0,0.0,0.0,0.0,0.0,0.0,0.0,0.0,1.5581,1.6312,1.6691,1.6415,1.6354,1.654,1.6957,1.7022,1.6512,1.5328,1.513,0.0,0.0,0.0,0.0,0.0,0.0,0.0,0.0,0.0,0.0,0.0,0.0,0.0,0.0,0.0,0.0,0.0,0.0,0.0,0.0,0.0,0.0,0.0,0.0,0.0,0.0,0.0,0.0,0.0,0.0,0.0,0.0,0.0,0.0,0.0,0.0,0.0,0.0,0.0,0.0,0.0,0.0,0.0,0.0,0.0,0.0,0.0,0.0,0.0,0.0,0.0,0.0,0.0,2.9421,2.9342,2.8486,2.9308,2.9184,2.8197,2.6152,2.4857,2.4165,2.4424,0.0,0.0,0.0,0.0,0.0,0.0,0.0,0.0,0.0,0.0,0.0,0.0,0.0,0.0,0.0,0.0,0.0,0.0,0.0,0.0,0.0,0.0,0.0,0.0,2.1379,2.0889,0.0,0.0,0.0,0.0,0.0,0.0,0.0,0.0,0.0,0.0,0.0,0.0,1.611,1.7032,1.7402,1.6543,1.6438,1.6628,1.7115,1.7149,1.6949,1.6418,1.613,1.5428,0.0,0.0,0.0,0.0,0.0,0.0,0.0,0.0,0.0,0.0,0.0,0.0,0.0,0.0,0.0,0.0,0.0,0.0,0.0,0.0,0.0,0.0,0.0,0.0,0.0,0.0,0.0,0.0,0.0,0.0,0.0,0.0,2.941,2.8956,0.0,0.0,0.0,0.0,0.0,0.0,0.0,0.0,0.0,0.0,0.0,0.0,0.0,2.8981,2.9659,2.9998,3.0167,3.0111,3.0593,3.0487,2.9948,3.0083,2.9789,2.9216,2.8886,0.0,2.7437,2.7404,0.0,0.0,0.0,0.0,0.0,0.0,0.0,0.0,0.0,0.0,0.0,0.0,0.0,0.0,0.0,0.0,0.0,0.0,0.0,0.0,0.0,0.0,2.3765,2.3242,2.3165,2.308,0.0,2.0624,1.8778,1.8311,1.8235,0.0,0.0,0.0,0.0,0.0,0.0,0.0,1.7596,1.786,1.8033,1.8237,1.8276,1.8447,1.8914,1.8952,1.8432,1.7134,1.6821,1.6052,1.4671,1.4231,0.0,0.0,0.0,0.0,0.0,0.0,0.0,0.0,0.0,0.0,0.0,0.0,0.0,0.0,0.0,0.0,0.0,0.0,0.0,0.0,0.0,0.0,0.0,0.0,0.0,0.0,0.0,0.0,0.0,2.9506,3.0003,2.9463,2.9424,2.9205,0.0,0.0,0.0,0.0,0.0,0.0,0.0,0.0,0.0,3.0701,3.0769,3.1343,3.2524,3.2707,3.2815,3.2827,3.3021,3.2807,3.2304,3.2304,3.2004,3.1468,3.1468,3.1249,3.0762,2.9095,2.7789,2.6856,0.0,0.0,0.0,0.0,2.5581,2.5445,2.6002,2.5862,2.5402,2.525,0.0,0.0,0.0,0.0,0.0,0.0,0.0,0.0,0.0,0.0,2.4133,2.3959,2.3903,2.3824,2.3545,2.2524,2.1521,0.0,2.0311,1.95,1.8715,0.0,0.0,0.0,0.0,1.8826,1.8744,1.8721,1.86,1.8296,1.8247,1.8422,1.8887,1.8926,1.865,1.8031,1.7887,1.7317,1.626,1.561,1.5,0.0,0.0,0.0,0.0,0.0,0.0,0.0,0.0,0.0,0.0,0.0,0.0,0.0,0.0,0.0,0.0,0.0,0.0,0.0,0.0,0.0,0.0,0.0,0.0,0.0,0.0,0.0,0.0,3.0733,3.1078,3.0442,3.0652,3.0696,0.0,0.0,0.0,0.0,0.0,0.0,2.994,3.0209,3.1213,3.3007,3.3032,3.3722,3.514,3.514,3.5077,3.4893,3.4893,3.4562,3.3897,3.3897,3.3596,3.3124,3.3124,3.3124,3.2932,3.0632,2.9259,2.853,2.7957,2.7322,2.6734,2.6846,2.6684,2.6491,2.7134,2.7007,2.6572,2.6418,2.5693,2.4796,2.4379,0.0,0.0,0.0,0.0,2.4018,2.4616,2.4782,2.4782,2.4782,2.4782,2.4678,2.4334,2.3969,2.3478,0.0,2.1745,2.0799,2.0315,0.0,0.0,0.0,0.0,2.0365,1.9726,1.9628,1.9365,1.8721,1.8654,1.8785,1.9075,1.9105,1.9105,1.9105,1.9105,1.8846,1.823,1.7593,1.6918,1.6193,0.0,0.0,0.0,0.0,0.0,0.0,0.0,0.0,0.0,0.0,0.0,0.0,0.0,0.0,0.0,0.0,0.0,0.0,0.0,0.0,0.0,0.0,0.0,0.0,0.0,0.0,0.0,0.0,0.0,3.3021,3.281,0.0,0.0,0.0,0.0,3.092,3.3056,3.3884,3.2744,3.378,3.467,3.5303,3.5315,3.5624,3.6317,3.6317,3.6019,3.5458,3.5458,3.4893,3.3897,3.3897,3.3596,3.3124,3.3124,3.3124,3.3031,3.2326,3.1406,3.0362,2.9231,2.8196,2.7321,2.783,2.7992,2.814,2.9236,2.9249,2.8862,2.9374,2.818,2.6384,2.586,2.4659,0.0,0.0,2.4933,2.5158,2.6119,2.6386,2.6386,2.6386,2.6386,2.6386,2.6349,2.5192,2.3745,0.0,2.1989,2.1631,2.0727,0.0,2.059,2.0526,2.0558,2.059,2.0526,2.0526,2.0526,2.0462,2.0462,2.0473,2.0495,2.0495,2.0495,2.0495,2.0495,2.0473,2.0429,2.0385,2.0141,1.9649,1.9121,0.0,0.0,0.0,0.0,0.0,0.0,0.0,0.0,0.0,0.0,0.0,0.0,0.0,0.0,0.0,0.0,0.0,0.0,0.0,0.0,0.0,0.0,0.0,0.0,0.0,0.0,0.0,0.0,3.3696,3.4202,0.0,3.3818,3.3769,3.3649,3.3407,3.4189,3.4682,3.4558,3.4965,3.5504,3.6056,3.6069,3.5994,3.583,3.583,3.5567,3.4969,3.4663,3.4274,3.3884,3.3533,3.3269,3.3124,3.3124,3.3124,3.3031,3.2453,3.178,3.1087,3.0692,2.987,2.8927,2.9101,2.9197,2.9236,2.9663,2.9654,2.9453,2.9289,2.8475,2.7483,2.694,2.6137,2.5499,2.5873,2.599,2.606,2.6418,2.6499,2.6499,2.6499,2.6499,2.6386,2.6021,2.5502,2.4746,2.3539,2.2749,2.2227,2.1975,2.2091,2.2021,2.1522,2.1865,2.2021,2.1491,2.1428,2.108,2.0185,2.04,2.0424,2.0057,2.0368,2.059,2.059,2.059,2.059,2.059,2.059,2.0387,1.9913,1.9702,1.925,0.0,0.0,0.0,0.0,0.0,0.0,0.0,0.0,0.0,0.0,0.0,0.0,0.0,0.0,0.0,0.0,0.0,0.0,0.0,0.0,0.0,0.0,0.0,0.0,0.0,0.0,3.4756,3.4248,3.4944,3.5357,3.4994,3.4956,3.5031,3.5265,3.5278,3.5612,3.6322,3.6381,3.6731,3.7553,3.7371,3.7027,3.6664,3.6411,3.6035,3.5509,3.4768,3.4529,3.464,3.3964,3.3827,3.4124,3.3942,3.3822,3.3783,3.3159,3.2563,3.2005,3.1392,3.0696,3.0043,2.9867,2.9792,2.9869,3.0177,3.0126,2.9896,2.9639,2.9165,2.8559,2.8023,2.7629,2.7351,2.7351,2.7351,2.7351,2.7351,2.7351,2.7278,2.705,2.7011,2.6842,2.6213,2.5941,2.5591,2.4896,2.3804,2.2954,2.2849,2.2967,2.2914,2.2384,2.2763,2.2914,2.2384,2.2292,2.1962,2.1011,2.1218,2.1206,2.0621,2.095,2.109,2.0915,2.0903,2.0903,2.0903,2.0903,2.0852,2.0708,2.0532,1.9831,1.8558,0.0,0.0,0.0,0.0,0.0,0.0,0.0,0.0,0.0,0.0,0.0,0.0,0.0,0.0,0.0,0.0,0.0,0.0,0.0,0.0,0.0,0.0,0.0,3.5137,3.5281,3.5387,3.4859,3.5273,3.5613,3.5567,3.5613,3.5873,3.6461,3.6499,3.6977,3.8121,3.8153,3.8693,3.9855,3.9235,3.8904,3.8876,3.8199,3.7593,3.7083,3.6027,3.5747,3.6172,3.521,3.5278,3.6142,3.5551,3.5303,3.5234,3.4551,3.3945,3.3211,3.141,3.0675,3.0599,3.0097,2.9908,2.9998,3.0932,3.0797,3.0289,3.0713,3.0378,2.9692,2.9178,2.9016,2.9002,2.9002,2.9002,2.9002,2.9002,2.8989,2.8823,2.8136,2.7999,2.7776,2.7113,2.6579,2.6209,2.6196,2.5004,2.3852,2.3286,2.3155,2.3155,2.3155,2.3155,0.0,2.31,2.31,2.31,2.3032,2.3045,2.2832,2.2309,2.2284,2.2058,2.1518,2.1493,2.1493,2.1493,2.1493,2.1744,2.2243,2.1744,2.0575,1.8765,0.0,0.0,0.0,0.0,0.0,0.0,0.0,0.0,0.0,0.0,0.0,0.0,0.0,0.0,0.0,0.0,0.0,0.0,0.0,0.0,0.0,3.8199,3.8419,3.7362,3.7679,3.7655,3.6684,3.7838,3.8332,3.7488,3.8198,3.8755,3.8917,3.893,3.9064,3.9404,3.9417,3.9536,3.9899,3.9235,3.871,3.8338,3.7662,3.7041,3.642,3.6141,3.6098,3.6198,3.5894,3.5715,3.5537,3.5372,3.503,3.4537,3.3904,3.3546,3.3358,3.2817,3.2374,3.2021,3.1896,3.1829,3.1865,3.2141,3.1782,3.1216,3.133,3.0642,2.9775,2.9642,2.9316,2.9002,2.9002,2.9002,2.9002,2.9002,2.864,2.825,2.8054,2.7624,2.7129,2.6538,2.629,2.6085,2.5701,2.528,2.4941,2.4808,2.4781,2.4781,2.4781,2.4781,0.0,2.343,2.3321,2.2812,2.1514,2.1707,2.1719,2.1194,2.1493,2.1656,2.1493,2.1493,2.1493,2.1493,2.1493,2.1556,2.1707,2.1207,2.0686,0.0,0.0,0.0,0.0,0.0,0.0,0.0,0.0,0.0,0.0,0.0,0.0,0.0,0.0,0.0,0.0,0.0,0.0,0.0,0.0,0.0,0.0,4.009,4.0705,4.0388,3.9802,3.9131,3.8492,3.9287,3.9623,3.8917,3.9492,3.9899,3.9899,3.9899,4.0116,4.0575,4.0618,4.0718,4.0937,4.0294,3.9665,3.9064,3.8382,3.7906,3.7534,3.7098,3.7098,3.752,3.6763,3.6505,3.6576,3.6025,3.5596,3.5175,3.4533,3.4262,0.0,0.0,0.0,0.0,0.0,3.2406,3.222,3.2653,3.2196,3.1452,3.1862,3.1322,3.0523,3.0523,3.0297,3.0042,3.0042,3.0042,3.0042,3.0042,2.954,2.8997,2.8725,2.8168,2.7498,2.6913,2.6784,2.6697,2.6394,2.6322,0.0,2.6322,2.581,2.5398,2.5398,2.5177,2.471,2.3905,2.3568,2.3004,2.1943,2.2113,2.2086,2.1538,2.1786,0.0,0.0,0.0,2.1577,2.1577,2.1825,0.0,0.0,0.0,0.0,0.0,0.0,0.0,0.0,1.9721,1.9888,0.0,0.0,0.0,0.0,0.0,0.0,0.0,0.0,0.0,0.0,0.0,0.0,0.0,0.0,0.0,0.0,4.2311,4.329,4.329,4.1574,4.0246,4.0116,4.0202,4.0246,4.0102,4.0202,4.0289,4.0289,4.0289,4.0703,4.1726,0.0,0.0,0.0,0.0,4.107,4.0412,3.9753,3.9388,3.9388,3.8435,3.8428,3.9239,3.7689,3.7425,3.8108,3.6971,3.6447,3.6327,3.5744,3.5504,3.5326,3.3616,3.2925,3.2925,3.2842,3.2444,3.2039,3.2868,0.0,0.0,3.2228,3.2049,3.1511,3.1511,3.1511,3.1511,3.1511,3.1511,3.1481,3.1406,3.0883,3.0238,2.9624,2.8992,2.8308,2.7735,2.76,2.76,2.76,2.76,2.757,2.7495,2.6407,2.5548,2.5548,2.4964,2.4479,2.4331,2.3808,2.3372,2.3212,0.0,0.0,2.2545,2.249,2.228,2.1738,2.1697,2.1697,2.1697,2.2211,2.2252,2.171,2.2225,2.2238,2.1697,2.1697,2.1697,2.1673,2.0533,2.0372,0.0,0.0,0.0,0.0,0.0,0.0,0.0,0.0,0.0,0.0,0.0,0.0,0.0,0.0,0.0,4.1946,4.2777,4.329,4.329,4.29,4.2304,4.1378,4.2085,4.229,4.1337,4.2085,4.2644,4.2644,4.2644,4.2739,4.2941,4.2981,4.2818,4.2425,4.1767,4.107,4.0412,3.9753,3.9388,3.9388,0.0,0.0,3.8586,3.8245,3.7635,3.6836,3.6596,3.6178,3.5684,3.5549,3.5504,3.5472,3.51,3.492,3.4861,3.4348,3.4053,3.3876,3.3532,3.2911,3.2258,3.2452,3.2049,3.1511,3.1511,3.1511,0.0,3.1511,3.1511,3.1376,3.0823,3.0238,2.9594,2.8951,2.8289,2.7764,2.763,2.76,2.76,2.76,2.76,2.742,2.6896,2.657,2.6356,2.6356,2.5796,2.4985,2.3966,2.3722,2.322,2.2135,2.2032,2.199,2.189,2.1876,2.1835,2.171,2.1697,2.1697,2.1697,2.1821,2.1821,2.1697,2.1821,2.1821,2.1697,2.1697,2.1697,2.1697,2.1435,2.1697,0.0,0.0,0.0,0.0,0.0,0.0,0.0,0.0,0.0,0.0,0.0,4.0685,4.1048,0.0,4.1868,4.2712,4.312,4.329,4.329,4.329,4.3076,4.2508,4.2941,4.3076,4.2508,4.2981,4.329,4.329,4.329,4.329,4.329,4.3015,4.2551,4.1931,4.1235,4.0576,3.9918,3.9589,3.9388,3.9388,3.9388,3.905,3.8377,3.8048,3.7389,3.6477,3.6148,3.5804,3.5504,3.5504,3.5504,3.5474,3.513,3.519,3.5429,3.4758,3.4294,3.3888,3.323,3.2572,3.1989,3.1989,3.1765,3.1511,3.1511,3.1511,3.1511,3.1511,3.1511,3.1346,3.0687,3.0043,2.9442,2.8757,2.8094,2.76,2.76,2.76,2.76,2.76,2.76,2.739,2.6731,2.6318,2.6093,2.6093,2.554,2.4871,2.4231,2.387,2.3405,2.2725,2.2651,2.2651,2.2651,2.2651,2.2651,2.2651,2.2651,2.2651,2.2651,2.2651,2.2651,2.2651,2.2651,2.2651,2.2651,2.2651,2.2651,2.2651,2.2651,2.2664,0.0,0.0,0.0,0.0,0.0,0.0,0.0,4.1564,4.1564,4.1564,4.1669,4.1923,4.25,4.259,4.2716,4.32,4.329,4.329,4.329,4.329,4.329,4.329,4.329,4.329,4.329,4.329,4.329,4.329,4.329,4.329,4.329,4.2716,4.2096,4.1399,4.0741,4.0083,3.9388,3.9388,3.9388,3.9388,3.929,3.8856,3.8182,3.7524,3.6881,3.6267,3.5729,3.5504,3.5489,3.5355,3.531,3.5235,3.4562,3.4622,3.504,3.4352,3.3769,3.3215,3.2557,3.1944,3.1511,3.1511,3.1511,3.1511,3.1511,3.1511,3.1511,3.1511,3.1406,3.1152,3.0507,2.9864,2.922,2.8562,2.8004,2.76,2.76,2.76,2.76,2.76,2.76,2.7345,2.6527,2.5959,2.557,2.5435,2.4829,2.441,2.441,2.3939,2.3595,2.3595,2.3595,2.3595,2.3595,2.3595,2.3595,2.3595,2.3595,2.3595,2.3595,2.3595,2.3595,2.3595,2.3595,2.3595,2.3595,2.3595,2.3595,2.3595,2.3595,2.3393,4.107,4.0397,4.0531,4.113,4.1324,4.1572,0.0,4.2291,4.2291,4.2291,4.2716,4.3095,4.317,4.3185,4.32,4.329,4.329,4.329,4.329,4.329,4.329,4.329,4.329,4.329,4.329,4.329,4.329,4.329,4.329,4.329,4.329,4.2716,4.2096,4.1399,4.0741,4.0083,3.9388,3.9388,3.9388,3.9373,3.8796,3.8153,3.7494,3.6866,3.6237,3.5609,3.5534,3.5504,3.5459,3.4846,3.4623,3.4563,3.3858,3.3649,3.3634,3.2976,3.2691,3.2527,3.1839,3.157,3.1511,3.1511,3.1511,3.1511,3.1511,3.1511,3.1511,3.1511,3.1062,3.0477,2.9849,2.9205,2.8532,2.7869,2.7645,2.76,2.76,2.76,2.76,2.76,2.76,2.721,2.5929,2.5659,2.5397,2.4799,2.4126,2.3714,2.3714,2.3655,2.3595,2.3595,2.3595,2.3595,2.3595,2.3595,2.3595,2.3595,2.3595,2.3595,2.3595,2.3595,2.3595,2.3595,2.3595,2.3595,2.3595,2.3595,2.3595,2.3595,2.3595,2.388,4.1369,4.1519,4.2073,4.2021,4.2521,4.306,4.2955,4.2925,4.2925,4.2925,4.3135,4.329,4.329,4.329,4.329,4.329,4.329,4.329,4.329,4.329,4.329,4.329,4.329,4.329,4.329,4.329,4.329,4.329,4.329,4.3125,4.2776,4.2186,4.1527,4.0831,4.0172,3.9694,3.9388,3.9388,3.9215,3.8811,3.8527,3.7853,3.6866,3.6611,3.6133,3.5504,3.5504,3.528,3.4891,3.4623,3.4498,3.4424,3.3752,3.3493,3.3419,3.275,3.2512,3.2392,3.1735,3.1511,3.1511,3.1511,3.1511,3.1511,3.1511,3.1511,3.1511,3.1511,3.1255,3.0872,3.0273,2.9894,2.9495,2.8818,2.8662,2.8662,2.8662,2.8662,2.8662,2.8662,2.8662,2.821,2.6838,2.6604,2.6209,2.5119,2.4189,2.3595,2.3595,2.3595,2.3595,2.3595,2.3595,2.3595,2.3595,2.3595,2.3595,2.3595,2.3595,2.3595,2.3595,2.3595,2.3595,2.3595,2.3595,2.3595,2.3595,2.3595,2.3595,2.3595,2.3595,2.3759,4.1767,4.2476,4.3269,4.297,4.3748,4.4466,4.3947,4.3828,4.3828,4.3828,4.3678,4.3559,4.3559,4.3409,4.329,4.329,4.329,4.329,4.329,4.329,4.329,4.329,4.329,4.329,4.329,4.329,4.329,4.329,4.329,4.3045,4.2425,4.1767,4.107,4.0427,3.9768,3.9388,3.9388,3.923,3.8886,3.8392,3.8033,3.7375,3.6477,3.6297,3.6069,3.5814,3.5814,3.5532,3.508,3.4912,3.4691,3.4454,3.3782,3.3545,3.349,3.2977,3.2693,3.2474,3.2188,3.2076,3.2076,3.2076,3.2076,3.2076,3.2076,3.2076,3.2031,3.182,3.1593,3.1275,3.0645,3.0298,2.9984,2.9534,2.9406,2.9406,2.9406,2.9406,2.9406,2.9406,2.9406,2.8958,2.7534,2.7294,2.6814,2.541,2.4552,2.4032,2.4032,2.4032,2.4032,2.4032,2.4032,2.4032,2.4032,2.4032,2.4032,2.4032,2.4032,2.397,2.3837,2.3815,2.3752,2.3595,2.3595,2.3595,2.3595,2.3595,2.3595,2.3595,2.3595,2.3595,4.2201,4.289,4.3524,4.4107,4.4766,4.5259,4.5244,4.5229,4.5229,4.5229,4.4721,4.4287,4.4287,4.3723,4.329,4.329,4.329,4.329,4.329,4.329,4.329,4.329,4.329,4.329,0.0,4.329,4.329,4.329,4.329,4.3045,4.2425,4.1767,4.107,4.0427,3.9768,3.9388,3.9388,3.8751,3.8407,3.8377,3.7135,3.6522,3.6462,3.5833,3.591,3.6584,3.6584,3.6603,3.6573,3.5931,3.5229,3.451,3.386,3.3588,3.3588,3.3563,3.3177,3.2699,3.3313,3.3531,3.3531,3.3531,3.3531,3.3531,3.3531,3.3531,3.3403,3.2656,3.2004,3.1318,3.0584,2.992,2.9438,2.9406,2.9406,2.9406,2.9406,2.9406,2.9406,2.9406,2.9406,2.8958,2.7534,2.7294,2.6814,2.541,2.5182,2.5163,2.5163,2.5163,2.5163,2.5163,2.5163,2.5163,2.5163,2.5163,2.5163,2.5163,2.5163,2.493,2.441,2.4369,2.4137,2.3595,2.3595,2.3595,2.3595,2.3595,2.3595,2.3595,2.3595,2.3595,4.2836,4.3808,4.4706,4.4915,4.5484,4.5858,4.5394,4.5289,4.517,4.4736,4.4137,4.3569,4.3105,4.2836,4.2686,4.2686,4.3045,4.329,4.329,4.329,4.329,4.329,4.329,0.0,0.0,0.0,0.0,4.329,4.294,4.2402,4.1782,4.1085,4.0427,3.9768,3.9529,3.9388,3.9388,3.8736,3.8167,3.7719,3.6447,3.6082,3.6549,3.632,3.6661,3.7365,3.6861,3.6419,3.597,3.5251,3.4836,3.4578,3.4358,3.426,3.4309,3.4752,3.4496,3.3887,3.3684,3.3582,3.3582,3.3582,3.3582,3.3582,3.3582,3.3582,3.3454,3.2716,3.2305,3.1945,3.1189,3.0793,3.058,3.058,3.058,3.058,3.058,3.058,3.058,3.058,3.058,3.0115,2.8688,2.8439,2.7923,2.6426,2.5635,2.5202,2.5202,2.5202,2.5202,2.5202,2.5202,2.5202,2.5202,2.5202,2.5202,2.5202,2.5202,2.5125,2.495,2.4914,2.4851,2.4672,2.4657,2.4657,2.4657,2.4657,2.4657,2.4657,2.4657,2.4907,4.3793,4.4825,4.5723,4.5948,4.6352,4.6561,4.6112,4.5828,4.5544,4.5125,4.4152,4.324,4.2791,4.2366,4.2126,4.2366,4.2716,4.306,4.326,4.329,4.329,4.329,4.329,4.329,0.0,0.0,0.0,4.2985,4.2635,4.2006,4.107,4.0621,4.0098,3.9403,3.9388,3.9269,3.905,3.8377,3.774,3.7122,3.6288,3.629,3.7024,3.7024,3.7313,3.7773,3.7305,3.6697,3.6048,3.5575,3.5202,3.4965,3.4965,3.4965,3.5005,3.543,3.5339,3.4894,3.4471,3.4325,3.4325,3.4325,3.4325,3.4325,3.4325,3.4325,3.4105,3.3101,3.2807,3.2519,3.1523,3.123,3.119,3.119,3.119,3.119,3.119,3.119,3.119,3.119,3.119,3.0717,2.9247,2.8536,2.7842,2.686,2.6141,2.5746,2.5746,2.5746,2.5746,2.5746,2.5746,2.5746,2.5746,2.5746,2.5746,2.5746,2.5746,2.5654,2.5486,2.5503,2.5392,2.5186,2.5202,2.5202,2.5202,2.5202,2.5202,2.5202,2.5202,2.5605,4.5005,4.5843,4.6516,4.7145,4.7279,4.7249,4.7292,4.6783,4.6289,4.6259,4.4687,4.3309,4.3245,4.2276,4.1693,4.2368,4.2526,4.2805,4.3382,4.3433,4.3433,0.0,0.0,0.0,0.0,0.0,0.0,4.2351,0.0,4.1752,4.0472,4.0367,4.0068,3.9403,3.9394,3.905,3.8407,3.7738,3.717,3.6661,3.6661,3.7084,3.7863,3.7863,3.7845,3.7854,3.7821,3.7428,3.6795,3.6761,3.6282,3.56,3.56,3.56,3.56,3.56,3.56,3.56,3.56,3.56,3.56,3.56,3.56,3.56,3.56,3.56,3.5295,3.3863,3.3457,3.3119,3.163,3.1258,3.1241,3.1207,3.119,3.119,3.119,3.119,3.119,3.119,3.1157,3.07,2.9297,2.7791,2.6759,2.6759,2.6725,2.6691,2.6691,2.6691,2.6691,2.6691,2.6691,2.6691,2.6691,2.6691,2.6691,2.6691,2.6691,2.6487,2.605,2.6049,2.5799,2.5297,2.5278,2.5278,2.5278,2.5278,2.5278,2.5278,2.5278,2.5699,4.5828,4.6546,4.71,4.7264,4.6935,4.6758,4.742,4.7088,4.6459,4.5953,4.4672,4.3441,4.2752,4.2522,4.2658,4.3319,4.4455,0.0,4.5441,4.5473,0.0,4.5473,4.4856,4.4412,4.4412,4.3181,0.0,0.0,4.1175,4.0756,4.0412,3.9933,3.9589,3.9424,3.8916,3.8571,3.8392,3.7834,3.7514,3.7485,3.7485,3.7876,3.8635,3.8635,3.8652,3.8648,3.811,3.7468,3.6761,3.6146,3.5785,3.56,3.56,3.56,3.56,3.56,3.56,3.56,3.56,3.56,3.56,3.56,3.56,3.56,3.56,3.56,3.5397,3.4489,3.4218,3.388,3.2412,3.2022,3.1887,3.1326,3.119,3.119,3.119,3.119,3.119,3.119,3.0768,3.026,2.9888,2.8534,2.7519,2.7519,2.7046,2.6691,2.6691,2.6691,2.6691,2.6691,2.6691,2.6691,2.6691,2.6691,2.6691,2.6691,2.6691,2.6657,2.6539,2.6505,2.6453,2.6315,2.6315,2.6315,2.6315,2.6315,2.6315,2.6315,2.6315,2.7034,4.6576,4.7025,4.7234,4.695,4.69,4.6791,4.6331,4.6284,4.5984,4.455,4.3541,4.271,4.2193,4.2258,4.2716,4.3757,4.4948,4.5856,4.6176,4.6208,4.6208,0.0,4.5742,0.0,4.4849,4.3446,4.2393,0.0,4.1016,4.0431,4.0532,4.0152,3.9818,3.953,3.9496,3.9205,3.8571,3.7997,3.788,3.8274,3.8274,3.8679,3.9437,3.9437,3.9277,3.8954,0.0,3.7483,3.6745,3.5943,3.56,3.56,3.56,3.56,3.56,3.56,3.56,3.56,3.56,3.56,3.56,3.56,3.56,3.56,3.56,3.56,3.5447,3.4709,3.4489,3.4218,3.3068,3.2547,3.2192,3.1785,3.1427,3.119,3.119,3.119,3.119,3.119,3.0598,3.0108,3.0108,2.911,2.8332,2.8332,2.7672,2.7182,2.7182,2.6894,2.6691,2.6691,2.6691,2.6691,2.6691,2.6691,2.6691,2.6691,2.6691,2.6691,2.6691,2.6691,2.6691,2.6691,2.6691,2.6691,2.6691,2.6691,2.6691,2.6725,2.7029,2.7841,4.7145,4.7309,4.7145,4.6486,4.695,4.7004,4.4856,4.5241,4.5433,4.3099,4.2319,4.2037,4.1992,4.2166,4.2748,4.4193,4.5135,4.5898,4.6477,4.6558,4.6558,4.6558,4.6454,4.6051,4.5102,4.3769,4.2903,4.2769,4.1418,4.0705,4.0842,4.0878,4.0536,3.9757,4.0325,4.0031,3.8822,3.8226,3.8302,3.9059,3.9059,3.9437,4.0096,4.0096,3.9706,3.8954,3.8328,3.7635,3.6897,3.6096,3.5752,3.5735,3.5633,3.56,3.56,3.56,3.56,3.56,3.56,3.56,3.56,3.56,3.56,3.56,3.56,3.56,3.5464,3.4827,3.4641,3.4472,3.3744,3.3,3.2429,3.2327,3.1752,3.119,3.119,3.119,3.119,3.119,3.0683,3.026,3.026,2.9634,2.9145,2.9145,2.8467,2.7925,2.7824,2.7165,2.6691,2.6691,2.6691,2.6691,2.6691,2.6691,2.6691,2.6691,2.6691,2.6691,2.6691,2.6691,2.6691,2.6691,2.6691,2.6691,2.6691,2.6691,2.6742,2.686,2.7503,2.828,4.7279,4.7309,4.7145,4.6486,4.66,4.6492,4.5026,4.5607,4.5928,4.4156,4.3861,4.3847,4.3637,4.43,4.5129,4.5947,4.7351,4.8394,4.8497,4.8497,4.8497,0.0,4.7836,4.7043,4.6289,4.4793,0.0,0.0,4.2195,4.1736,4.1772,4.1756,4.1183,3.9925,3.9396,3.9079,3.8887,3.8783,3.9113,3.9901,3.9901,3.9952,4.0096,4.0096,3.9706,3.8988,3.8853,0.0,3.7652,3.6891,3.6586,3.6541,3.5853,3.56,3.56,3.56,3.56,3.56,3.56,3.56,3.56,3.56,3.56,3.56,3.56,3.56,3.5566,3.5447,3.5397,3.525,3.4489,3.3761,3.3051,3.2446,3.1752,3.119,3.119,3.119,3.119,3.119,3.1089,3.1004,3.1004,3.0395,2.9922,2.9922,2.9262,2.8552,2.7891,2.7165,2.6691,2.6691,2.6691,2.6691,2.6691,2.6691,2.6691,2.6691,2.6691,2.6691,2.6691,2.6691,2.6691,2.6691,2.6691,2.6691,2.6691,2.6691,2.7012,2.7604,2.7739,2.8551,4.7309,4.7309,4.707,4.6037,4.625,4.6059,4.3602,4.4535,4.5244,4.2829,4.3138,4.3793,4.3667,4.4358,4.5189,4.5974,4.7073,4.7986,4.8376,4.8443,4.8578,4.8951,4.8608,4.7846,4.6601,4.5505,4.4513,4.3734,4.3051,4.2676,4.2676,4.1977,4.1262,4.06,3.945,3.9078,3.9516,3.9516,3.9731,4.0096,4.0096,4.0096,4.0096,4.0096,3.991,3.9554,3.9157,3.8582,3.7838,3.7117,3.6535,3.6146,3.5752,3.56,3.56,3.56,3.56,3.56,3.56,3.56,3.56,3.56,3.56,3.56,3.56,3.56,3.56,3.56,3.56,3.5515,3.5165,3.4252,3.3322,3.2949,3.2019,3.119,3.119,3.119,3.119,3.119,3.119,3.119,3.119,3.0903,3.0666,3.0666,3.004,2.9431,2.9041,2.8349,2.7588,2.6776,2.6691,2.6691,2.6691,2.6691,2.6691,2.6691,2.6691,2.6691,2.6691,2.6691,2.6691,2.6691,2.708,2.7283,2.7283,2.7689,2.8096,2.8433,2.8822,2.9379,4.7264,4.7309,4.698,4.5618,4.6006,4.5772,4.222,4.334,4.4318,4.1563,4.2221,4.3366,4.3532,4.4172,4.4897,4.56,4.6312,4.7056,4.7817,4.7889,4.8159,4.8917,4.9001,0.0,4.6723,4.6109,0.0,4.4442,4.3727,4.3313,4.3313,4.2128,4.1349,4.1195,3.9874,3.9463,4.0096,4.0096,4.0096,4.0096,4.0096,4.0028,3.9859,3.9859,3.9791,3.9605,3.9005,3.8447,3.7838,3.7117,3.6417,3.5836,3.5667,3.56,3.56,3.56,3.56,3.56,3.56,3.56,3.56,3.56,3.56,3.56,3.56,3.56,3.56,3.56,3.56,3.56,3.56,3.4501,3.3322,3.3,3.2036,3.119,3.119,3.119,3.119,3.119,3.119,3.119,3.119,3.119,3.119,3.119,3.0717,3.0294,3.0125,2.9583,2.8722,2.7351,2.7029,2.686,2.6708,2.6691,2.6691,2.6691,2.6691,2.6776,2.6928,2.6945,2.7012,2.7182,2.7774,2.806,2.806,2.8687,2.9077,2.9264,2.9837,3.0173,4.7145,4.7309,4.698,4.5618,4.6006,4.5772,4.222,4.2843,4.376,4.2188,4.2645,4.3532,4.4327,4.5093,4.5616,4.5674,4.6312,4.7056,4.7817,4.7889,4.8159,4.8917,0.0,0.0,4.6933,4.6731,4.6106,4.4688,4.3833,4.3394,4.3394,4.2618,4.1895,4.1238,4.0408,4.002,4.0096,4.0096,4.0096,4.0096,4.0096,3.9757,3.9089,3.9089,3.8734,3.8108,3.8041,3.7973,0.0,3.7117,3.6761,3.6626,3.5893,3.56,3.56,3.56,3.56,3.56,3.56,3.56,3.56,3.56,3.56,3.56,3.56,3.56,3.56,3.56,3.56,3.56,3.56,3.4501,3.3068,3.1715,3.1292,3.119,3.119,3.119,3.119,3.119,3.119,3.119,3.119,3.119,3.119,3.119,3.114,3.0852,3.0192,3.004,2.9685,2.8874,2.8129,2.7418,2.6759,2.6691,2.6691,2.6691,2.6691,2.6996,2.7672,2.7705,2.8027,2.8773,2.8857,2.8891,2.8891,2.8959,2.933,3.0006,3.0074,3.0463,4.6531,4.6711,4.6486,4.5529,4.5303,4.4597,4.1993,4.237,4.2874,4.1496,4.2332,4.3413,4.3756,4.4505,4.5026,4.5026,4.5263,4.572,4.6481,4.6599,4.7022,4.8206,4.7953,4.7445,0.0,0.0,4.5517,4.3995,4.3589,4.3003,4.2108,4.1796,4.1305,4.0544,4.0265,4.0096,4.0096,4.0096,3.9893,3.9453,3.9453,3.9039,3.8345,3.8345,3.8176,3.7905,3.7905,3.7652,0.0,3.6931,3.6502,3.6045,3.5718,3.56,3.56,3.56,3.56,3.56,3.56,3.56,3.56,3.56,3.56,3.56,3.56,3.56,3.56,3.56,3.56,3.56,3.56,3.4501,3.3034,3.1546,3.119,3.119,3.119,3.119,3.119,3.119,3.119,3.119,3.119,3.119,3.119,3.119,3.119,3.1089,3.0801,3.0768,3.048,2.9736,2.8551,2.7672,2.7384,2.6962,2.6894,2.7317,2.735,2.7723,2.8484,2.8518,2.867,2.8993,2.9431,2.9651,2.9651,3.0127,3.048,3.0768,3.0768,3.092,4.5783,4.6022,4.5858,4.517,4.4511,4.3569,4.1788,4.1713,4.1848,4.1195,4.2062,4.3078,4.3591,4.4196,4.4615,4.4615,4.4615,4.4869,4.5602,4.5703,4.6177,4.7445,0.0,4.6701,4.6498,4.5602,4.4485,4.3183,4.2878,4.2219,4.0933,4.0865,4.0629,4.013,4.0096,4.0096,4.0096,3.9893,3.952,3.8988,3.8768,3.8294,3.7567,3.7567,3.7449,3.7205,3.7205,3.6941,0.0,3.6434,3.6113,3.56,3.56,3.56,3.56,3.56,3.56,3.56,3.56,3.56,3.56,3.56,3.5694,3.5849,3.5849,3.5717,3.56,3.56,3.56,3.5498,3.5059,3.4163,3.3034,3.1546,3.119,3.119,3.119,3.119,3.119,3.119,3.119,3.119,3.119,3.119,3.119,3.119,3.119,3.119,3.119,3.119,3.1004,3.048,2.9261,2.8382,2.8162,2.7672,2.7604,2.8111,2.8145,2.8518,2.9279,2.9331,2.9433,2.9653,3.0159,3.0429,3.0429,3.0954,3.119,3.119,3.119,3.119,4.4945,4.5304,4.5155,4.4481,4.3798,4.2961,4.1683,4.0876,4.0719,4.1752,4.1997,4.2536,4.4281,4.4598,4.4615,4.4615,4.4615,4.4869,4.5602,4.5703,4.5974,4.6718,4.6786,4.6498,4.5788,4.4333,4.3115,4.2354,4.1644,0.0,4.0146,4.0113,4.0113,4.0096,4.0096,4.0096,4.0096,3.9377,3.9005,3.8988,3.8261,3.7533,3.6812,3.6812,3.6366,3.5616,3.5616,3.5616,0.0,3.5616,3.56,3.56,3.56,3.56,3.56,3.56,3.56,3.56,3.56,3.56,3.56,3.56,3.5963,3.6374,3.6374,3.6028,3.56,3.56,3.56,3.5261,3.3791,3.3423,3.3034,3.1546,3.119,3.119,3.119,3.119,3.119,3.119,3.119,3.119,3.119,3.119,3.119,3.119,3.119,3.119,3.119,3.119,3.119,3.119,3.0531,2.9786,2.9044,2.8976,2.8976,2.8993,2.8993,2.9331,3.0074,3.0091,3.0429,3.1157,3.1173,3.119,3.119,3.119,3.119,3.119,3.119,3.119,4.3099,4.3324,4.3279,4.3069,4.2491,4.1773,4.0905,4.1016,4.1243,4.1135,4.2062,4.3078,4.3621,4.4196,4.4784,4.5263,4.4925,4.4869,4.5602,4.5263,4.5213,4.5957,4.6058,4.5551,0.0,0.0,4.2895,4.1644,4.1339,4.0882,4.0146,4.0096,4.0096,4.0096,4.0096,4.0096,4.0096,3.9385,3.8751,3.8244,3.7499,3.6738,3.5994,3.5994,3.5836,3.56,3.56,3.56,3.56,3.56,3.56,3.56,3.56,3.56,3.56,3.56,3.56,3.56,3.56,3.56,3.565,3.6032,3.6266,3.6478,3.6843,3.6843,3.6623,3.6249,3.5876,3.5261,3.3774,3.3406,3.3034,3.1546,3.119,3.119,3.119,3.119,3.119,3.119,3.119,3.119,3.119,3.119,3.119,3.119,3.119,3.119,3.119,3.119,3.119,3.119,3.0987,3.0548,2.9803,2.9297,2.923,2.9719,2.9753,3.0074,3.0818,3.0852,3.0954,3.119,3.119,3.119,3.119,3.119,3.119,3.119,3.119,3.1461,4.1782,4.2036,4.2036,4.2036,4.1527,4.0905,4.0502,4.0868,4.1286,4.1207,4.2332,4.3396,4.3726,4.4224,4.4767,4.5213,4.4919,4.4767,4.5213,4.4902,4.4784,4.5229,4.528,0.0,0.0,4.3166,4.2506,4.1288,4.0933,4.0578,4.013,4.0096,4.0096,4.0096,3.9842,3.969,3.969,3.8691,3.7922,3.7483,3.6705,3.6079,3.56,3.56,3.56,3.56,3.56,3.56,0.0,3.56,3.56,3.56,3.56,3.56,3.56,3.56,3.56,3.56,3.56,3.5739,3.5963,3.6287,3.6664,3.7078,3.7596,3.7506,3.7133,3.6803,3.646,3.5821,3.4138,3.3811,3.3456,3.1627,3.1329,3.1372,3.123,3.119,3.119,3.119,3.119,3.119,3.119,3.119,3.119,3.119,3.119,3.119,3.119,3.119,3.119,3.119,3.119,3.1004,3.0548,3.0091,3.0023,3.0497,3.0531,3.0717,3.1173,3.119,3.119,3.119,3.119,3.119,3.119,3.119,3.1326,3.1633,3.1633,3.2002,0.0,4.125,4.125,4.125,4.0786,4.0337,4.0337,4.0573,0.0,4.1836,4.2738,4.3651,4.4457,4.4615,4.4632,4.4682,4.4632,4.4632,4.4682,4.4632,4.4615,4.4615,4.4615,4.4248,4.3392,4.2709,4.1965,4.1187,4.0476,4.0096,4.0096,4.0096,4.0096,4.0096,3.9326,3.8937,3.8988,3.7557,3.6795,3.6795,3.5994,3.56,3.56,3.56,3.56,0.0,3.56,3.56,3.56,3.56,3.56,3.56,3.56,3.56,3.56,3.56,3.56,3.56,3.5627,3.5968,3.6416,3.6478,3.7155,3.8048,3.8546,3.8016,3.7248,3.7248,3.7228,3.6761,3.483,3.4564,3.4234,3.1933,3.1617,3.1751,3.137,3.1269,3.1252,3.1291,3.1249,3.121,3.1249,3.121,3.119,3.119,3.119,3.119,3.119,3.119,3.119,3.119,3.119,3.119,3.119,3.119,3.119,3.119,3.119,3.119,3.119,3.119,3.119,3.119,3.119,3.119,3.119,3.1241,3.1633,3.2293,3.2344,3.2763,3.9798,0.0,3.9888,3.9888,3.9768,3.9649,0.0,4.0693,4.1756,4.1965,4.3213,4.4355,4.4542,4.4615,4.4801,4.5348,4.4987,4.4818,4.5348,4.4942,4.4615,4.4615,4.4615,4.4073,4.2692,4.2388,4.1745,4.0468,4.0197,4.0096,4.0096,4.0096,4.0096,4.0096,3.8836,3.843,3.8988,3.7557,3.6795,3.6795,3.5994,3.56,3.56,3.56,3.56,3.56,3.56,3.56,3.56,3.56,3.56,3.56,3.56,3.56,3.56,3.56,3.56,3.565,3.6075,3.6291,3.6539,3.7286,3.7981,3.8546,3.8658,3.8251,3.7737,3.7737,3.747,3.696,3.5858,3.5189,3.4518,3.3371,3.2721,3.2316,3.2213,3.1897,3.177,3.2109,3.1657,3.131,3.1621,3.1391,3.119,3.119,3.119,3.119,3.119,3.119,3.119,3.119,3.119,3.119,3.119,3.119,3.119,3.119,3.119,3.119,3.119,3.119,3.119,3.119,3.119,3.119,3.119,3.1769,3.2141,3.231,3.2882,3.3541,3.9388,3.9388,3.9388,3.9388,3.9388,3.9517,3.99,4.1028,4.2125,4.252,4.3663,4.4615,4.4615,4.4615,4.4733,4.5128,4.484,4.475,4.5128,4.4869,4.4615,4.4615,4.4615,4.4005,0.0,4.2286,4.1677,4.0214,4.0096,4.0096,4.0096,4.0096,4.0096,4.0096,3.8667,3.8091,3.8481,3.6992,3.6248,3.6231,3.5825,3.56,3.56,3.56,3.56,3.56,3.56,3.56,3.56,3.56,3.56,3.56,3.56,3.56,3.5644,3.5876,3.5963,3.6032,3.6583,3.6904,3.7229,3.8015,3.8465,3.8707,3.8707,3.8515,3.8267,3.8267,3.8083,3.7663,3.6629,3.5925,3.5202,3.3981,3.3249,3.2761,3.255,3.2316,3.2213,3.2451,3.195,3.1545,3.1805,3.1504,3.119,3.119,3.119,3.119,3.119,3.119,3.119,3.119,3.119,3.119,3.119,3.119,3.119,3.119,3.119,3.119,3.119,3.119,3.119,3.119,3.1532,3.1698,3.1718,3.2462,3.2966,3.3326,3.3711,3.4303,3.9388,3.9517,3.9574,3.9409,3.9517,3.9793,4.0535,4.1478,4.2426,4.3139,4.4006,4.4615,4.4615,4.4615,4.4649,4.4767,4.4784,4.4733,4.4632,4.4615,4.4615,4.4615,4.4615,0.0,4.2439,4.2286,4.1677,4.0214,4.0096,4.0096,4.0096,4.0096,4.0045,3.9943,3.8616,3.7855,3.7736,3.6309,3.56,3.56,3.56,3.56,3.56,3.56,3.56,3.56,0.0,0.0,3.56,3.56,3.56,3.56,3.56,3.5667,3.5783,3.6224,3.6457,3.66,3.7116,3.7614,3.8099,3.8546,3.8707,3.8707,3.8707,3.8707,3.8707,3.8707,3.8707,3.8447,3.7366,3.6778,3.6083,3.4494,3.3784,3.3343,3.2811,3.2648,3.2632,3.2697,3.2264,3.195,3.2091,3.1656,3.1291,3.1291,3.1249,3.1241,3.1343,3.136,3.141,3.1512,3.1529,3.1529,3.1529,3.1427,3.141,3.1529,3.1309,3.119,3.119,3.1309,3.136,3.136,3.209,3.2479,3.2479,3.3203,3.3897,3.4489,3.4607,3.5013,3.9388,3.992,4.0343,3.9574,3.9955,4.0535,4.069,4.1933,4.3139,4.3276,4.4006,4.4615,4.4615,4.4615,4.4818,4.5432,4.5534,4.5314,4.4699,4.4615,4.4615,4.4615,0.0,4.4005,4.2439,4.2286,4.1677,4.0214,4.0096,4.0096,4.0096,4.0096,3.9808,3.9174,3.8345,3.7601,3.6981,3.6062,3.56,3.56,3.56,3.56,3.56,3.56,3.56,3.56,0.0,3.56,3.56,3.56,3.56,3.56,3.56,3.5876,3.6287,3.6354,3.6684,3.7152,3.7632,3.815,3.8578,3.8658,3.8707,3.8707,3.8707,3.8707,3.8707,3.8707,3.8707,3.8655,3.8465,3.7854,3.7077,3.6135,3.5294,3.4521,3.3752,3.3332,3.3181,3.3518,3.295,3.2534,3.2937,3.2281,3.1715,3.1715,3.1411,3.143,3.2056,3.2141,3.2378,3.3,3.3068,3.3068,3.3068,3.2476,3.2412,3.3034,3.1884,3.119,3.119,3.1802,3.2141,3.2141,3.2848,3.3237,3.3237,3.3964,3.4387,3.4506,3.5148,3.5481,3.9955,4.0397,4.0802,4.1277,4.1395,4.1543,4.1997,4.2707,4.3426,4.3919,4.4327,4.4615,4.4615,4.4925,4.5432,4.616,4.5957,4.5585,4.5229,4.4869,4.4615,4.4615,0.0,4.3521,4.2405,4.1931,4.1255,4.018,4.0096,4.0096,4.0096,3.9723,3.9368,3.9005,3.7889,3.7127,3.6795,3.6011,3.56,3.56,3.56,3.56,3.56,3.56,3.56,3.56,0.0,3.5761,3.6028,3.5717,3.5924,3.644,3.6161,3.6354,3.6845,3.7135,3.7542,3.8033,3.8251,3.8496,3.8707,3.8707,3.8707,3.8707,3.8707,3.8707,3.8707,3.8707,3.8707,3.8707,3.8707,3.7771,3.6868,3.6942,3.5624,3.4362,3.4417,3.3963,3.3578,3.3762,3.3299,3.2952,3.3169,3.3002,3.2739,3.2503,3.2869,3.3231,3.3321,3.3333,3.3451,3.3811,3.3577,3.3406,3.3406,3.3085,3.2865,3.2797,3.2544,3.2391,3.2391,3.2713,3.2882,3.2882,3.3609,3.3981,3.3998,3.4726,3.5098,3.5115,3.543,3.56,4.0535,4.1013,4.1588,4.2848,4.2719,4.257,4.3596,4.3836,4.4085,4.4929,4.4987,4.4869,4.4869,4.5449,4.6024,4.6244,4.6092,4.5838,4.5483,4.4942,4.4615,4.4615,4.3893,4.3115,4.2371,4.1627,4.0882,4.0163,4.0096,4.0028,3.9859,3.9292,3.8836,3.8481,3.7405,3.6711,3.6502,3.591,3.56,3.56,3.56,3.56,3.56,3.56,3.5672,3.5783,3.5783,3.6097,3.656,3.6143,3.646,3.7171,3.6744,3.6921,3.7415,3.7911,3.835,3.8707,3.8707,3.8707,3.8707,3.8707,3.8707,3.8707,3.8707,3.8707,3.8707,3.8707,3.8707,3.8707,3.8707,3.779,3.6964,3.7401,3.606,3.478,3.5206,3.4816,3.4321,3.4119,3.4006,3.3854,3.3658,3.3914,3.4019,3.3669,3.4359,3.4818,3.466,3.462,3.469,3.4882,3.4421,3.3994,3.3677,3.3829,3.3592,3.2869,3.3169,3.3406,3.3406,3.3575,3.366,3.366,3.4387,3.4759,3.4759,3.5312,3.56,3.56,3.56,3.56,4.0675,4.1901,4.3125,4.3281,4.3248,4.3575,4.5032,4.5434,4.5747,4.6498,4.6092,4.5618,4.5618,4.621,4.6278,4.4987,4.5855,4.6227,4.4886,4.4632,4.4615,4.4615,4.3893,4.3115,4.2371,4.1627,4.0882,4.0163,4.0096,3.9808,3.9106,3.9022,3.8362,3.6998,3.6863,3.6434,3.5684,3.5616,3.56,3.56,3.56,3.56,3.56,3.56,3.5876,3.6333,3.6333,3.6643,3.7152,3.7097,3.7116,3.7209,3.7171,3.7433,3.7911,3.8449,3.8676,3.8707,3.8707,3.8707,3.8707,3.8707,3.8707,3.8707,3.8707,3.8707,3.8707,3.8707,3.8707,3.8707,3.8707,3.8615,3.8358,3.7658,3.7364,3.7052,3.6358,3.6156,3.5881,3.5078,3.554,3.5819,3.4999,3.52,3.5457,3.5425,3.5112,3.5137,3.5792,3.5862,3.6163,3.6887,3.6489,3.5714,3.4515,3.5064,3.5126,3.4387,3.3744,3.3406,3.3406,3.4066,3.4421,3.4421,3.5165,3.5515,3.5515,3.5566,3.56,3.56,3.56,3.56,4.0683,4.1702,4.2864,4.386,4.4109,4.4361,4.5412,4.5669,4.5906,4.665,4.6583,4.638,4.638,4.6244,4.6075,4.5974,4.6041,4.5923,4.5348,4.4468,4.3859,4.3859,4.2777,4.1931,4.1644,4.095,4.0417,4.013,3.969,3.9276,3.9005,3.8125,3.7388,3.6829,3.6315,3.591,3.56,3.56,3.56,3.56,3.56,3.56,3.56,3.56,3.5898,3.6395,3.6395,3.6865,3.7614,3.7323,3.756,3.8135,3.8135,3.8234,3.8415,3.8627,3.8707,3.8707,3.8707,3.8707,3.8707,3.8707,3.8707,3.8707,3.8707,3.8707,3.8707,3.8707,3.8707,3.8707,3.8707,3.8322,3.7991,3.8193,3.7477,3.6813,3.6997,3.6652,3.6193,3.5881,3.6064,3.6193,3.5881,3.6351,3.6677,3.6336,3.6836,3.7235,3.7182,3.7183,3.7309,3.7596,3.6884,3.6061,3.526,3.543,3.5481,3.5194,3.4906,3.4771,3.4771,3.5047,3.5177,3.5177,3.5447,3.56,3.56,3.56,3.56,3.56,3.56,3.56,4.1146,4.213,4.321,4.4322,4.4784,4.5128,4.5872,4.6058,4.6329,4.7293,4.7107,4.6718,4.6498,4.6041,4.5788,4.6058,4.5872,4.5618,4.5382,4.4248,4.3392,4.3392,4.2117,4.1204,4.1204,4.0527,4.0096,4.0096,3.9436,3.8886,3.8667,3.7472,3.6694,3.6417,3.5893,3.56,3.56,3.56,3.56,3.56,3.5783,3.5854,3.5854,3.5854,3.6228,3.6865,3.6865,3.736,3.8133,3.7808,3.8066,3.8707,3.8707,3.8707,3.8707,3.8707,3.8707,3.8707,3.8707,3.8707,3.8707,3.8707,3.8707,3.8707,3.8707,3.8707,3.8707,3.8707,3.8707,3.8707,3.8707,3.8285,3.801,3.8579,3.7863,3.7202,3.7768,3.7441,3.6982,3.6725,3.6872,3.6982,3.6721,3.7364,3.7754,3.7384,3.8118,3.8562,3.82,3.8148,3.8032,3.7702,3.6904,3.6182,3.5644,3.56,3.56,3.56,3.56,3.56,3.56,3.56,3.56,3.56,3.56,3.56,3.56,3.56,3.56,3.56,3.56,3.56,4.213,4.3347,4.4581,4.4581,4.5128,4.5889,4.6616,4.6802,4.7208,4.8697,4.7817,4.6566,4.5838,4.5703,4.5449,4.4733,4.5213,4.5432,4.4699,4.391,4.3375,4.3375,4.2083,4.1187,4.1187,4.0536,4.0096,4.0096,3.9419,3.8667,3.7939,3.7178,3.6417,3.5616,3.56,3.56,3.56,3.56,3.56,3.56,3.6139,3.6395,3.6395,3.6412,3.6944,3.7893,3.7893,3.82,3.8707,3.8707,3.8707,3.8707,3.8707,3.8707,3.8707,3.8707,3.8707,3.8707,3.8707,3.8707,3.8707,3.8707,3.8707,3.8707,3.8707,3.8707,3.8707,3.8707,3.8689,3.8689,3.8689,3.8689,3.8689,3.8707,3.8689,3.8689,3.8689,3.8689,3.845,3.7658,3.8138,3.845,3.7658,3.8175,3.8707,3.8707,3.8707,3.8707,3.8707,3.8707,3.8318,3.7322,3.6724,3.6203,3.5644,3.56,3.56,3.56,3.56,3.56,3.56,3.56,3.56,3.56,3.56,3.56,3.56,3.56,3.56,3.56,3.56,3.56,4.0549,4.1766,4.2963,4.2963,4.435,4.5889,4.6616,4.7208,4.7716,4.8156,4.7479,4.6566,4.5838,4.528,4.4869,4.4649,4.4801,4.4637,4.3876,4.3098,4.2439,4.1914,4.1001,4.0434,4.0434,4.0231,3.9893,3.9385,3.8633,3.7905,3.7185,3.6383,3.5859,3.56,3.56,3.56,3.56,3.56,3.56,3.56,3.6139,3.6395,3.6416,3.6783,3.7304,3.7893,3.7893,3.82,3.8707,3.8707,3.8707,3.8707,3.8707,3.8707,3.8707,3.8707,3.8707,3.8707,3.8707,3.8707,3.8707,3.8707,3.8707,3.8707,3.8707,3.8707,3.8707,3.8707,3.8285,3.786,3.786,3.7441,3.7294,3.8432,3.8267,3.786,3.786,3.786,3.7786,3.7547,3.8138,3.8615,3.8395,3.8542,3.8707,3.8707,3.8707,3.8707,3.8707,3.8707,3.8318,3.7322,3.7076,3.6603,3.5672,3.56,3.56,3.56,3.56,3.56,3.56,3.56,3.56,3.56,3.56,3.56,3.56,3.56,3.56,3.56,3.56,3.56,4.1114,4.2221,4.32,4.32,4.4468,4.5889,4.6616,4.7378,4.7804,4.753,4.6887,4.6227,4.5788,4.5094,4.4615,4.4615,4.4316,4.3944,4.346,4.2523,4.1694,4.1255,4.0544,4.0096,4.0096,4.0096,3.9926,3.9462,3.8481,3.7719,3.7246,3.6214,3.56,3.56,3.56,3.56,3.56,3.56,3.5694,3.592,3.646,3.6823,3.702,3.7341,3.7755,3.8216,3.8216,3.8399,3.8707,3.8707,3.8707,3.8707,3.8707,3.8707,3.8707,3.8707,3.8707,3.8707,3.8707,3.8707,3.8652,3.8322,3.8212,3.8157,3.7845,3.7753,3.7808,3.812,3.7878,3.7566,3.7896,3.7382,3.7033,3.7991,3.7606,3.7199,3.7826,3.7731,3.7584,3.7915,3.8377,3.8707,3.8707,3.8707,3.8707,3.8707,3.8707,3.8707,3.8707,3.835,3.7861,3.7248,3.6805,3.6295,3.565,3.56,3.56,3.56,3.56,3.56,3.56,3.56,3.56,3.56,3.56,3.56,3.56,3.56,3.56,3.56,3.56,3.5769,4.2769,4.3826,4.4496,4.4496,4.5094,4.5889,4.6549,4.7268,4.7573,4.6866,4.6218,4.5755,4.5687,4.5196,4.4742,4.4674,4.4034,4.3498,4.3362,4.2164,4.1248,4.118,4.0544,4.0096,4.0096,4.0096,4.0079,4.0011,3.87,3.7872,3.7804,3.6394,3.56,3.56,3.56,3.56,3.56,3.5667,3.592,3.6412,3.6999,3.7488,3.7893,3.7946,3.8251,3.8707,3.8707,3.8707,3.8707,3.8707,3.8707,3.8707,3.8707,3.8707,3.8707,3.8707,3.8707,3.8707,3.8707,3.8652,3.8469,3.7749,3.7456,3.7254,3.6505,3.6303,3.645,3.718,3.7327,3.7437,3.8175,3.7771,3.718,3.7254,3.6707,3.6597,3.8157,3.79,3.7639,3.8432,3.8652,3.8707,3.8707,3.8707,3.8707,3.8707,3.8658,3.8627,3.8627,3.7791,3.7173,3.7116,3.6312,3.5739,3.5689,3.5717,3.5761,3.5761,3.5761,3.5761,3.5761,3.565,3.56,3.56,3.56,3.56,3.56,3.56,3.56,3.56,3.56,3.6045,4.1379,4.2642,4.3673,4.3673,4.4705,4.5737,4.5906,4.643,4.6715,4.6072,4.6174,4.6242,4.5656,4.5803,4.5804,4.5166,4.4938,4.4394,4.3185,4.2361,4.1667,4.1037,4.0446,4.0096,4.0096,4.0096,3.9859,3.9276,3.8413,3.7652,3.7083,3.6129,3.56,3.56,3.56,3.56,3.56,3.6028,3.6287,3.6395,3.7305,3.7807,3.7911,3.835,3.8578,3.8707,3.8707,3.8707,3.8707,3.8707,3.8707,3.8707,3.8707,3.8707,3.8707,3.8707,3.8707,3.8707,3.8707,3.8285,3.7731,3.7566,3.707,3.6523,3.634,3.6303,3.634,3.6505,3.6064,3.5573,3.5756,3.5202,3.4743,3.5389,3.5408,3.5555,3.6597,3.667,3.6813,3.7603,3.8267,3.8707,3.8707,3.8707,3.8707,3.8707,3.835,3.8065,3.8065,3.756,3.7057,3.662,3.6744,3.6684,3.6249,3.6623,3.6845,3.6845,3.6845,3.6845,3.6845,3.6054,3.56,3.56,3.56,3.56,3.56,3.56,3.56,3.56,3.56,3.6045,4.131,4.2566,4.3477,4.3876,4.457,4.5162,4.5162,4.5644,4.5995,4.5661,4.6083,4.6388,4.5985,4.6192,4.6141,4.5322,4.4898,4.4266,4.3059,4.2374,4.1786,4.1388,4.1082,4.0914,4.0914,4.0914,4.0618,3.9949,3.9141,3.8375,3.7706,3.6583,3.5968,3.5968,3.5968,3.5854,3.56,3.6395,3.6783,3.6783,3.7542,3.803,3.83,3.8562,3.8707,3.8707,3.8707,3.8707,3.8707,3.8707,3.8707,3.8707,3.8707,3.8707,3.8707,3.8707,3.8707,3.8652,3.8267,3.8102,3.7881,3.6688,3.6303,3.6156,3.5349,3.5092,3.5183,3.5569,3.5353,3.5096,3.55,3.5004,3.4582,3.5408,3.5004,3.489,3.6505,3.656,3.6652,3.7845,3.8414,3.8707,3.8707,3.8707,3.8707,3.8707,3.8465,3.8283,3.8283,3.7843,3.7433,3.7154,3.7173,3.7095,3.6803,3.7057,3.7209,3.7209,3.7209,3.7209,3.7209,3.6646,3.6357,3.6357,3.6118,3.6118,3.6357,3.5854,3.5739,3.5985,3.6129,3.6586,4.1169,4.244,4.3436,4.4378,4.4615,4.4615,4.4615,4.5169,4.5673,4.5673,4.6143,4.6571,4.6571,4.6557,4.6247,4.5446,4.468,4.3918,4.3113,4.2391,4.1958,4.1958,4.1874,4.181,4.181,4.181,4.1547,4.0896,4.0018,3.9218,3.859,3.7182,3.6395,3.6395,3.6395,3.6182,3.5739,3.6786,3.7323,3.7323,3.7808,3.8267,3.8707,3.8707,3.8707,3.8707,3.8707,3.8707,3.8707,3.8707,3.8707,3.8707,3.8707,3.8707,3.8707,3.8707,3.8707,3.8579,3.7786,3.7826,3.7918,3.572,3.5389,3.5605,3.4211,3.3807,3.3935,3.4619,3.4784,3.4949,3.5679,3.544,3.5188,3.5899,3.5128,3.4835,3.7033,3.6978,3.6927,3.8414,3.8707,3.8707,3.8707,3.8707,3.8707,3.8707,3.8627,3.8562,3.8562,3.8099,3.7772,3.7772,3.7506,3.7285,3.7209,3.7359,3.7396,3.7209,3.7502,3.7629,3.7518,3.7753,3.7825,3.7731,3.6926,3.6794,3.727,3.6354,3.6241,3.6793,3.6933,3.7381,3.9091,4.0859,4.2777,4.4242,4.4615,4.4615,4.4615,4.5485,4.6288,4.6288,4.6819,4.7277,4.7277,4.7114,4.6738,4.5935,4.515,4.4346,4.3524,4.2919,4.2577,4.2577,4.2121,4.181,4.181,4.181,4.1485,4.0687,3.9926,3.9168,3.8377,3.7111,3.6395,3.6395,3.6395,3.6371,3.6291,3.7305,3.7807,3.7807,3.835,3.8627,3.8707,3.8707,3.8707,3.8707,3.8707,3.8707,3.8707,3.8707,3.8707,3.8707,3.8707,3.8707,3.8707,3.8707,3.8707,3.8579,3.7786,3.7125,3.6431,3.5353,3.4601,3.4082,3.3862,3.3807,3.3825,3.3935,3.3972,3.399,3.41,3.4564,3.5041,3.5151,3.5587,3.6248,3.7272,3.7419,3.7621,3.8524,3.8707,3.8707,3.8707,3.8707,3.8707,3.8707,3.83,3.8015,3.8015,3.7578,3.7285,3.7285,3.7596,3.7649,3.7229,3.7999,3.8135,3.7266,3.8666,3.9337,3.8869,3.9958,4.034,3.9805,3.8035,3.7238,3.7537,3.7343,3.7629,3.8361,3.7956,3.8159,3.9054,4.0618,4.2151,4.4124,4.4248,4.4045,4.4513,4.5267,4.5989,4.6336,4.6932,4.7365,4.7254,4.7162,4.6691,4.5443,4.4947,4.4415,4.3608,4.3286,4.316,4.316,4.2903,4.2753,4.2753,4.2753,4.2276,4.1139,4.0634,3.9896,3.874,3.7769,3.723,3.723,3.723,3.7098,3.6862,3.7861,3.835,3.835,3.8596,3.8707,3.8707,3.8707,3.8707,3.8707,3.8707,3.8707,3.8707,3.8707,3.8707,3.8707,3.8707,3.8707,3.8707,3.8707,3.8707,3.8524,3.7257,3.6905,3.6684,3.4908,3.438,3.438,3.3935,3.3807,3.3899,3.4344,3.4472,3.4582,3.5073,3.5459,3.5844,3.6285,3.6688,3.7199,3.7991,3.7823,3.7749,3.8542,3.8707,3.8707,3.8707,3.8707,3.8707,3.8707,3.8496,3.835,3.835,3.8168,3.8033,3.8033,3.8234,3.8267,3.805,3.8549,3.882,3.8718,3.9265,3.9643,3.9716,3.9986,3.9884,3.9297,3.8779,3.8523,3.8614,3.8003,3.8042,3.8629,3.8547,3.8684,3.856,3.9844,4.0937,4.3172,4.3572,4.3572,4.4147,4.4925,4.5622,4.6088,4.6819,4.7277,4.6936,4.6836,4.6397,4.5204,4.4672,4.4195,4.3571,4.3515,4.3515,4.3515,4.3515,4.3515,4.3515,4.3331,4.2681,4.1415,4.1003,4.0251,3.8988,3.827,3.7893,3.7893,3.7893,3.7737,3.7378,3.8269,3.8707,3.8707,3.8707,3.8707,3.8707,3.8707,3.8707,3.8707,3.8707,3.8707,3.8707,3.8707,3.8707,3.8707,3.8707,3.8707,3.8707,3.8707,3.8707,3.8469,3.6853,3.6703,3.6831,3.4541,3.4211,3.4582,3.399,3.3807,3.3972,3.4766,3.5004,3.5206,3.6064,3.645,3.6758,3.7364,3.7658,3.7955,3.8579,3.823,3.7988,3.8579,3.8707,3.8707,3.8707,3.8707,3.8707,3.8707,3.8707,3.8707,3.8707,3.8891,3.8954,3.8791,3.8958,3.8968,3.8698,3.8942,3.9175,3.9373,3.9585,3.9815,4.0094,4.0033,3.9765,3.92,3.9637,3.9743,3.9487,3.8728,3.8642,3.9195,3.9245,3.9276,3.6362,3.7552,3.8671,4.0828,4.2405,4.3409,4.3443,4.4531,4.5511,4.5545,4.6542,4.7172,4.6395,4.6093,4.5938,4.5847,4.4562,4.3551,4.3515,4.3515,4.3515,4.3515,4.3515,4.3515,4.3515,4.28,4.2012,4.1172,4.0398,3.9606,3.8753,3.8201,3.7893,3.7893,3.7893,3.7894,3.7859,3.8415,3.8707,3.8707,3.8707,3.8707,3.8707,3.8707,3.8707,3.8707,3.8707,3.8707,3.8707,3.8707,3.8707,3.8707,3.8707,3.8707,3.8707,3.8707,3.8707,3.8469,3.6853,3.6321,3.6083,3.4357,3.3825,3.3844,3.3807,3.3807,3.3972,3.4766,3.5004,3.5206,3.6064,3.6868,3.7456,3.7492,3.8065,3.8652,3.8689,3.867,3.8652,3.8689,3.8707,3.8707,3.8707,3.8707,3.8707,3.8707,3.8707,3.8707,3.8707,3.9368,3.963,3.9047,3.9662,3.9704,3.8686,3.908,3.9003,3.8063,3.9608,4.0317,3.9837,4.1002,4.1389,4.0782,4.0805,4.0481,3.977,3.9674,4.0014,4.0758,4.0275,4.0045,3.568,3.6332,3.7268,4.0424,4.161,4.2252,4.3172,4.4187,4.5142,4.5915,4.643,4.691,4.7454,4.6633,4.5736,4.5223,4.4213,4.3515,4.3515,4.3515,4.3515,4.3515,4.3515,4.3515,4.3515,4.3239,4.2525,4.1187,4.082,4.0102,3.8781,3.853,3.8415,3.8415,3.8415,3.8415,3.8415,3.8593,3.8707,3.8707,3.8707,3.8707,3.8707,3.8707,3.8707,3.8707,3.8707,3.8707,3.8707,3.8707,3.8707,3.8707,3.8707,3.8707,3.8707,3.8707,3.8707,3.8469,3.6853,3.6648,3.6795,3.5128,3.4564,3.4674,3.5238,3.5018,3.4839,3.6211,3.6597,3.6798,3.7624,3.8046,3.8267,3.8267,3.8487,3.8707,3.8707,3.8707,3.8707,3.8707,3.8707,3.8707,3.8707,3.8707,3.8707,3.8707,3.8707,3.8596,3.8216,3.9191,3.9551,3.8666,3.9532,3.9904,3.9167,3.9407,3.96,3.9634,4.0049,4.0347,4.0504,4.0636,4.0618,4.0392,4.0392,4.0256,4.0,3.9976,4.0112,4.0368,4.0179,4.0096,3.4376,3.5052,3.6129,3.9341,4.0289,4.0916,4.2642,4.3436,4.4143,4.5171,4.5772,4.6407,4.747,4.6746,4.5808,4.5187,4.4195,4.3515,4.3515,4.3515,4.3515,4.3515,4.3515,4.3515,4.3515,4.3259,4.2543,4.1187,4.0838,0.0,3.8781,3.8707,3.8707,3.8707,3.8707,3.8707,3.8707,3.8707,3.8707,3.8707,3.8707,3.8707,3.8707,3.8707,3.8707,3.8707,3.8707,3.8707,3.8707,3.8707,3.8707,3.8707,3.8707,3.8707,3.8707,3.8707,3.8707,3.8505,3.7165,3.7052,3.7272,3.5899,3.5445,3.5536,3.6119,3.5899,3.572,3.7107,3.7492,3.7694,3.8487,3.8707,3.8707,3.8707,3.8707,3.8707,3.8707,3.8707,3.8707,3.8707,3.8707,3.8643,3.8465,3.8433,3.8366,3.8218,3.8404,3.8431,3.808,3.9422,4.0057,3.9177,4.0244,4.0729,3.9961,4.022,4.0406,4.0441,4.0397,4.0546,4.088,4.0392,4.0279,4.0666,4.0286,4.0303,4.0666,4.0303,4.0096,4.0096,4.0096,4.0096,0.0,0.0,0.0,3.7396,3.8455,3.9529,4.1694,4.2202,4.2455,4.3244,4.4489,4.5629,4.627,4.6306,4.6142,4.5938,4.458,4.3551,4.3551,4.3497,4.3515,4.3515,4.3515,4.3515,4.3515,4.2782,4.2011,4.1187,4.0396,3.957,3.8781,3.8707,3.8707,3.8707,3.8707,3.8707,3.8707,3.8707,3.8707,3.8707,3.8707,3.8707,3.8707,3.8707,3.8707,3.8707,3.8707,3.8689,3.867,3.8689,3.8707,3.8707,3.8707,3.8707,3.8707,3.8707,3.8707,3.8579,3.7786,3.7529,3.7401,3.6597,3.634,3.634,3.6358,3.634,3.6486,3.7309,3.7529,3.7731,3.8505,3.8707,3.8707,3.8707,3.8707,3.8707,3.8707,3.8707,3.8707,3.8707,3.8692,3.8496,3.798,3.7894,3.7738,3.7302,3.7844,3.832,3.8318,4.0138,4.1221,4.066,4.1857,4.2203,4.1041,4.1468,4.1331,4.0204,4.0631,4.0926,4.0926,4.0441,4.0666,4.175,4.0689,4.0666,4.1746,4.0666,4.0121,4.0146,4.0121,4.0138,3.241,0.0,0.0,0.0,0.0,0.0,3.9648,4.0324,4.1223,4.2962,4.3627,4.4425,4.6076,4.6306,4.6179,4.6126,4.513,4.4378,4.4378,4.3864,4.3515,4.3515,4.3515,4.3515,4.3515,4.3313,4.2818,0.0,4.1222,4.0414,3.9606,3.9019,3.8707,3.8707,3.8707,3.8707,3.8707,3.8707,3.8707,3.8707,3.8707,3.8707,3.8707,3.8707,3.8707,3.8707,3.8707,3.8377,3.7878,3.8469,3.8707,3.8707,3.8707,3.8707,3.8707,3.8707,3.8707,3.8579,3.7786,3.7878,3.823,3.7437,3.718,3.729,3.7863,3.7624,3.7345,3.8138,3.8377,3.8414,3.8652,3.8707,3.8707,3.8707,3.8707,3.8707,3.8707,3.8707,3.8707,3.8707,3.8382,3.8082,3.7929,3.7614,3.7537,3.7934,3.8504,3.8956,3.9142,4.0871,4.1706,4.0765,4.1896,4.2382,4.1621,4.1707,4.1682,4.1353,4.1468,4.1556,4.1556,4.142,4.1268,4.1155,4.0827,4.0648,4.057,4.0648,4.0897,4.1308,4.0874,4.0473,3.2007,3.2652,0.0,3.5312,0.0,0.0,3.9006,3.9546,4.0179,4.2054,4.2679,4.3345,4.4819,4.5051,4.5263,4.6113,4.5482,4.4948,4.5168,4.4507,4.3993,4.3993,4.3699,4.3515,4.3515,4.3515,4.3167,4.2359,4.1882,4.1111,3.9955,3.9148,3.8707,3.8707,3.8707,3.8707,3.8707,3.8707,3.8707,3.8707,3.8707,3.8707,3.8707,3.8707,3.8707,3.8689,3.834,3.7933,3.7511,3.7643,3.79,3.8175,3.7826,3.812,3.867,3.8322,3.8193,3.8175,3.8046,3.8098,3.8175,3.8028,3.7991,3.8083,3.856,3.8377,3.8102,3.8579,3.8707,3.8707,3.8707,3.8707,3.8707,3.8707,3.8707,3.8707,3.8707,3.8707,3.8627,3.8399,3.8573,3.8606,3.8187,3.8329,3.8556,3.8805,3.9377,3.9811,3.9977,4.1447,4.2232,4.1604,4.2443,4.2694,4.1874,4.2021,4.1958,4.1468,4.1664,4.181,4.181,4.1556,4.138,4.1291,4.0821,4.0504,4.0424,4.0504,4.0767,4.1076,4.0726,4.0392,3.1511,3.2035,0.0,3.4972,3.5013,0.0,3.874,3.9048,3.9039,4.0527,4.1356,4.2039,4.2792,4.3068,4.3734,4.5434,4.5454,4.5424,4.5957,4.5351,4.4837,4.4837,4.4121,4.3626,4.3626,4.3551,4.3185,4.2488,4.2268,4.146,3.9845,3.9093,3.8707,3.8707,3.8707,3.8707,3.8707,3.8707,3.8707,3.8707,3.8707,3.8707,3.8707,3.8707,3.8652,3.8524,3.7823,3.7401,3.718,3.645,3.6615,3.7309,3.6593,3.7221,3.8487,3.7768,3.7566,3.7749,3.845,3.823,3.7749,3.8469,3.8707,3.8707,3.8707,3.8707,3.8707,3.8707,3.8707,3.8707,3.8707,3.8707,3.8707,3.8707,3.8707,3.8707,3.8707,3.8707,3.8564,3.8105,3.901,3.9554,3.8753,3.9512,4.0109,3.9775,4.0321,4.0821,4.0907,4.2011,4.2769,4.2711,4.3142,4.2959,4.1877,4.2302,4.2142,4.1064,4.1512,4.181,4.181,4.1273,4.1223,4.1686,4.0642,4.0319,4.0803,4.0466,4.0254,4.0179,4.0179,4.0171,3.1511,3.2035,3.2703,3.3131,3.3918,0.0,3.5512,3.5984,3.6698,3.8244,3.8667,3.9172,4.0475,4.1653,4.2334,4.2088,4.4307,4.6259,4.68,4.6177,4.5663,4.5663,4.4966,4.447,4.447,4.3883,4.3441,4.3277,4.2066,4.0634,3.9019,3.8799,3.8707,3.8707,3.8707,3.8707,3.8707,3.8707,3.8707,3.8707,3.8707,3.8707,3.8707,3.8707,3.834,3.7731,3.7566,3.6725,3.5481,3.5316,3.5756,3.6505,3.6358,3.6905,3.7731,3.7566,3.7915,3.8487,3.8652,3.8597,3.8487,3.8652,3.8707,3.8707,3.8707,3.8707,3.8707,3.8707,3.8707,3.8707,3.8707,3.8707,3.8707,3.8707,3.8707,3.8707,3.8707,3.8707,3.8729,3.8828,3.9081,3.9388,3.9842,3.9815,3.9904,4.0425,4.0978,4.1588,4.2233,4.2923,4.3178,4.275,4.2788,4.2578,4.1874,4.1916,4.1874,4.1643,4.1729,4.181,4.181,4.1686,4.1446,4.1087,4.0441,4.0146,4.0262,4.1059,4.1218,4.0733,4.0733,4.0504,3.1585,3.1768,3.2148,3.252,3.3119,0.0,0.0,3.5418,3.6095,3.7597,3.7905,3.8125,3.887,3.9569,4.0253,4.0897,4.2831,4.4703,4.5921,4.634,4.6507,4.6507,4.5425,4.4691,4.4691,4.3975,4.3515,4.3515,4.2011,4.0747,3.9939,3.9148,3.8707,3.8707,3.8707,3.8707,3.8707,3.8707,3.8707,3.8707,3.8285,3.8102,3.8083,3.7679,3.7276,3.6886,3.6431,3.5775,3.4968,3.4564,3.4669,3.5055,3.5055,3.606,3.7456,3.7052,3.7419,3.8157,3.856,3.8432,3.8175,3.8579,3.8707,3.8707,3.8707,3.8707,3.8707,3.8707,3.8707,3.8707,3.8707,3.8707,3.8707,3.8707,3.8707,3.8707,3.8707,3.9019,3.9452,3.9989,4.041,4.0741,4.089,4.1251,4.1685,4.2046,4.21,4.2243,4.2657,4.2675,4.2542,4.2282,4.2262,4.2018,4.1402,4.1358,4.1358,4.1358,4.1358,4.149,4.1789,4.181,4.1664,4.1358,4.0797,4.0648,4.0938,4.153,4.1335,4.0497,4.0497,4.0343,3.169,3.1511,3.164,3.2244,0.0,3.3063,0.0,0.0,0.0,3.7172,3.7466,3.7466,0.0,0.0,0.0,3.9698,0.0,0.0,0.0,4.526,0.0,4.68,4.5847,4.5095,4.4947,4.4066,4.3515,4.3515,4.1864,4.0873,4.0873,3.9496,3.8707,3.8707,3.8707,3.8707,3.8707,3.8707,3.8707,3.8689,3.8028,3.7658,3.7474,3.6831,3.634,3.6009,3.5316,3.4912,3.4729,3.4082,3.3807,3.3807,3.3807,3.522,3.7199,3.6541,3.6923,3.7823,3.8469,3.8267,3.7841,3.8487,3.8707,3.8707,3.8707,3.8707,3.8707,3.8707,3.8707,3.8707,3.8707,3.8707,3.8707,3.8707,3.8707,3.8744,3.8909,3.9441,4.0175,4.1132,4.1864,4.2221,4.1923,4.2793,4.3462,4.3375,4.2976,4.2711,4.2711,4.2264,4.1979,4.1979,4.1979,4.1729,4.1133,4.1087,4.1087,4.1087,4.1087,4.1291,4.1789,4.181,4.181,4.181,4.1335,4.1313,4.181,4.181,4.1331,4.0434,4.0434,4.0502,0.0,0.0,0.0,0.0,3.212,0.0,0.0,0.0,3.4932,3.5706,0.0,0.0,0.0,0.0,0.0,0.0,0.0,0.0,4.0472,4.1704,4.344,4.5755,4.6489,4.6544,4.5828,4.4378,4.3515,4.3515,4.135,4.0029,4.0029,3.9184,3.8707,3.8707,3.8707,3.8707,3.8707,3.8707,3.8707,3.8707,3.8615,3.8193,3.7492,3.7419,3.6541,3.5151,3.5041,3.4601,3.3935,3.3844,3.3807,3.3807,3.3807,3.4871,3.6431,3.6321,3.7257,3.8579,3.867,3.8652,3.8579,3.867,3.8707,3.8707,3.8707,3.8707,3.8707,3.8707,3.8707,3.8707,3.8707,3.8707,3.8707,3.8707,3.8707,3.8909,3.9606,3.9827,4.0341,4.1864,4.2249,4.2508,4.3152,4.3407,4.3339,4.2864,4.275,4.2711,4.2711,4.2635,4.2596,4.2596,4.2596,4.2342,4.175,4.1686,4.1686,4.1686,4.1686,4.1729,4.181,4.181,4.181,4.181,4.1729,4.1729,4.181,4.181,4.1729,4.1617,4.1617,4.1991,0.0,0.0,0.0,0.0,0.0,0.0,3.2868,0.0,3.4211,0.0,0.0,0.0,0.0,0.0,0.0,0.0,3.7671,0.0,0.0,0.0,4.2294,0.0,0.0,0.0,4.381,4.3608,4.3515,4.3515,4.1699,4.0598,4.0598,3.9827,3.9184,3.8707,3.8707,3.8707,3.8707,3.8707,3.8707,3.8689,3.823,3.7584,3.6795,3.6285,3.5422,3.4289,3.4289,3.4119,3.3807,3.3807,3.4082,3.4491,3.4491,3.5238,3.6358,3.6831,3.7716,3.8707,3.8707,3.8707,3.8707,3.8707,3.8707,3.8707,3.8707,3.8707,3.8707,3.8707,3.8707,3.8707,3.8707,3.9056,3.9276,3.8817,3.9407,4.0065,3.9918,4.0634,4.1497,4.2176,4.2671,4.3094,4.3441,4.3515,4.3427,4.3196,4.2902,4.2711,4.2711,4.2382,4.2183,4.2183,4.2183,4.208,4.1832,4.181,4.181,4.181,4.2142,4.2322,4.2322,4.2322,4.2462,4.2772,4.2482,4.2482,4.2791,4.2791,4.2791,4.2772,4.2608,4.2686,3.169,0.0,0.0,0.0,0.0,0.0,0.0,0.0,0.0,0.0,0.0,0.0,0.0,0.0,0.0,0.0,0.0,3.7732,0.0,3.8939,0.0,0.0,0.0,0.0,0.0,4.3135,4.3259,4.3478,4.1607,4.0526,4.0763,4.001,3.9294,3.8726,3.8707,3.8707,3.8707,3.8707,3.8707,3.8689,3.8102,3.7276,3.6266,3.5628,3.4784,3.3807,3.3807,3.3807,3.3825,3.4045,3.4472,3.5059,3.55,3.6083,3.6703,3.729,3.8025,3.8707,3.8707,3.8707,3.8707,3.8707,3.8707,3.8707,3.8707,3.8707,3.8707,3.8707,3.8707,3.8762,3.8964,3.946,3.9808,3.9441,4.0251,4.0985,4.0634,4.1479,4.2378,4.2598,4.3094,4.3515,4.3515,4.3515,4.3444,4.3303,4.2939,4.2711,4.2711,4.2322,4.2103,4.2246,4.2266,4.2266,4.2266,4.2266,4.2266,4.2266,4.2675,4.292,4.292,4.292,4.3087,4.3479,4.3124,4.3105,4.3515,4.3515,4.3515,4.3497,4.3471,4.3578,0.0,0.0,0.0,3.1511,0.0,0.0,0.0,0.0,3.3217,0.0,0.0,0.0,0.0,0.0,0.0,0.0,0.0,0.0,0.0,0.0,0.0,0.0,0.0,0.0,0.0,4.3378,4.2653,0.0,4.0561,3.9129,3.99,3.9184,3.8726,3.8707,3.8707,3.8707,3.8707,3.8707,3.8707,3.8707,3.867,3.7826,3.6303,3.6266,3.5349,3.3807,3.3807,3.3807,3.3862,3.4637,3.4986,3.5169,3.678,3.7437,3.7456,3.7492,3.8025,3.8707,3.8707,3.8707,3.8707,3.8707,3.8707,3.8707,3.8707,3.8707,3.8707,3.8707,3.8707,3.8891,3.9662,3.9879,4.0084,4.0838,4.1058,4.1297,4.2066,4.2268,4.2525,4.3296,4.3478,4.3515,4.3515,4.3515,4.3321,4.2789,4.2711,4.2711,4.2711,4.2674,4.2883,4.3392,4.3444,4.3444,4.3444,4.3444,4.3444,4.3444,4.3462,4.3462,4.3462,4.3462,4.3479,4.3515,4.3479,4.3479,4.3515,4.3515,4.3515,4.3533,4.4288,4.5059,0.0,0.0,3.1511,3.1511,0.0,0.0,0.0,0.0,0.0,0.0,0.0,0.0,0.0,0.0,0.0,0.0,0.0,0.0,0.0,0.0,0.0,0.0,0.0,0.0,0.0,0.0,0.0,4.1941,4.1405,4.0965,4.0726,4.0451,4.0047,3.9515,3.8982,3.8707,3.8707,3.8707,3.8707,3.8707,3.8707,3.8138,3.7088,3.7088,3.6486,3.544,3.544,3.544,3.5477,3.5752,3.6174,3.6707,3.729,3.7841,3.8285,3.8285,3.8469,3.8707,3.8707,3.8707,3.8707,3.8707,3.8707,3.8707,3.8707,3.8707,3.8707,3.8707,3.9074,3.9551,3.9827,4.0689,4.1423,4.115,4.1919,4.2616,4.2359,4.2708,4.3167,4.346,4.3515,4.3515,4.3515,4.3515,4.3427,4.325,4.3232,4.3232,4.3232,4.3232,4.3286,4.3479,4.3515,4.3515,4.3515,4.3515,4.3515,4.3515,4.3515,4.3515,4.3515,4.3515,4.3515,4.3515,4.3515,4.3339,4.2976,4.3447,4.372,4.3794,4.4646,4.5357,3.1511,3.1511,0.0,3.1824,3.1697,0.0,3.2096,0.0,3.2808,0.0,0.0,0.0,0.0,0.0,0.0,0.0,0.0,0.0,0.0,3.5859,0.0,0.0,0.0,0.0,0.0,0.0,4.1452,4.1537,4.1479,4.135,0.0,4.1095,4.0728,3.9918,3.9405,3.9001,3.8707,3.8707,3.8707,3.8707,3.8707,3.8267,3.7492,3.7492,3.707,3.6303,3.6303,3.6303,3.6321,3.6611,3.7033,3.7529,3.7823,3.823,3.8707,3.8707,3.8707,3.8707,3.8707,3.8707,3.8707,3.8707,3.8707,3.8762,3.9038,3.9129,3.9184,3.9478,3.9937,4.0396,4.0671,4.1515,4.2249,4.2011,4.2745,4.3368,4.2837,4.313,4.3515,4.3515,4.3515,4.3515,4.3515,4.3515,4.3515,4.3515,4.3515,4.3515,4.3515,4.3515,4.3515,4.3515,4.3515,4.3515,4.3515,4.3515,4.3515,4.3515,4.3515,4.3643,4.3901,4.392,4.392,4.392,4.392,4.376,4.3412,4.3883,4.4283,4.463,4.5498,4.6047]}]]